<?xml version="1.0" encoding="UTF-8" standalone="no" ?>
<gpx xmlns="http://www.topografix.com/GPX/1/1" xmlns:xsi="http://www.w3.org/2001/XMLSchema-instance" xsi:schemaLocation="http://www.topografix.com/GPX/1/1 http://www.topografix.com/GPX/1/1/gpx.xsd" version="1.1" creator="VisuGPX - https://www.visugpx.com">
  <metadata>
    <name>2021-11-17 09:26</name>
    <desc><![CDATA[File with points/tracks from Locus Map Pro/3.55.1]]></desc>
  </metadata>
  <trk>
    <name><![CDATA[2021-11-17 09:26]]></name>
    <desc><![CDATA[Cap coz rando Bretagne]]></desc>
    <extensions>
      <line xmlns="http://www.topografix.com/GPX/gpx_style/0/2">
        <color>0000FF</color>
        <opacity>0.59</opacity>
        <width>6.0</width>
      </line>
    </extensions>
    <trkseg>
      <trkpt lat="47.88642" lon="-3.98847">
        <ele>5.18</ele>
        <time>2021-11-17T08:26:41.000Z</time>
      </trkpt>
      <trkpt lat="47.88643" lon="-3.98846">
        <ele>5.35</ele>
        <time>2021-11-17T08:26:46.000Z</time>
      </trkpt>
      <trkpt lat="47.88645" lon="-3.98842">
        <ele>4.55</ele>
        <time>2021-11-17T08:26:51.000Z</time>
      </trkpt>
      <trkpt lat="47.88649" lon="-3.98837">
        <ele>4.57</ele>
        <time>2021-11-17T08:26:55.687Z</time>
      </trkpt>
      <trkpt lat="47.88651" lon="-3.98831">
        <ele>4.53</ele>
        <time>2021-11-17T08:26:59.895Z</time>
      </trkpt>
      <trkpt lat="47.88653" lon="-3.98823">
        <ele>4.56</ele>
        <time>2021-11-17T08:27:05.000Z</time>
      </trkpt>
      <trkpt lat="47.88654" lon="-3.98819">
        <ele>4.6</ele>
        <time>2021-11-17T08:27:09.410Z</time>
      </trkpt>
      <trkpt lat="47.88653" lon="-3.98817">
        <ele>4.62</ele>
        <time>2021-11-17T08:27:14.000Z</time>
      </trkpt>
      <trkpt lat="47.88654" lon="-3.98816">
        <ele>5.15</ele>
        <time>2021-11-17T08:27:28.000Z</time>
      </trkpt>
      <trkpt lat="47.88656" lon="-3.98815">
        <ele>7.1</ele>
        <time>2021-11-17T08:27:33.000Z</time>
      </trkpt>
      <trkpt lat="47.88657" lon="-3.98814">
        <ele>5.01</ele>
        <time>2021-11-17T08:31:39.000Z</time>
      </trkpt>
      <trkpt lat="47.88655" lon="-3.98813">
        <ele>5.29</ele>
        <time>2021-11-17T08:32:57.000Z</time>
      </trkpt>
      <trkpt lat="47.8865" lon="-3.9881">
        <ele>5.29</ele>
        <time>2021-11-17T08:33:01.410Z</time>
      </trkpt>
      <trkpt lat="47.88644" lon="-3.98804">
        <ele>5.33</ele>
        <time>2021-11-17T08:33:06.000Z</time>
      </trkpt>
      <trkpt lat="47.88637" lon="-3.988">
        <ele>5.4</ele>
        <time>2021-11-17T08:33:10.601Z</time>
      </trkpt>
      <trkpt lat="47.88632" lon="-3.98796">
        <ele>5.35</ele>
        <time>2021-11-17T08:33:14.643Z</time>
      </trkpt>
      <trkpt lat="47.88625" lon="-3.98792">
        <ele>5.29</ele>
        <time>2021-11-17T08:33:19.461Z</time>
      </trkpt>
      <trkpt lat="47.88618" lon="-3.98789">
        <ele>5.38</ele>
        <time>2021-11-17T08:33:24.503Z</time>
      </trkpt>
      <trkpt lat="47.88613" lon="-3.98785">
        <ele>5.42</ele>
        <time>2021-11-17T08:33:28.624Z</time>
      </trkpt>
      <trkpt lat="47.88606" lon="-3.98782">
        <ele>5.45</ele>
        <time>2021-11-17T08:33:33.444Z</time>
      </trkpt>
      <trkpt lat="47.88598" lon="-3.98779">
        <ele>5.41</ele>
        <time>2021-11-17T08:33:38.570Z</time>
      </trkpt>
      <trkpt lat="47.88593" lon="-3.98777">
        <ele>5.46</ele>
        <time>2021-11-17T08:33:42.584Z</time>
      </trkpt>
      <trkpt lat="47.88586" lon="-3.98774">
        <ele>5.48</ele>
        <time>2021-11-17T08:33:47.543Z</time>
      </trkpt>
      <trkpt lat="47.88581" lon="-3.98771">
        <ele>5.54</ele>
        <time>2021-11-17T08:33:51.565Z</time>
      </trkpt>
      <trkpt lat="47.88575" lon="-3.98768">
        <ele>5.56</ele>
        <time>2021-11-17T08:33:55.826Z</time>
      </trkpt>
      <trkpt lat="47.88569" lon="-3.98767">
        <ele>3.88</ele>
        <time>2021-11-17T08:34:00.468Z</time>
      </trkpt>
      <trkpt lat="47.88564" lon="-3.98766">
        <ele>4.35</ele>
        <time>2021-11-17T08:34:04.746Z</time>
      </trkpt>
      <trkpt lat="47.88557" lon="-3.98767">
        <ele>5.33</ele>
        <time>2021-11-17T08:34:09.566Z</time>
      </trkpt>
      <trkpt lat="47.88552" lon="-3.98759">
        <ele>5.57</ele>
        <time>2021-11-17T08:34:14.408Z</time>
      </trkpt>
      <trkpt lat="47.88549" lon="-3.98754">
        <ele>5.59</ele>
        <time>2021-11-17T08:34:19.000Z</time>
      </trkpt>
      <trkpt lat="47.88546" lon="-3.98748">
        <ele>5.67</ele>
        <time>2021-11-17T08:34:23.749Z</time>
      </trkpt>
      <trkpt lat="47.88542" lon="-3.98743">
        <ele>5.69</ele>
        <time>2021-11-17T08:34:28.555Z</time>
      </trkpt>
      <trkpt lat="47.88539" lon="-3.9874">
        <ele>5.73</ele>
        <time>2021-11-17T08:34:33.000Z</time>
      </trkpt>
      <trkpt lat="47.88541" lon="-3.98739">
        <ele>5.67</ele>
        <time>2021-11-17T08:34:38.000Z</time>
      </trkpt>
      <trkpt lat="47.88542" lon="-3.98741">
        <ele>5.69</ele>
        <time>2021-11-17T08:34:43.000Z</time>
      </trkpt>
      <trkpt lat="47.88543" lon="-3.98742">
        <ele>5.65</ele>
        <time>2021-11-17T08:34:48.000Z</time>
      </trkpt>
      <trkpt lat="47.88545" lon="-3.98743">
        <ele>5.77</ele>
        <time>2021-11-17T08:34:53.000Z</time>
      </trkpt>
      <trkpt lat="47.88545" lon="-3.98749">
        <ele>5.7</ele>
        <time>2021-11-17T08:34:58.000Z</time>
      </trkpt>
      <trkpt lat="47.88544" lon="-3.98748">
        <ele>5.5</ele>
        <time>2021-11-17T08:35:23.000Z</time>
      </trkpt>
      <trkpt lat="47.88541" lon="-3.98744">
        <ele>5.49</ele>
        <time>2021-11-17T08:35:27.134Z</time>
      </trkpt>
      <trkpt lat="47.88534" lon="-3.9874">
        <ele>5.44</ele>
        <time>2021-11-17T08:35:31.175Z</time>
      </trkpt>
      <trkpt lat="47.88531" lon="-3.98735">
        <ele>5.49</ele>
        <time>2021-11-17T08:35:35.358Z</time>
      </trkpt>
      <trkpt lat="47.88532" lon="-3.98727">
        <ele>5.34</ele>
        <time>2021-11-17T08:35:39.636Z</time>
      </trkpt>
      <trkpt lat="47.88532" lon="-3.98721">
        <ele>5.52</ele>
        <time>2021-11-17T08:35:43.677Z</time>
      </trkpt>
      <trkpt lat="47.88534" lon="-3.98718">
        <ele>5.48</ele>
        <time>2021-11-17T08:35:48.000Z</time>
      </trkpt>
      <trkpt lat="47.88535" lon="-3.98714">
        <ele>5.28</ele>
        <time>2021-11-17T08:35:53.000Z</time>
      </trkpt>
      <trkpt lat="47.88533" lon="-3.98716">
        <ele>5.26</ele>
        <time>2021-11-17T08:35:58.000Z</time>
      </trkpt>
      <trkpt lat="47.88531" lon="-3.98719">
        <ele>5.23</ele>
        <time>2021-11-17T08:36:03.000Z</time>
      </trkpt>
      <trkpt lat="47.88531" lon="-3.98722">
        <ele>5.27</ele>
        <time>2021-11-17T08:36:08.000Z</time>
      </trkpt>
      <trkpt lat="47.8853" lon="-3.9872">
        <ele>5.26</ele>
        <time>2021-11-17T08:36:13.000Z</time>
      </trkpt>
      <trkpt lat="47.8853" lon="-3.98719">
        <ele>5.36</ele>
        <time>2021-11-17T08:36:28.000Z</time>
      </trkpt>
      <trkpt lat="47.88532" lon="-3.98716">
        <ele>5.34</ele>
        <time>2021-11-17T08:36:32.233Z</time>
      </trkpt>
      <trkpt lat="47.88533" lon="-3.9871">
        <ele>5.35</ele>
        <time>2021-11-17T08:36:36.274Z</time>
      </trkpt>
      <trkpt lat="47.88538" lon="-3.98705">
        <ele>5.4</ele>
        <time>2021-11-17T08:36:40.374Z</time>
      </trkpt>
      <trkpt lat="47.88542" lon="-3.98696">
        <ele>5.45</ele>
        <time>2021-11-17T08:36:44.452Z</time>
      </trkpt>
      <trkpt lat="47.88547" lon="-3.98689">
        <ele>5.45</ele>
        <time>2021-11-17T08:36:48.614Z</time>
      </trkpt>
      <trkpt lat="47.88551" lon="-3.98683">
        <ele>5.46</ele>
        <time>2021-11-17T08:36:53.000Z</time>
      </trkpt>
      <trkpt lat="47.88555" lon="-3.98677">
        <ele>5.42</ele>
        <time>2021-11-17T08:36:57.415Z</time>
      </trkpt>
      <trkpt lat="47.88559" lon="-3.9867">
        <ele>5.44</ele>
        <time>2021-11-17T08:37:01.594Z</time>
      </trkpt>
      <trkpt lat="47.88563" lon="-3.98664">
        <ele>5.43</ele>
        <time>2021-11-17T08:37:05.777Z</time>
      </trkpt>
      <trkpt lat="47.88566" lon="-3.98658">
        <ele>5.44</ele>
        <time>2021-11-17T08:37:09.818Z</time>
      </trkpt>
      <trkpt lat="47.88571" lon="-3.98652">
        <ele>5.48</ele>
        <time>2021-11-17T08:37:14.376Z</time>
      </trkpt>
      <trkpt lat="47.88574" lon="-3.98646">
        <ele>5.51</ele>
        <time>2021-11-17T08:37:18.400Z</time>
      </trkpt>
      <trkpt lat="47.88579" lon="-3.98638">
        <ele>5.51</ele>
        <time>2021-11-17T08:37:23.159Z</time>
      </trkpt>
      <trkpt lat="47.88583" lon="-3.98634">
        <ele>5.61</ele>
        <time>2021-11-17T08:37:27.222Z</time>
      </trkpt>
      <trkpt lat="47.88587" lon="-3.98628">
        <ele>5.56</ele>
        <time>2021-11-17T08:37:31.240Z</time>
      </trkpt>
      <trkpt lat="47.8859" lon="-3.98621">
        <ele>5.56</ele>
        <time>2021-11-17T08:37:35.282Z</time>
      </trkpt>
      <trkpt lat="47.88593" lon="-3.98613">
        <ele>5.49</ele>
        <time>2021-11-17T08:37:39.399Z</time>
      </trkpt>
      <trkpt lat="47.88597" lon="-3.98605">
        <ele>5.46</ele>
        <time>2021-11-17T08:37:44.000Z</time>
      </trkpt>
      <trkpt lat="47.88601" lon="-3.98598">
        <ele>5.51</ele>
        <time>2021-11-17T08:37:48.540Z</time>
      </trkpt>
      <trkpt lat="47.88606" lon="-3.98592">
        <ele>5.56</ele>
        <time>2021-11-17T08:37:52.619Z</time>
      </trkpt>
      <trkpt lat="47.88609" lon="-3.98585">
        <ele>5.49</ele>
        <time>2021-11-17T08:37:56.665Z</time>
      </trkpt>
      <trkpt lat="47.88613" lon="-3.98579">
        <ele>5.52</ele>
        <time>2021-11-17T08:38:00.822Z</time>
      </trkpt>
      <trkpt lat="47.88617" lon="-3.98572">
        <ele>-1.45</ele>
        <time>2021-11-17T08:38:04.884Z</time>
      </trkpt>
      <trkpt lat="47.88621" lon="-3.98565">
        <ele>-1.51</ele>
        <time>2021-11-17T08:38:09.516Z</time>
      </trkpt>
      <trkpt lat="47.88625" lon="-3.98558">
        <ele>-1.79</ele>
        <time>2021-11-17T08:38:13.591Z</time>
      </trkpt>
      <trkpt lat="47.8863" lon="-3.9855">
        <ele>-2.35</ele>
        <time>2021-11-17T08:38:18.771Z</time>
      </trkpt>
      <trkpt lat="47.88633" lon="-3.98543">
        <ele>-2.56</ele>
        <time>2021-11-17T08:38:22.793Z</time>
      </trkpt>
      <trkpt lat="47.88637" lon="-3.98535">
        <ele>-2.81</ele>
        <time>2021-11-17T08:38:27.357Z</time>
      </trkpt>
      <trkpt lat="47.8864" lon="-3.98529">
        <ele>-3.16</ele>
        <time>2021-11-17T08:38:31.414Z</time>
      </trkpt>
      <trkpt lat="47.88644" lon="-3.98522">
        <ele>-2.74</ele>
        <time>2021-11-17T08:38:35.534Z</time>
      </trkpt>
      <trkpt lat="47.88648" lon="-3.98515">
        <ele>-2.29</ele>
        <time>2021-11-17T08:38:39.634Z</time>
      </trkpt>
      <trkpt lat="47.88653" lon="-3.98509">
        <ele>-2.36</ele>
        <time>2021-11-17T08:38:43.635Z</time>
      </trkpt>
      <trkpt lat="47.88656" lon="-3.98502">
        <ele>-1.94</ele>
        <time>2021-11-17T08:38:47.694Z</time>
      </trkpt>
      <trkpt lat="47.88659" lon="-3.98495">
        <ele>-2.27</ele>
        <time>2021-11-17T08:38:51.761Z</time>
      </trkpt>
      <trkpt lat="47.88662" lon="-3.98488">
        <ele>-1.84</ele>
        <time>2021-11-17T08:38:55.795Z</time>
      </trkpt>
      <trkpt lat="47.88666" lon="-3.98481">
        <ele>-2.68</ele>
        <time>2021-11-17T08:38:59.889Z</time>
      </trkpt>
      <trkpt lat="47.8867" lon="-3.98473">
        <ele>-2.85</ele>
        <time>2021-11-17T08:39:04.376Z</time>
      </trkpt>
      <trkpt lat="47.88673" lon="-3.98466">
        <ele>-2.38</ele>
        <time>2021-11-17T08:39:08.377Z</time>
      </trkpt>
      <trkpt lat="47.88676" lon="-3.98459">
        <ele>-2.35</ele>
        <time>2021-11-17T08:39:12.456Z</time>
      </trkpt>
      <trkpt lat="47.8868" lon="-3.98451">
        <ele>-1.99</ele>
        <time>2021-11-17T08:39:16.477Z</time>
      </trkpt>
      <trkpt lat="47.88684" lon="-3.98445">
        <ele>-2.1</ele>
        <time>2021-11-17T08:39:20.518Z</time>
      </trkpt>
      <trkpt lat="47.88687" lon="-3.98438">
        <ele>-2.59</ele>
        <time>2021-11-17T08:39:24.662Z</time>
      </trkpt>
      <trkpt lat="47.88691" lon="-3.9843">
        <ele>-2.24</ele>
        <time>2021-11-17T08:39:28.763Z</time>
      </trkpt>
      <trkpt lat="47.88695" lon="-3.98423">
        <ele>-2.1</ele>
        <time>2021-11-17T08:39:33.000Z</time>
      </trkpt>
      <trkpt lat="47.88699" lon="-3.98416">
        <ele>-1.13</ele>
        <time>2021-11-17T08:39:37.306Z</time>
      </trkpt>
      <trkpt lat="47.88703" lon="-3.98408">
        <ele>-1.46</ele>
        <time>2021-11-17T08:39:41.806Z</time>
      </trkpt>
      <trkpt lat="47.88707" lon="-3.984">
        <ele>-1.7</ele>
        <time>2021-11-17T08:39:46.322Z</time>
      </trkpt>
      <trkpt lat="47.8871" lon="-3.98393">
        <ele>-1.62</ele>
        <time>2021-11-17T08:39:50.339Z</time>
      </trkpt>
      <trkpt lat="47.88713" lon="-3.98386">
        <ele>-2.22</ele>
        <time>2021-11-17T08:39:54.340Z</time>
      </trkpt>
      <trkpt lat="47.88717" lon="-3.98379">
        <ele>-1.56</ele>
        <time>2021-11-17T08:39:58.360Z</time>
      </trkpt>
      <trkpt lat="47.8872" lon="-3.98372">
        <ele>-2.03</ele>
        <time>2021-11-17T08:40:02.402Z</time>
      </trkpt>
      <trkpt lat="47.88724" lon="-3.98365">
        <ele>-1.97</ele>
        <time>2021-11-17T08:40:06.521Z</time>
      </trkpt>
      <trkpt lat="47.88729" lon="-3.98361">
        <ele>-1.74</ele>
        <time>2021-11-17T08:40:10.701Z</time>
      </trkpt>
      <trkpt lat="47.88736" lon="-3.98356">
        <ele>-0.85</ele>
        <time>2021-11-17T08:40:16.000Z</time>
      </trkpt>
      <trkpt lat="47.88741" lon="-3.98352">
        <ele>-1.28</ele>
        <time>2021-11-17T08:40:20.152Z</time>
      </trkpt>
      <trkpt lat="47.88745" lon="-3.98348">
        <ele>4.54</ele>
        <time>2021-11-17T08:40:24.336Z</time>
      </trkpt>
      <trkpt lat="47.8875" lon="-3.98343">
        <ele>5.96</ele>
        <time>2021-11-17T08:40:28.672Z</time>
      </trkpt>
      <trkpt lat="47.88755" lon="-3.98341">
        <ele>6.03</ele>
        <time>2021-11-17T08:40:32.835Z</time>
      </trkpt>
      <trkpt lat="47.88761" lon="-3.98338">
        <ele>7.25</ele>
        <time>2021-11-17T08:40:37.214Z</time>
      </trkpt>
      <trkpt lat="47.88767" lon="-3.98334">
        <ele>8.15</ele>
        <time>2021-11-17T08:40:41.476Z</time>
      </trkpt>
      <trkpt lat="47.88771" lon="-3.98332">
        <ele>8.43</ele>
        <time>2021-11-17T08:40:45.605Z</time>
      </trkpt>
      <trkpt lat="47.88776" lon="-3.9833">
        <ele>9.01</ele>
        <time>2021-11-17T08:40:49.854Z</time>
      </trkpt>
      <trkpt lat="47.88781" lon="-3.98326">
        <ele>9.38</ele>
        <time>2021-11-17T08:40:54.695Z</time>
      </trkpt>
      <trkpt lat="47.88785" lon="-3.98322">
        <ele>9.83</ele>
        <time>2021-11-17T08:40:59.077Z</time>
      </trkpt>
      <trkpt lat="47.88791" lon="-3.98322">
        <ele>10.16</ele>
        <time>2021-11-17T08:41:04.000Z</time>
      </trkpt>
      <trkpt lat="47.88791" lon="-3.98323">
        <ele>10.43</ele>
        <time>2021-11-17T08:41:09.000Z</time>
      </trkpt>
      <trkpt lat="47.88791" lon="-3.98324">
        <ele>10.18</ele>
        <time>2021-11-17T08:41:15.599Z</time>
      </trkpt>
      <trkpt lat="47.8879" lon="-3.98325">
        <ele>10.31</ele>
        <time>2021-11-17T08:41:20.000Z</time>
      </trkpt>
      <trkpt lat="47.88787" lon="-3.98326">
        <ele>10.47</ele>
        <time>2021-11-17T08:41:25.000Z</time>
      </trkpt>
      <trkpt lat="47.88786" lon="-3.98326">
        <ele>10.35</ele>
        <time>2021-11-17T08:42:06.000Z</time>
      </trkpt>
      <trkpt lat="47.88784" lon="-3.98322">
        <ele>10.38</ele>
        <time>2021-11-17T08:42:11.000Z</time>
      </trkpt>
      <trkpt lat="47.88785" lon="-3.98315">
        <ele>10.32</ele>
        <time>2021-11-17T08:42:15.839Z</time>
      </trkpt>
      <trkpt lat="47.88786" lon="-3.9831">
        <ele>10.26</ele>
        <time>2021-11-17T08:42:20.519Z</time>
      </trkpt>
      <trkpt lat="47.8879" lon="-3.983">
        <ele>10.32</ele>
        <time>2021-11-17T08:42:24.569Z</time>
      </trkpt>
      <trkpt lat="47.88794" lon="-3.9829">
        <ele>10.45</ele>
        <time>2021-11-17T08:42:29.571Z</time>
      </trkpt>
      <trkpt lat="47.88799" lon="-3.98281">
        <ele>9.54</ele>
        <time>2021-11-17T08:42:34.567Z</time>
      </trkpt>
      <trkpt lat="47.88805" lon="-3.98273">
        <ele>9.45</ele>
        <time>2021-11-17T08:42:39.520Z</time>
      </trkpt>
      <trkpt lat="47.88809" lon="-3.98265">
        <ele>9.48</ele>
        <time>2021-11-17T08:42:43.526Z</time>
      </trkpt>
      <trkpt lat="47.88812" lon="-3.98257">
        <ele>9.42</ele>
        <time>2021-11-17T08:42:47.567Z</time>
      </trkpt>
      <trkpt lat="47.88817" lon="-3.98248">
        <ele>9.34</ele>
        <time>2021-11-17T08:42:52.592Z</time>
      </trkpt>
      <trkpt lat="47.88821" lon="-3.98242">
        <ele>9.32</ele>
        <time>2021-11-17T08:42:56.611Z</time>
      </trkpt>
      <trkpt lat="47.88824" lon="-3.98234">
        <ele>9.3</ele>
        <time>2021-11-17T08:43:00.612Z</time>
      </trkpt>
      <trkpt lat="47.88828" lon="-3.98227">
        <ele>9.18</ele>
        <time>2021-11-17T08:43:04.653Z</time>
      </trkpt>
      <trkpt lat="47.88831" lon="-3.9822">
        <ele>9.09</ele>
        <time>2021-11-17T08:43:08.713Z</time>
      </trkpt>
      <trkpt lat="47.88834" lon="-3.98213">
        <ele>9.09</ele>
        <time>2021-11-17T08:43:12.834Z</time>
      </trkpt>
      <trkpt lat="47.88838" lon="-3.98205">
        <ele>9.04</ele>
        <time>2021-11-17T08:43:17.492Z</time>
      </trkpt>
      <trkpt lat="47.88841" lon="-3.98198">
        <ele>6.56</ele>
        <time>2021-11-17T08:43:21.737Z</time>
      </trkpt>
      <trkpt lat="47.88845" lon="-3.9819">
        <ele>6.26</ele>
        <time>2021-11-17T08:43:26.574Z</time>
      </trkpt>
      <trkpt lat="47.8885" lon="-3.98183">
        <ele>6.29</ele>
        <time>2021-11-17T08:43:31.471Z</time>
      </trkpt>
      <trkpt lat="47.88855" lon="-3.98181">
        <ele>6.31</ele>
        <time>2021-11-17T08:43:37.000Z</time>
      </trkpt>
      <trkpt lat="47.88855" lon="-3.98182">
        <ele>6.06</ele>
        <time>2021-11-17T08:43:56.000Z</time>
      </trkpt>
      <trkpt lat="47.88854" lon="-3.98182">
        <ele>6.04</ele>
        <time>2021-11-17T08:47:29.000Z</time>
      </trkpt>
      <trkpt lat="47.88855" lon="-3.98182">
        <ele>6.1</ele>
        <time>2021-11-17T08:49:38.000Z</time>
      </trkpt>
      <trkpt lat="47.88857" lon="-3.98181">
        <ele>6.02</ele>
        <time>2021-11-17T08:50:37.000Z</time>
      </trkpt>
      <trkpt lat="47.88863" lon="-3.9818">
        <ele>5.93</ele>
        <time>2021-11-17T08:50:42.000Z</time>
      </trkpt>
      <trkpt lat="47.88868" lon="-3.98182">
        <ele>6.03</ele>
        <time>2021-11-17T08:50:46.699Z</time>
      </trkpt>
      <trkpt lat="47.88874" lon="-3.98178">
        <ele>5.82</ele>
        <time>2021-11-17T08:50:50.819Z</time>
      </trkpt>
      <trkpt lat="47.8888" lon="-3.98188">
        <ele>5.71</ele>
        <time>2021-11-17T08:50:55.139Z</time>
      </trkpt>
      <trkpt lat="47.88887" lon="-3.98194">
        <ele>5.65</ele>
        <time>2021-11-17T08:50:59.380Z</time>
      </trkpt>
      <trkpt lat="47.88893" lon="-3.982">
        <ele>5.47</ele>
        <time>2021-11-17T08:51:04.000Z</time>
      </trkpt>
      <trkpt lat="47.88899" lon="-3.98205">
        <ele>5.35</ele>
        <time>2021-11-17T08:51:08.684Z</time>
      </trkpt>
      <trkpt lat="47.88905" lon="-3.98212">
        <ele>5.21</ele>
        <time>2021-11-17T08:51:13.742Z</time>
      </trkpt>
      <trkpt lat="47.88912" lon="-3.9822">
        <ele>5.31</ele>
        <time>2021-11-17T08:51:19.000Z</time>
      </trkpt>
      <trkpt lat="47.88916" lon="-3.98228">
        <ele>5.31</ele>
        <time>2021-11-17T08:51:23.393Z</time>
      </trkpt>
      <trkpt lat="47.88921" lon="-3.98237">
        <ele>5.25</ele>
        <time>2021-11-17T08:51:28.272Z</time>
      </trkpt>
      <trkpt lat="47.88925" lon="-3.98246">
        <ele>5.27</ele>
        <time>2021-11-17T08:51:32.732Z</time>
      </trkpt>
      <trkpt lat="47.88929" lon="-3.98254">
        <ele>5.36</ele>
        <time>2021-11-17T08:51:37.213Z</time>
      </trkpt>
      <trkpt lat="47.88933" lon="-3.98262">
        <ele>5.29</ele>
        <time>2021-11-17T08:51:41.694Z</time>
      </trkpt>
      <trkpt lat="47.88936" lon="-3.9827">
        <ele>5.36</ele>
        <time>2021-11-17T08:51:46.133Z</time>
      </trkpt>
      <trkpt lat="47.8894" lon="-3.98278">
        <ele>0.01</ele>
        <time>2021-11-17T08:51:50.557Z</time>
      </trkpt>
      <trkpt lat="47.88945" lon="-3.98287">
        <ele>0.02</ele>
        <time>2021-11-17T08:51:55.538Z</time>
      </trkpt>
      <trkpt lat="47.88949" lon="-3.98297">
        <ele>-0.33</ele>
        <time>2021-11-17T08:52:00.414Z</time>
      </trkpt>
      <trkpt lat="47.88952" lon="-3.98304">
        <ele>-1.3</ele>
        <time>2021-11-17T08:52:04.435Z</time>
      </trkpt>
      <trkpt lat="47.88956" lon="-3.98312">
        <ele>-0.29</ele>
        <time>2021-11-17T08:52:09.000Z</time>
      </trkpt>
      <trkpt lat="47.8896" lon="-3.9832">
        <ele>-0.91</ele>
        <time>2021-11-17T08:52:13.395Z</time>
      </trkpt>
      <trkpt lat="47.88964" lon="-3.98328">
        <ele>2.4</ele>
        <time>2021-11-17T08:52:17.715Z</time>
      </trkpt>
      <trkpt lat="47.88968" lon="-3.98336">
        <ele>0.23</ele>
        <time>2021-11-17T08:52:21.735Z</time>
      </trkpt>
      <trkpt lat="47.88972" lon="-3.98346">
        <ele>0.55</ele>
        <time>2021-11-17T08:52:26.495Z</time>
      </trkpt>
      <trkpt lat="47.88977" lon="-3.98355">
        <ele>0.44</ele>
        <time>2021-11-17T08:52:31.415Z</time>
      </trkpt>
      <trkpt lat="47.88981" lon="-3.98366">
        <ele>0.63</ele>
        <time>2021-11-17T08:52:36.336Z</time>
      </trkpt>
      <trkpt lat="47.88984" lon="-3.98374">
        <ele>0.08</ele>
        <time>2021-11-17T08:52:40.740Z</time>
      </trkpt>
      <trkpt lat="47.88987" lon="-3.98384">
        <ele>-0.57</ele>
        <time>2021-11-17T08:52:45.616Z</time>
      </trkpt>
      <trkpt lat="47.88989" lon="-3.98395">
        <ele>-1.18</ele>
        <time>2021-11-17T08:52:50.540Z</time>
      </trkpt>
      <trkpt lat="47.8899" lon="-3.98404">
        <ele>-1.01</ele>
        <time>2021-11-17T08:52:54.576Z</time>
      </trkpt>
      <trkpt lat="47.88991" lon="-3.98415">
        <ele>-0.71</ele>
        <time>2021-11-17T08:52:59.397Z</time>
      </trkpt>
      <trkpt lat="47.88992" lon="-3.98426">
        <ele>-0.08</ele>
        <time>2021-11-17T08:53:04.361Z</time>
      </trkpt>
      <trkpt lat="47.88993" lon="-3.98437">
        <ele>0.52</ele>
        <time>2021-11-17T08:53:09.336Z</time>
      </trkpt>
      <trkpt lat="47.88993" lon="-3.98447">
        <ele>1.28</ele>
        <time>2021-11-17T08:53:13.699Z</time>
      </trkpt>
      <trkpt lat="47.88994" lon="-3.98457">
        <ele>1.33</ele>
        <time>2021-11-17T08:53:18.141Z</time>
      </trkpt>
      <trkpt lat="47.88996" lon="-3.98466">
        <ele>1.24</ele>
        <time>2021-11-17T08:53:22.617Z</time>
      </trkpt>
      <trkpt lat="47.88997" lon="-3.98477">
        <ele>1.22</ele>
        <time>2021-11-17T08:53:27.536Z</time>
      </trkpt>
      <trkpt lat="47.88999" lon="-3.98487">
        <ele>0.35</ele>
        <time>2021-11-17T08:53:32.537Z</time>
      </trkpt>
      <trkpt lat="47.89" lon="-3.98498">
        <ele>-0.16</ele>
        <time>2021-11-17T08:53:37.477Z</time>
      </trkpt>
      <trkpt lat="47.89002" lon="-3.9851">
        <ele>0.08</ele>
        <time>2021-11-17T08:53:42.459Z</time>
      </trkpt>
      <trkpt lat="47.89003" lon="-3.98521">
        <ele>0.12</ele>
        <time>2021-11-17T08:53:47.459Z</time>
      </trkpt>
      <trkpt lat="47.89005" lon="-3.98532">
        <ele>-0.05</ele>
        <time>2021-11-17T08:53:52.518Z</time>
      </trkpt>
      <trkpt lat="47.89007" lon="-3.98541">
        <ele>-1.28</ele>
        <time>2021-11-17T08:53:57.317Z</time>
      </trkpt>
      <trkpt lat="47.8901" lon="-3.98551">
        <ele>-1.69</ele>
        <time>2021-11-17T08:54:01.378Z</time>
      </trkpt>
      <trkpt lat="47.89014" lon="-3.98562">
        <ele>-1.39</ele>
        <time>2021-11-17T08:54:06.818Z</time>
      </trkpt>
      <trkpt lat="47.89017" lon="-3.98568">
        <ele>-0.45</ele>
        <time>2021-11-17T08:54:11.000Z</time>
      </trkpt>
      <trkpt lat="47.89016" lon="-3.98567">
        <ele>-0.83</ele>
        <time>2021-11-17T08:54:16.000Z</time>
      </trkpt>
      <trkpt lat="47.89016" lon="-3.98569">
        <ele>1.93</ele>
        <time>2021-11-17T08:54:24.000Z</time>
      </trkpt>
      <trkpt lat="47.89018" lon="-3.98575">
        <ele>2.3</ele>
        <time>2021-11-17T08:54:28.418Z</time>
      </trkpt>
      <trkpt lat="47.89021" lon="-3.98583">
        <ele>2.23</ele>
        <time>2021-11-17T08:54:32.519Z</time>
      </trkpt>
      <trkpt lat="47.89023" lon="-3.98591">
        <ele>2.16</ele>
        <time>2021-11-17T08:54:36.565Z</time>
      </trkpt>
      <trkpt lat="47.89026" lon="-3.986">
        <ele>2.16</ele>
        <time>2021-11-17T08:54:41.000Z</time>
      </trkpt>
      <trkpt lat="47.89029" lon="-3.98609">
        <ele>2.27</ele>
        <time>2021-11-17T08:54:45.641Z</time>
      </trkpt>
      <trkpt lat="47.89033" lon="-3.98619">
        <ele>2.32</ele>
        <time>2021-11-17T08:54:50.602Z</time>
      </trkpt>
      <trkpt lat="47.89037" lon="-3.98629">
        <ele>2.27</ele>
        <time>2021-11-17T08:54:55.439Z</time>
      </trkpt>
      <trkpt lat="47.89041" lon="-3.98638">
        <ele>2.23</ele>
        <time>2021-11-17T08:55:00.000Z</time>
      </trkpt>
      <trkpt lat="47.89045" lon="-3.98648">
        <ele>2.23</ele>
        <time>2021-11-17T08:55:04.808Z</time>
      </trkpt>
      <trkpt lat="47.89048" lon="-3.98657">
        <ele>2.29</ele>
        <time>2021-11-17T08:55:09.261Z</time>
      </trkpt>
      <trkpt lat="47.8905" lon="-3.98665">
        <ele>2.3</ele>
        <time>2021-11-17T08:55:13.740Z</time>
      </trkpt>
      <trkpt lat="47.89051" lon="-3.98676">
        <ele>2.28</ele>
        <time>2021-11-17T08:55:18.719Z</time>
      </trkpt>
      <trkpt lat="47.89051" lon="-3.98683">
        <ele>2.33</ele>
        <time>2021-11-17T08:55:23.000Z</time>
      </trkpt>
      <trkpt lat="47.89048" lon="-3.9869">
        <ele>0.06</ele>
        <time>2021-11-17T08:55:27.500Z</time>
      </trkpt>
      <trkpt lat="47.89049" lon="-3.98695">
        <ele>-0.45</ele>
        <time>2021-11-17T08:55:32.000Z</time>
      </trkpt>
      <trkpt lat="47.8905" lon="-3.98698">
        <ele>5.26</ele>
        <time>2021-11-17T08:55:37.000Z</time>
      </trkpt>
      <trkpt lat="47.89049" lon="-3.987">
        <ele>7.1</ele>
        <time>2021-11-17T08:55:43.000Z</time>
      </trkpt>
      <trkpt lat="47.89048" lon="-3.98699">
        <ele>7.09</ele>
        <time>2021-11-17T08:55:49.000Z</time>
      </trkpt>
      <trkpt lat="47.8905" lon="-3.987">
        <ele>6.86</ele>
        <time>2021-11-17T08:56:15.000Z</time>
      </trkpt>
      <trkpt lat="47.89054" lon="-3.98705">
        <ele>6.87</ele>
        <time>2021-11-17T08:56:19.071Z</time>
      </trkpt>
      <trkpt lat="47.8906" lon="-3.98709">
        <ele>6.91</ele>
        <time>2021-11-17T08:56:23.472Z</time>
      </trkpt>
      <trkpt lat="47.89066" lon="-3.98714">
        <ele>6.85</ele>
        <time>2021-11-17T08:56:27.991Z</time>
      </trkpt>
      <trkpt lat="47.89071" lon="-3.98721">
        <ele>6.78</ele>
        <time>2021-11-17T08:56:32.452Z</time>
      </trkpt>
      <trkpt lat="47.89075" lon="-3.9873">
        <ele>2.17</ele>
        <time>2021-11-17T08:56:37.413Z</time>
      </trkpt>
      <trkpt lat="47.8908" lon="-3.98739">
        <ele>2.41</ele>
        <time>2021-11-17T08:56:42.318Z</time>
      </trkpt>
      <trkpt lat="47.89085" lon="-3.98747">
        <ele>3.47</ele>
        <time>2021-11-17T08:56:47.191Z</time>
      </trkpt>
      <trkpt lat="47.8909" lon="-3.98753">
        <ele>3.4</ele>
        <time>2021-11-17T08:56:51.513Z</time>
      </trkpt>
      <trkpt lat="47.89097" lon="-3.9876">
        <ele>3.8</ele>
        <time>2021-11-17T08:56:56.372Z</time>
      </trkpt>
      <trkpt lat="47.89103" lon="-3.98764">
        <ele>4.13</ele>
        <time>2021-11-17T08:57:01.000Z</time>
      </trkpt>
      <trkpt lat="47.89109" lon="-3.98768">
        <ele>3.1</ele>
        <time>2021-11-17T08:57:05.053Z</time>
      </trkpt>
      <trkpt lat="47.89117" lon="-3.98771">
        <ele>2.71</ele>
        <time>2021-11-17T08:57:09.393Z</time>
      </trkpt>
      <trkpt lat="47.89125" lon="-3.98774">
        <ele>1.41</ele>
        <time>2021-11-17T08:57:14.274Z</time>
      </trkpt>
      <trkpt lat="47.89133" lon="-3.98775">
        <ele>2.27</ele>
        <time>2021-11-17T08:57:19.073Z</time>
      </trkpt>
      <trkpt lat="47.8914" lon="-3.98777">
        <ele>1.68</ele>
        <time>2021-11-17T08:57:23.393Z</time>
      </trkpt>
      <trkpt lat="47.89147" lon="-3.98779">
        <ele>2.44</ele>
        <time>2021-11-17T08:57:27.754Z</time>
      </trkpt>
      <trkpt lat="47.89154" lon="-3.98781">
        <ele>1.38</ele>
        <time>2021-11-17T08:57:32.634Z</time>
      </trkpt>
      <trkpt lat="47.89161" lon="-3.98784">
        <ele>2.03</ele>
        <time>2021-11-17T08:57:37.000Z</time>
      </trkpt>
      <trkpt lat="47.89167" lon="-3.98787">
        <ele>2.07</ele>
        <time>2021-11-17T08:57:41.334Z</time>
      </trkpt>
      <trkpt lat="47.89174" lon="-3.98791">
        <ele>1.32</ele>
        <time>2021-11-17T08:57:45.799Z</time>
      </trkpt>
      <trkpt lat="47.8918" lon="-3.98794">
        <ele>2.09</ele>
        <time>2021-11-17T08:57:50.375Z</time>
      </trkpt>
      <trkpt lat="47.89186" lon="-3.98798">
        <ele>1.32</ele>
        <time>2021-11-17T08:57:54.655Z</time>
      </trkpt>
      <trkpt lat="47.89193" lon="-3.98803">
        <ele>1.68</ele>
        <time>2021-11-17T08:57:59.495Z</time>
      </trkpt>
      <trkpt lat="47.892" lon="-3.98808">
        <ele>1.91</ele>
        <time>2021-11-17T08:58:04.355Z</time>
      </trkpt>
      <trkpt lat="47.89206" lon="-3.98813">
        <ele>2.56</ele>
        <time>2021-11-17T08:58:08.854Z</time>
      </trkpt>
      <trkpt lat="47.89212" lon="-3.98816">
        <ele>2.74</ele>
        <time>2021-11-17T08:58:13.000Z</time>
      </trkpt>
      <trkpt lat="47.89218" lon="-3.98821">
        <ele>3.14</ele>
        <time>2021-11-17T08:58:17.714Z</time>
      </trkpt>
      <trkpt lat="47.89225" lon="-3.98827">
        <ele>4.1</ele>
        <time>2021-11-17T08:58:23.000Z</time>
      </trkpt>
      <trkpt lat="47.89231" lon="-3.98833">
        <ele>4.34</ele>
        <time>2021-11-17T08:58:27.755Z</time>
      </trkpt>
      <trkpt lat="47.89237" lon="-3.98838">
        <ele>2.54</ele>
        <time>2021-11-17T08:58:32.218Z</time>
      </trkpt>
      <trkpt lat="47.89243" lon="-3.98842">
        <ele>2.03</ele>
        <time>2021-11-17T08:58:36.354Z</time>
      </trkpt>
      <trkpt lat="47.8925" lon="-3.98848">
        <ele>1.83</ele>
        <time>2021-11-17T08:58:41.195Z</time>
      </trkpt>
      <trkpt lat="47.89255" lon="-3.98852">
        <ele>2.33</ele>
        <time>2021-11-17T08:58:45.595Z</time>
      </trkpt>
      <trkpt lat="47.89261" lon="-3.98856">
        <ele>2.8</ele>
        <time>2021-11-17T08:58:50.000Z</time>
      </trkpt>
      <trkpt lat="47.89268" lon="-3.9886">
        <ele>2.37</ele>
        <time>2021-11-17T08:58:55.000Z</time>
      </trkpt>
      <trkpt lat="47.89274" lon="-3.98863">
        <ele>1.96</ele>
        <time>2021-11-17T08:58:59.376Z</time>
      </trkpt>
      <trkpt lat="47.8928" lon="-3.98866">
        <ele>1.46</ele>
        <time>2021-11-17T08:59:03.654Z</time>
      </trkpt>
      <trkpt lat="47.89288" lon="-3.98868">
        <ele>0.55</ele>
        <time>2021-11-17T08:59:08.515Z</time>
      </trkpt>
      <trkpt lat="47.89296" lon="-3.98874">
        <ele>0.92</ele>
        <time>2021-11-17T08:59:13.376Z</time>
      </trkpt>
      <trkpt lat="47.89303" lon="-3.98878">
        <ele>0.36</ele>
        <time>2021-11-17T08:59:18.255Z</time>
      </trkpt>
      <trkpt lat="47.89311" lon="-3.98883">
        <ele>0.69</ele>
        <time>2021-11-17T08:59:23.255Z</time>
      </trkpt>
      <trkpt lat="47.89317" lon="-3.98887">
        <ele>0.52</ele>
        <time>2021-11-17T08:59:27.455Z</time>
      </trkpt>
      <trkpt lat="47.89324" lon="-3.98891">
        <ele>1.06</ele>
        <time>2021-11-17T08:59:32.335Z</time>
      </trkpt>
      <trkpt lat="47.8933" lon="-3.98896">
        <ele>2.48</ele>
        <time>2021-11-17T08:59:36.854Z</time>
      </trkpt>
      <trkpt lat="47.89335" lon="-3.98902">
        <ele>2.21</ele>
        <time>2021-11-17T08:59:41.000Z</time>
      </trkpt>
      <trkpt lat="47.8934" lon="-3.98909">
        <ele>0.88</ele>
        <time>2021-11-17T08:59:45.654Z</time>
      </trkpt>
      <trkpt lat="47.8934" lon="-3.98917">
        <ele>2.27</ele>
        <time>2021-11-17T08:59:50.000Z</time>
      </trkpt>
      <trkpt lat="47.89336" lon="-3.98928">
        <ele>1.25</ele>
        <time>2021-11-17T08:59:54.415Z</time>
      </trkpt>
      <trkpt lat="47.89333" lon="-3.98935">
        <ele>1.74</ele>
        <time>2021-11-17T08:59:58.455Z</time>
      </trkpt>
      <trkpt lat="47.89328" lon="-3.98941">
        <ele>1.96</ele>
        <time>2021-11-17T09:00:03.000Z</time>
      </trkpt>
      <trkpt lat="47.89322" lon="-3.98947">
        <ele>0.94</ele>
        <time>2021-11-17T09:00:08.000Z</time>
      </trkpt>
      <trkpt lat="47.89316" lon="-3.98954">
        <ele>0.58</ele>
        <time>2021-11-17T09:00:12.434Z</time>
      </trkpt>
      <trkpt lat="47.89314" lon="-3.98964">
        <ele>-0.47</ele>
        <time>2021-11-17T09:00:17.000Z</time>
      </trkpt>
      <trkpt lat="47.89319" lon="-3.98975">
        <ele>-1.26</ele>
        <time>2021-11-17T09:00:21.876Z</time>
      </trkpt>
      <trkpt lat="47.89324" lon="-3.98984">
        <ele>-1.02</ele>
        <time>2021-11-17T09:00:26.000Z</time>
      </trkpt>
      <trkpt lat="47.89329" lon="-3.98994">
        <ele>-0.9</ele>
        <time>2021-11-17T09:00:30.677Z</time>
      </trkpt>
      <trkpt lat="47.89333" lon="-3.99004">
        <ele>-0.62</ele>
        <time>2021-11-17T09:00:35.595Z</time>
      </trkpt>
      <trkpt lat="47.89338" lon="-3.99016">
        <ele>-0.11</ele>
        <time>2021-11-17T09:00:40.816Z</time>
      </trkpt>
      <trkpt lat="47.89341" lon="-3.99024">
        <ele>-0.31</ele>
        <time>2021-11-17T09:00:45.000Z</time>
      </trkpt>
      <trkpt lat="47.89345" lon="-3.99033">
        <ele>0.53</ele>
        <time>2021-11-17T09:00:49.615Z</time>
      </trkpt>
      <trkpt lat="47.89349" lon="-3.99042">
        <ele>0.65</ele>
        <time>2021-11-17T09:00:54.156Z</time>
      </trkpt>
      <trkpt lat="47.89352" lon="-3.9905">
        <ele>1.44</ele>
        <time>2021-11-17T09:00:59.000Z</time>
      </trkpt>
      <trkpt lat="47.89355" lon="-3.99059">
        <ele>0.89</ele>
        <time>2021-11-17T09:01:03.395Z</time>
      </trkpt>
      <trkpt lat="47.89361" lon="-3.99065">
        <ele>1.32</ele>
        <time>2021-11-17T09:01:08.000Z</time>
      </trkpt>
      <trkpt lat="47.89367" lon="-3.9907">
        <ele>1.61</ele>
        <time>2021-11-17T09:01:12.835Z</time>
      </trkpt>
      <trkpt lat="47.89375" lon="-3.99075">
        <ele>2.33</ele>
        <time>2021-11-17T09:01:17.714Z</time>
      </trkpt>
      <trkpt lat="47.89381" lon="-3.99079">
        <ele>4.01</ele>
        <time>2021-11-17T09:01:22.000Z</time>
      </trkpt>
      <trkpt lat="47.89388" lon="-3.99084">
        <ele>4.73</ele>
        <time>2021-11-17T09:01:27.000Z</time>
      </trkpt>
      <trkpt lat="47.89395" lon="-3.99089">
        <ele>4.59</ele>
        <time>2021-11-17T09:01:31.474Z</time>
      </trkpt>
      <trkpt lat="47.89402" lon="-3.99096">
        <ele>4.21</ele>
        <time>2021-11-17T09:01:36.813Z</time>
      </trkpt>
      <trkpt lat="47.89409" lon="-3.99102">
        <ele>4.78</ele>
        <time>2021-11-17T09:01:41.755Z</time>
      </trkpt>
      <trkpt lat="47.89414" lon="-3.99109">
        <ele>5.14</ele>
        <time>2021-11-17T09:01:46.673Z</time>
      </trkpt>
      <trkpt lat="47.8942" lon="-3.99117">
        <ele>5.1</ele>
        <time>2021-11-17T09:01:51.254Z</time>
      </trkpt>
      <trkpt lat="47.89425" lon="-3.99124">
        <ele>5.27</ele>
        <time>2021-11-17T09:01:56.000Z</time>
      </trkpt>
      <trkpt lat="47.89429" lon="-3.99131">
        <ele>5.35</ele>
        <time>2021-11-17T09:02:00.354Z</time>
      </trkpt>
      <trkpt lat="47.89434" lon="-3.99138">
        <ele>4.55</ele>
        <time>2021-11-17T09:02:04.834Z</time>
      </trkpt>
      <trkpt lat="47.8944" lon="-3.99144">
        <ele>3.48</ele>
        <time>2021-11-17T09:02:08.835Z</time>
      </trkpt>
      <trkpt lat="47.89445" lon="-3.99151">
        <ele>2.44</ele>
        <time>2021-11-17T09:02:13.634Z</time>
      </trkpt>
      <trkpt lat="47.8945" lon="-3.99157">
        <ele>3.24</ele>
        <time>2021-11-17T09:02:17.674Z</time>
      </trkpt>
      <trkpt lat="47.89457" lon="-3.99164">
        <ele>4.1</ele>
        <time>2021-11-17T09:02:22.853Z</time>
      </trkpt>
      <trkpt lat="47.89464" lon="-3.99168">
        <ele>3.64</ele>
        <time>2021-11-17T09:02:27.374Z</time>
      </trkpt>
      <trkpt lat="47.89471" lon="-3.99171">
        <ele>3.83</ele>
        <time>2021-11-17T09:02:32.000Z</time>
      </trkpt>
      <trkpt lat="47.89478" lon="-3.99173">
        <ele>4.09</ele>
        <time>2021-11-17T09:02:36.557Z</time>
      </trkpt>
      <trkpt lat="47.89484" lon="-3.99173">
        <ele>3.53</ele>
        <time>2021-11-17T09:02:40.613Z</time>
      </trkpt>
      <trkpt lat="47.89491" lon="-3.99171">
        <ele>2.22</ele>
        <time>2021-11-17T09:02:45.000Z</time>
      </trkpt>
      <trkpt lat="47.89498" lon="-3.9917">
        <ele>2.97</ele>
        <time>2021-11-17T09:02:49.355Z</time>
      </trkpt>
      <trkpt lat="47.89505" lon="-3.99168">
        <ele>2.68</ele>
        <time>2021-11-17T09:02:54.000Z</time>
      </trkpt>
      <trkpt lat="47.89512" lon="-3.99167">
        <ele>2.02</ele>
        <time>2021-11-17T09:02:58.574Z</time>
      </trkpt>
      <trkpt lat="47.8952" lon="-3.99166">
        <ele>2.05</ele>
        <time>2021-11-17T09:03:03.611Z</time>
      </trkpt>
      <trkpt lat="47.89526" lon="-3.99167">
        <ele>2.27</ele>
        <time>2021-11-17T09:03:07.792Z</time>
      </trkpt>
      <trkpt lat="47.89532" lon="-3.99171">
        <ele>1.33</ele>
        <time>2021-11-17T09:03:11.853Z</time>
      </trkpt>
      <trkpt lat="47.89538" lon="-3.99177">
        <ele>2.1</ele>
        <time>2021-11-17T09:03:16.333Z</time>
      </trkpt>
      <trkpt lat="47.89545" lon="-3.99184">
        <ele>2.61</ele>
        <time>2021-11-17T09:03:21.273Z</time>
      </trkpt>
      <trkpt lat="47.8955" lon="-3.9919">
        <ele>2.93</ele>
        <time>2021-11-17T09:03:25.532Z</time>
      </trkpt>
      <trkpt lat="47.89557" lon="-3.99197">
        <ele>3.01</ele>
        <time>2021-11-17T09:03:30.413Z</time>
      </trkpt>
      <trkpt lat="47.89564" lon="-3.992">
        <ele>2.81</ele>
        <time>2021-11-17T09:03:35.316Z</time>
      </trkpt>
      <trkpt lat="47.89571" lon="-3.99203">
        <ele>2.43</ele>
        <time>2021-11-17T09:03:40.000Z</time>
      </trkpt>
      <trkpt lat="47.89578" lon="-3.99207">
        <ele>3.44</ele>
        <time>2021-11-17T09:03:45.000Z</time>
      </trkpt>
      <trkpt lat="47.89584" lon="-3.99211">
        <ele>3.41</ele>
        <time>2021-11-17T09:03:49.555Z</time>
      </trkpt>
      <trkpt lat="47.89592" lon="-3.99215">
        <ele>3.83</ele>
        <time>2021-11-17T09:03:54.451Z</time>
      </trkpt>
      <trkpt lat="47.89598" lon="-3.9922">
        <ele>3.97</ele>
        <time>2021-11-17T09:03:58.752Z</time>
      </trkpt>
      <trkpt lat="47.89605" lon="-3.99223">
        <ele>4.17</ele>
        <time>2021-11-17T09:04:03.271Z</time>
      </trkpt>
      <trkpt lat="47.89611" lon="-3.99226">
        <ele>5.03</ele>
        <time>2021-11-17T09:04:08.000Z</time>
      </trkpt>
      <trkpt lat="47.89617" lon="-3.99226">
        <ele>4.64</ele>
        <time>2021-11-17T09:04:12.895Z</time>
      </trkpt>
      <trkpt lat="47.89623" lon="-3.99225">
        <ele>4.19</ele>
        <time>2021-11-17T09:04:17.732Z</time>
      </trkpt>
      <trkpt lat="47.89624" lon="-3.99225">
        <ele>4.13</ele>
        <time>2021-11-17T09:04:22.000Z</time>
      </trkpt>
      <trkpt lat="47.89622" lon="-3.99225">
        <ele>4.59</ele>
        <time>2021-11-17T09:04:26.555Z</time>
      </trkpt>
      <trkpt lat="47.89623" lon="-3.99228">
        <ele>5.03</ele>
        <time>2021-11-17T09:04:31.000Z</time>
      </trkpt>
      <trkpt lat="47.89623" lon="-3.99229">
        <ele>4.58</ele>
        <time>2021-11-17T09:04:35.821Z</time>
      </trkpt>
      <trkpt lat="47.89626" lon="-3.99233">
        <ele>4.42</ele>
        <time>2021-11-17T09:04:40.500Z</time>
      </trkpt>
      <trkpt lat="47.8963" lon="-3.99239">
        <ele>4.53</ele>
        <time>2021-11-17T09:04:44.741Z</time>
      </trkpt>
      <trkpt lat="47.89634" lon="-3.99245">
        <ele>4.82</ele>
        <time>2021-11-17T09:04:49.725Z</time>
      </trkpt>
      <trkpt lat="47.89638" lon="-3.9925">
        <ele>5</ele>
        <time>2021-11-17T09:04:54.020Z</time>
      </trkpt>
      <trkpt lat="47.89641" lon="-3.99255">
        <ele>5.6</ele>
        <time>2021-11-17T09:04:58.340Z</time>
      </trkpt>
      <trkpt lat="47.89646" lon="-3.99257">
        <ele>5.86</ele>
        <time>2021-11-17T09:05:02.444Z</time>
      </trkpt>
      <trkpt lat="47.89651" lon="-3.99258">
        <ele>6.47</ele>
        <time>2021-11-17T09:05:06.888Z</time>
      </trkpt>
      <trkpt lat="47.89656" lon="-3.99264">
        <ele>7.45</ele>
        <time>2021-11-17T09:05:12.000Z</time>
      </trkpt>
      <trkpt lat="47.89661" lon="-3.99267">
        <ele>8.05</ele>
        <time>2021-11-17T09:05:16.423Z</time>
      </trkpt>
      <trkpt lat="47.89666" lon="-3.99269">
        <ele>9.03</ele>
        <time>2021-11-17T09:05:20.780Z</time>
      </trkpt>
      <trkpt lat="47.8967" lon="-3.99272">
        <ele>9.74</ele>
        <time>2021-11-17T09:05:24.781Z</time>
      </trkpt>
      <trkpt lat="47.89674" lon="-3.99278">
        <ele>10.14</ele>
        <time>2021-11-17T09:05:29.000Z</time>
      </trkpt>
      <trkpt lat="47.89678" lon="-3.99284">
        <ele>10.22</ele>
        <time>2021-11-17T09:05:33.141Z</time>
      </trkpt>
      <trkpt lat="47.89681" lon="-3.99292">
        <ele>10.85</ele>
        <time>2021-11-17T09:05:38.000Z</time>
      </trkpt>
      <trkpt lat="47.89682" lon="-3.99301">
        <ele>11.41</ele>
        <time>2021-11-17T09:05:43.000Z</time>
      </trkpt>
      <trkpt lat="47.89684" lon="-3.99309">
        <ele>11.07</ele>
        <time>2021-11-17T09:05:47.621Z</time>
      </trkpt>
      <trkpt lat="47.89687" lon="-3.99313">
        <ele>11.7</ele>
        <time>2021-11-17T09:05:51.807Z</time>
      </trkpt>
      <trkpt lat="47.89689" lon="-3.99319">
        <ele>11.85</ele>
        <time>2021-11-17T09:05:56.000Z</time>
      </trkpt>
      <trkpt lat="47.89693" lon="-3.99324">
        <ele>11.31</ele>
        <time>2021-11-17T09:06:00.723Z</time>
      </trkpt>
      <trkpt lat="47.89696" lon="-3.99325">
        <ele>11.08</ele>
        <time>2021-11-17T09:06:05.000Z</time>
      </trkpt>
      <trkpt lat="47.89701" lon="-3.99323">
        <ele>10.2</ele>
        <time>2021-11-17T09:06:09.100Z</time>
      </trkpt>
      <trkpt lat="47.89707" lon="-3.99323">
        <ele>9.2</ele>
        <time>2021-11-17T09:06:13.502Z</time>
      </trkpt>
      <trkpt lat="47.89712" lon="-3.99325">
        <ele>9.9</ele>
        <time>2021-11-17T09:06:18.000Z</time>
      </trkpt>
      <trkpt lat="47.89716" lon="-3.99327">
        <ele>10.25</ele>
        <time>2021-11-17T09:06:22.400Z</time>
      </trkpt>
      <trkpt lat="47.89721" lon="-3.99331">
        <ele>9.89</ele>
        <time>2021-11-17T09:06:26.884Z</time>
      </trkpt>
      <trkpt lat="47.89726" lon="-3.99334">
        <ele>9.86</ele>
        <time>2021-11-17T09:06:31.000Z</time>
      </trkpt>
      <trkpt lat="47.89731" lon="-3.99334">
        <ele>9.86</ele>
        <time>2021-11-17T09:06:35.579Z</time>
      </trkpt>
      <trkpt lat="47.89735" lon="-3.99337">
        <ele>9.96</ele>
        <time>2021-11-17T09:06:39.760Z</time>
      </trkpt>
      <trkpt lat="47.89737" lon="-3.99339">
        <ele>11.23</ele>
        <time>2021-11-17T09:06:44.280Z</time>
      </trkpt>
      <trkpt lat="47.8974" lon="-3.9934">
        <ele>11.87</ele>
        <time>2021-11-17T09:06:48.308Z</time>
      </trkpt>
      <trkpt lat="47.89742" lon="-3.99339">
        <ele>12.24</ele>
        <time>2021-11-17T09:06:52.584Z</time>
      </trkpt>
      <trkpt lat="47.89746" lon="-3.99339">
        <ele>12.69</ele>
        <time>2021-11-17T09:06:56.703Z</time>
      </trkpt>
      <trkpt lat="47.89749" lon="-3.99345">
        <ele>11.7</ele>
        <time>2021-11-17T09:07:01.000Z</time>
      </trkpt>
      <trkpt lat="47.89752" lon="-3.99353">
        <ele>10.19</ele>
        <time>2021-11-17T09:07:06.000Z</time>
      </trkpt>
      <trkpt lat="47.89753" lon="-3.99362">
        <ele>10.08</ele>
        <time>2021-11-17T09:07:11.000Z</time>
      </trkpt>
      <trkpt lat="47.89754" lon="-3.9937">
        <ele>9.39</ele>
        <time>2021-11-17T09:07:15.720Z</time>
      </trkpt>
      <trkpt lat="47.89756" lon="-3.99376">
        <ele>8.55</ele>
        <time>2021-11-17T09:07:20.359Z</time>
      </trkpt>
      <trkpt lat="47.89757" lon="-3.99382">
        <ele>8.26</ele>
        <time>2021-11-17T09:07:24.378Z</time>
      </trkpt>
      <trkpt lat="47.8976" lon="-3.99387">
        <ele>7.62</ele>
        <time>2021-11-17T09:07:28.440Z</time>
      </trkpt>
      <trkpt lat="47.89764" lon="-3.9939">
        <ele>7.81</ele>
        <time>2021-11-17T09:07:33.000Z</time>
      </trkpt>
      <trkpt lat="47.8977" lon="-3.99392">
        <ele>7.28</ele>
        <time>2021-11-17T09:07:38.000Z</time>
      </trkpt>
      <trkpt lat="47.89775" lon="-3.99392">
        <ele>6.31</ele>
        <time>2021-11-17T09:07:42.479Z</time>
      </trkpt>
      <trkpt lat="47.8978" lon="-3.99391">
        <ele>6.35</ele>
        <time>2021-11-17T09:07:47.081Z</time>
      </trkpt>
      <trkpt lat="47.89785" lon="-3.9939">
        <ele>6.58</ele>
        <time>2021-11-17T09:07:51.580Z</time>
      </trkpt>
      <trkpt lat="47.89789" lon="-3.99386">
        <ele>7.14</ele>
        <time>2021-11-17T09:07:56.138Z</time>
      </trkpt>
      <trkpt lat="47.8979" lon="-3.9938">
        <ele>7.28</ele>
        <time>2021-11-17T09:08:00.199Z</time>
      </trkpt>
      <trkpt lat="47.89792" lon="-3.99375">
        <ele>6.84</ele>
        <time>2021-11-17T09:08:04.881Z</time>
      </trkpt>
      <trkpt lat="47.89794" lon="-3.99375">
        <ele>7.68</ele>
        <time>2021-11-17T09:08:09.000Z</time>
      </trkpt>
      <trkpt lat="47.89795" lon="-3.99374">
        <ele>8.19</ele>
        <time>2021-11-17T09:08:14.000Z</time>
      </trkpt>
      <trkpt lat="47.89796" lon="-3.99378">
        <ele>7.82</ele>
        <time>2021-11-17T09:08:18.577Z</time>
      </trkpt>
      <trkpt lat="47.89796" lon="-3.99382">
        <ele>7.76</ele>
        <time>2021-11-17T09:08:23.000Z</time>
      </trkpt>
      <trkpt lat="47.89792" lon="-3.99386">
        <ele>9.08</ele>
        <time>2021-11-17T09:08:27.870Z</time>
      </trkpt>
      <trkpt lat="47.89787" lon="-3.99389">
        <ele>9.01</ele>
        <time>2021-11-17T09:08:32.381Z</time>
      </trkpt>
      <trkpt lat="47.89783" lon="-3.99396">
        <ele>8.59</ele>
        <time>2021-11-17T09:08:36.417Z</time>
      </trkpt>
      <trkpt lat="47.8978" lon="-3.99401">
        <ele>8.83</ele>
        <time>2021-11-17T09:08:40.638Z</time>
      </trkpt>
      <trkpt lat="47.89776" lon="-3.99405">
        <ele>8.57</ele>
        <time>2021-11-17T09:08:44.657Z</time>
      </trkpt>
      <trkpt lat="47.89771" lon="-3.99405">
        <ele>7.3</ele>
        <time>2021-11-17T09:08:49.000Z</time>
      </trkpt>
      <trkpt lat="47.89765" lon="-3.99402">
        <ele>6.37</ele>
        <time>2021-11-17T09:08:54.000Z</time>
      </trkpt>
      <trkpt lat="47.8976" lon="-3.99399">
        <ele>6.4</ele>
        <time>2021-11-17T09:08:59.000Z</time>
      </trkpt>
      <trkpt lat="47.89755" lon="-3.99398">
        <ele>7.62</ele>
        <time>2021-11-17T09:09:03.157Z</time>
      </trkpt>
      <trkpt lat="47.89751" lon="-3.99397">
        <ele>8.16</ele>
        <time>2021-11-17T09:09:07.517Z</time>
      </trkpt>
      <trkpt lat="47.89746" lon="-3.99399">
        <ele>8.16</ele>
        <time>2021-11-17T09:09:11.655Z</time>
      </trkpt>
      <trkpt lat="47.89742" lon="-3.99404">
        <ele>8</ele>
        <time>2021-11-17T09:09:16.000Z</time>
      </trkpt>
      <trkpt lat="47.89737" lon="-3.99408">
        <ele>8.87</ele>
        <time>2021-11-17T09:09:20.680Z</time>
      </trkpt>
      <trkpt lat="47.89733" lon="-3.99414">
        <ele>9.65</ele>
        <time>2021-11-17T09:09:25.000Z</time>
      </trkpt>
      <trkpt lat="47.89732" lon="-3.99424">
        <ele>10.43</ele>
        <time>2021-11-17T09:09:29.535Z</time>
      </trkpt>
      <trkpt lat="47.89732" lon="-3.99432">
        <ele>9.81</ele>
        <time>2021-11-17T09:09:33.561Z</time>
      </trkpt>
      <trkpt lat="47.89731" lon="-3.99437">
        <ele>9.21</ele>
        <time>2021-11-17T09:09:38.000Z</time>
      </trkpt>
      <trkpt lat="47.89732" lon="-3.99436">
        <ele>9.05</ele>
        <time>2021-11-17T09:09:42.436Z</time>
      </trkpt>
      <trkpt lat="47.89731" lon="-3.99441">
        <ele>8.85</ele>
        <time>2021-11-17T09:09:46.880Z</time>
      </trkpt>
      <trkpt lat="47.8973" lon="-3.99453">
        <ele>10.04</ele>
        <time>2021-11-17T09:09:51.795Z</time>
      </trkpt>
      <trkpt lat="47.89729" lon="-3.99463">
        <ele>9.73</ele>
        <time>2021-11-17T09:09:56.200Z</time>
      </trkpt>
      <trkpt lat="47.89729" lon="-3.99469">
        <ele>10.72</ele>
        <time>2021-11-17T09:10:00.641Z</time>
      </trkpt>
      <trkpt lat="47.89733" lon="-3.99473">
        <ele>8.63</ele>
        <time>2021-11-17T09:10:05.055Z</time>
      </trkpt>
      <trkpt lat="47.89737" lon="-3.99472">
        <ele>7.58</ele>
        <time>2021-11-17T09:10:09.216Z</time>
      </trkpt>
      <trkpt lat="47.89742" lon="-3.99472">
        <ele>8.4</ele>
        <time>2021-11-17T09:10:13.315Z</time>
      </trkpt>
      <trkpt lat="47.89746" lon="-3.99474">
        <ele>7.67</ele>
        <time>2021-11-17T09:10:17.416Z</time>
      </trkpt>
      <trkpt lat="47.89751" lon="-3.99473">
        <ele>5.62</ele>
        <time>2021-11-17T09:10:21.676Z</time>
      </trkpt>
      <trkpt lat="47.89755" lon="-3.99477">
        <ele>5.44</ele>
        <time>2021-11-17T09:10:26.000Z</time>
      </trkpt>
      <trkpt lat="47.89761" lon="-3.99479">
        <ele>6.34</ele>
        <time>2021-11-17T09:10:30.594Z</time>
      </trkpt>
      <trkpt lat="47.89766" lon="-3.99476">
        <ele>5.2</ele>
        <time>2021-11-17T09:10:34.614Z</time>
      </trkpt>
      <trkpt lat="47.8977" lon="-3.99469">
        <ele>3.63</ele>
        <time>2021-11-17T09:10:38.934Z</time>
      </trkpt>
      <trkpt lat="47.89773" lon="-3.99462">
        <ele>3.13</ele>
        <time>2021-11-17T09:10:43.560Z</time>
      </trkpt>
      <trkpt lat="47.89777" lon="-3.99454">
        <ele>3.72</ele>
        <time>2021-11-17T09:10:48.000Z</time>
      </trkpt>
      <trkpt lat="47.89781" lon="-3.99446">
        <ele>3.61</ele>
        <time>2021-11-17T09:10:52.335Z</time>
      </trkpt>
      <trkpt lat="47.89784" lon="-3.99438">
        <ele>1.53</ele>
        <time>2021-11-17T09:10:56.415Z</time>
      </trkpt>
      <trkpt lat="47.89787" lon="-3.9943">
        <ele>2.53</ele>
        <time>2021-11-17T09:11:00.535Z</time>
      </trkpt>
      <trkpt lat="47.8979" lon="-3.99423">
        <ele>5.82</ele>
        <time>2021-11-17T09:11:04.635Z</time>
      </trkpt>
      <trkpt lat="47.89794" lon="-3.99415">
        <ele>7.41</ele>
        <time>2021-11-17T09:11:08.714Z</time>
      </trkpt>
      <trkpt lat="47.89798" lon="-3.99407">
        <ele>6.87</ele>
        <time>2021-11-17T09:11:12.774Z</time>
      </trkpt>
      <trkpt lat="47.89799" lon="-3.994">
        <ele>6.36</ele>
        <time>2021-11-17T09:11:17.435Z</time>
      </trkpt>
      <trkpt lat="47.89803" lon="-3.99391">
        <ele>6.4</ele>
        <time>2021-11-17T09:11:21.533Z</time>
      </trkpt>
      <trkpt lat="47.89806" lon="-3.99383">
        <ele>6.81</ele>
        <time>2021-11-17T09:11:25.613Z</time>
      </trkpt>
      <trkpt lat="47.89808" lon="-3.99374">
        <ele>6.24</ele>
        <time>2021-11-17T09:11:30.395Z</time>
      </trkpt>
      <trkpt lat="47.8981" lon="-3.99366">
        <ele>4.66</ele>
        <time>2021-11-17T09:11:35.000Z</time>
      </trkpt>
      <trkpt lat="47.89814" lon="-3.99361">
        <ele>4.38</ele>
        <time>2021-11-17T09:11:39.135Z</time>
      </trkpt>
      <trkpt lat="47.89815" lon="-3.99356">
        <ele>4.36</ele>
        <time>2021-11-17T09:11:43.693Z</time>
      </trkpt>
      <trkpt lat="47.89811" lon="-3.99359">
        <ele>3.25</ele>
        <time>2021-11-17T09:11:48.000Z</time>
      </trkpt>
      <trkpt lat="47.89812" lon="-3.9936">
        <ele>3.79</ele>
        <time>2021-11-17T09:12:09.000Z</time>
      </trkpt>
      <trkpt lat="47.89812" lon="-3.99361">
        <ele>2.63</ele>
        <time>2021-11-17T09:13:09.000Z</time>
      </trkpt>
      <trkpt lat="47.89814" lon="-3.99362">
        <ele>3.07</ele>
        <time>2021-11-17T09:13:14.000Z</time>
      </trkpt>
      <trkpt lat="47.89814" lon="-3.99363">
        <ele>2.92</ele>
        <time>2021-11-17T09:13:20.000Z</time>
      </trkpt>
      <trkpt lat="47.89815" lon="-3.99363">
        <ele>3.29</ele>
        <time>2021-11-17T09:13:30.158Z</time>
      </trkpt>
      <trkpt lat="47.89818" lon="-3.99364">
        <ele>2.73</ele>
        <time>2021-11-17T09:13:34.738Z</time>
      </trkpt>
      <trkpt lat="47.89824" lon="-3.99365">
        <ele>1.96</ele>
        <time>2021-11-17T09:13:39.258Z</time>
      </trkpt>
      <trkpt lat="47.89829" lon="-3.99369">
        <ele>1.09</ele>
        <time>2021-11-17T09:13:43.278Z</time>
      </trkpt>
      <trkpt lat="47.89833" lon="-3.99373">
        <ele>1.05</ele>
        <time>2021-11-17T09:13:47.316Z</time>
      </trkpt>
      <trkpt lat="47.89838" lon="-3.99379">
        <ele>2.59</ele>
        <time>2021-11-17T09:13:51.697Z</time>
      </trkpt>
      <trkpt lat="47.89842" lon="-3.99384">
        <ele>3.35</ele>
        <time>2021-11-17T09:13:56.083Z</time>
      </trkpt>
      <trkpt lat="47.89848" lon="-3.99391">
        <ele>3.67</ele>
        <time>2021-11-17T09:14:00.957Z</time>
      </trkpt>
      <trkpt lat="47.89854" lon="-3.99395">
        <ele>3.52</ele>
        <time>2021-11-17T09:14:05.465Z</time>
      </trkpt>
      <trkpt lat="47.8986" lon="-3.99402">
        <ele>3.79</ele>
        <time>2021-11-17T09:14:10.460Z</time>
      </trkpt>
      <trkpt lat="47.89864" lon="-3.99408">
        <ele>3.64</ele>
        <time>2021-11-17T09:14:14.477Z</time>
      </trkpt>
      <trkpt lat="47.89869" lon="-3.99415">
        <ele>4.77</ele>
        <time>2021-11-17T09:14:19.000Z</time>
      </trkpt>
      <trkpt lat="47.89874" lon="-3.99421">
        <ele>3.99</ele>
        <time>2021-11-17T09:14:23.539Z</time>
      </trkpt>
      <trkpt lat="47.8988" lon="-3.99426">
        <ele>2.92</ele>
        <time>2021-11-17T09:14:27.619Z</time>
      </trkpt>
      <trkpt lat="47.89885" lon="-3.99433">
        <ele>1.86</ele>
        <time>2021-11-17T09:14:32.740Z</time>
      </trkpt>
      <trkpt lat="47.89886" lon="-3.99437">
        <ele>3.7</ele>
        <time>2021-11-17T09:14:37.000Z</time>
      </trkpt>
      <trkpt lat="47.89885" lon="-3.99438">
        <ele>3.88</ele>
        <time>2021-11-17T09:14:42.000Z</time>
      </trkpt>
      <trkpt lat="47.89885" lon="-3.99439">
        <ele>3.75</ele>
        <time>2021-11-17T09:14:52.000Z</time>
      </trkpt>
      <trkpt lat="47.89885" lon="-3.99441">
        <ele>4.97</ele>
        <time>2021-11-17T09:15:35.414Z</time>
      </trkpt>
      <trkpt lat="47.89881" lon="-3.99445">
        <ele>4.73</ele>
        <time>2021-11-17T09:15:39.534Z</time>
      </trkpt>
      <trkpt lat="47.89878" lon="-3.99451">
        <ele>5.4</ele>
        <time>2021-11-17T09:15:43.674Z</time>
      </trkpt>
      <trkpt lat="47.89875" lon="-3.99459">
        <ele>5.06</ele>
        <time>2021-11-17T09:15:47.735Z</time>
      </trkpt>
      <trkpt lat="47.8987" lon="-3.99466">
        <ele>4.84</ele>
        <time>2021-11-17T09:15:52.274Z</time>
      </trkpt>
      <trkpt lat="47.89864" lon="-3.99473">
        <ele>2.5</ele>
        <time>2021-11-17T09:15:57.133Z</time>
      </trkpt>
      <trkpt lat="47.89859" lon="-3.99479">
        <ele>1.63</ele>
        <time>2021-11-17T09:16:01.575Z</time>
      </trkpt>
      <trkpt lat="47.89854" lon="-3.99485">
        <ele>1.2</ele>
        <time>2021-11-17T09:16:06.000Z</time>
      </trkpt>
      <trkpt lat="47.89849" lon="-3.99492">
        <ele>1.25</ele>
        <time>2021-11-17T09:16:10.359Z</time>
      </trkpt>
      <trkpt lat="47.89845" lon="-3.99499">
        <ele>0.83</ele>
        <time>2021-11-17T09:16:14.776Z</time>
      </trkpt>
      <trkpt lat="47.89842" lon="-3.99508">
        <ele>0.82</ele>
        <time>2021-11-17T09:16:19.255Z</time>
      </trkpt>
      <trkpt lat="47.8984" lon="-3.99516">
        <ele>0.56</ele>
        <time>2021-11-17T09:16:23.613Z</time>
      </trkpt>
      <trkpt lat="47.89838" lon="-3.99527">
        <ele>1</ele>
        <time>2021-11-17T09:16:28.515Z</time>
      </trkpt>
      <trkpt lat="47.89837" lon="-3.99537">
        <ele>0.07</ele>
        <time>2021-11-17T09:16:32.894Z</time>
      </trkpt>
      <trkpt lat="47.89835" lon="-3.99548">
        <ele>0.03</ele>
        <time>2021-11-17T09:16:37.816Z</time>
      </trkpt>
      <trkpt lat="47.89834" lon="-3.99558">
        <ele>-0.24</ele>
        <time>2021-11-17T09:16:42.255Z</time>
      </trkpt>
      <trkpt lat="47.89832" lon="-3.99569">
        <ele>1.43</ele>
        <time>2021-11-17T09:16:47.000Z</time>
      </trkpt>
      <trkpt lat="47.89833" lon="-3.99579">
        <ele>1.68</ele>
        <time>2021-11-17T09:16:51.436Z</time>
      </trkpt>
      <trkpt lat="47.89831" lon="-3.99589">
        <ele>1.53</ele>
        <time>2021-11-17T09:16:55.858Z</time>
      </trkpt>
      <trkpt lat="47.89828" lon="-3.99601">
        <ele>3.93</ele>
        <time>2021-11-17T09:17:00.777Z</time>
      </trkpt>
      <trkpt lat="47.89827" lon="-3.99612">
        <ele>4.66</ele>
        <time>2021-11-17T09:17:05.157Z</time>
      </trkpt>
      <trkpt lat="47.89827" lon="-3.99624">
        <ele>2.78</ele>
        <time>2021-11-17T09:17:10.100Z</time>
      </trkpt>
      <trkpt lat="47.89827" lon="-3.99633">
        <ele>3.5</ele>
        <time>2021-11-17T09:17:14.598Z</time>
      </trkpt>
      <trkpt lat="47.89829" lon="-3.99644">
        <ele>3.1</ele>
        <time>2021-11-17T09:17:19.565Z</time>
      </trkpt>
      <trkpt lat="47.89831" lon="-3.99654">
        <ele>3.96</ele>
        <time>2021-11-17T09:17:24.540Z</time>
      </trkpt>
      <trkpt lat="47.89832" lon="-3.99665">
        <ele>3.81</ele>
        <time>2021-11-17T09:17:29.540Z</time>
      </trkpt>
      <trkpt lat="47.89833" lon="-3.99673">
        <ele>5</ele>
        <time>2021-11-17T09:17:33.580Z</time>
      </trkpt>
      <trkpt lat="47.89833" lon="-3.99685">
        <ele>4.71</ele>
        <time>2021-11-17T09:17:38.500Z</time>
      </trkpt>
      <trkpt lat="47.89833" lon="-3.99695">
        <ele>5.59</ele>
        <time>2021-11-17T09:17:42.518Z</time>
      </trkpt>
      <trkpt lat="47.89834" lon="-3.99708">
        <ele>5.59</ele>
        <time>2021-11-17T09:17:47.420Z</time>
      </trkpt>
      <trkpt lat="47.89835" lon="-3.9972">
        <ele>6.1</ele>
        <time>2021-11-17T09:17:52.380Z</time>
      </trkpt>
      <trkpt lat="47.89836" lon="-3.99728">
        <ele>5.7</ele>
        <time>2021-11-17T09:17:56.520Z</time>
      </trkpt>
      <trkpt lat="47.89837" lon="-3.99737">
        <ele>6.08</ele>
        <time>2021-11-17T09:18:00.681Z</time>
      </trkpt>
      <trkpt lat="47.89837" lon="-3.99745">
        <ele>6.38</ele>
        <time>2021-11-17T09:18:05.000Z</time>
      </trkpt>
      <trkpt lat="47.89838" lon="-3.99753">
        <ele>5.12</ele>
        <time>2021-11-17T09:18:09.142Z</time>
      </trkpt>
      <trkpt lat="47.89838" lon="-3.9976">
        <ele>4.71</ele>
        <time>2021-11-17T09:18:13.252Z</time>
      </trkpt>
      <trkpt lat="47.89837" lon="-3.99767">
        <ele>3.61</ele>
        <time>2021-11-17T09:18:17.272Z</time>
      </trkpt>
      <trkpt lat="47.89837" lon="-3.99776">
        <ele>4.36</ele>
        <time>2021-11-17T09:18:21.372Z</time>
      </trkpt>
      <trkpt lat="47.89836" lon="-3.99784">
        <ele>4.04</ele>
        <time>2021-11-17T09:18:25.433Z</time>
      </trkpt>
      <trkpt lat="47.89836" lon="-3.99793">
        <ele>2.95</ele>
        <time>2021-11-17T09:18:29.512Z</time>
      </trkpt>
      <trkpt lat="47.89838" lon="-3.998">
        <ele>1.94</ele>
        <time>2021-11-17T09:18:33.564Z</time>
      </trkpt>
      <trkpt lat="47.8984" lon="-3.99807">
        <ele>1.95</ele>
        <time>2021-11-17T09:18:37.593Z</time>
      </trkpt>
      <trkpt lat="47.89843" lon="-3.99814">
        <ele>2.08</ele>
        <time>2021-11-17T09:18:41.794Z</time>
      </trkpt>
      <trkpt lat="47.89844" lon="-3.99822">
        <ele>2.14</ele>
        <time>2021-11-17T09:18:45.900Z</time>
      </trkpt>
      <trkpt lat="47.89846" lon="-3.99831">
        <ele>1.11</ele>
        <time>2021-11-17T09:18:50.473Z</time>
      </trkpt>
      <trkpt lat="47.89848" lon="-3.99841">
        <ele>1.86</ele>
        <time>2021-11-17T09:18:55.155Z</time>
      </trkpt>
      <trkpt lat="47.89849" lon="-3.99849">
        <ele>2.01</ele>
        <time>2021-11-17T09:18:59.320Z</time>
      </trkpt>
      <trkpt lat="47.8985" lon="-3.99857">
        <ele>2.07</ele>
        <time>2021-11-17T09:19:03.394Z</time>
      </trkpt>
      <trkpt lat="47.8985" lon="-3.99866">
        <ele>2.06</ele>
        <time>2021-11-17T09:19:07.475Z</time>
      </trkpt>
      <trkpt lat="47.89852" lon="-3.99875">
        <ele>0.79</ele>
        <time>2021-11-17T09:19:12.000Z</time>
      </trkpt>
      <trkpt lat="47.89855" lon="-3.99884">
        <ele>0.04</ele>
        <time>2021-11-17T09:19:16.713Z</time>
      </trkpt>
      <trkpt lat="47.89856" lon="-3.99892">
        <ele>-0.26</ele>
        <time>2021-11-17T09:19:20.835Z</time>
      </trkpt>
      <trkpt lat="47.89857" lon="-3.99901">
        <ele>-0.56</ele>
        <time>2021-11-17T09:19:25.000Z</time>
      </trkpt>
      <trkpt lat="47.89859" lon="-3.9991">
        <ele>-1.42</ele>
        <time>2021-11-17T09:19:29.575Z</time>
      </trkpt>
      <trkpt lat="47.89861" lon="-3.99918">
        <ele>-0.71</ele>
        <time>2021-11-17T09:19:33.674Z</time>
      </trkpt>
      <trkpt lat="47.89863" lon="-3.99927">
        <ele>0.1</ele>
        <time>2021-11-17T09:19:37.914Z</time>
      </trkpt>
      <trkpt lat="47.89864" lon="-3.99936">
        <ele>1.2</ele>
        <time>2021-11-17T09:19:42.476Z</time>
      </trkpt>
      <trkpt lat="47.89868" lon="-3.99943">
        <ele>0.1</ele>
        <time>2021-11-17T09:19:46.638Z</time>
      </trkpt>
      <trkpt lat="47.89873" lon="-3.9995">
        <ele>-0.75</ele>
        <time>2021-11-17T09:19:51.596Z</time>
      </trkpt>
      <trkpt lat="47.89878" lon="-3.99955">
        <ele>-0.64</ele>
        <time>2021-11-17T09:19:55.618Z</time>
      </trkpt>
      <trkpt lat="47.89883" lon="-3.9996">
        <ele>-1.49</ele>
        <time>2021-11-17T09:19:59.680Z</time>
      </trkpt>
      <trkpt lat="47.89888" lon="-3.99967">
        <ele>-3.04</ele>
        <time>2021-11-17T09:20:04.677Z</time>
      </trkpt>
      <trkpt lat="47.89893" lon="-3.99973">
        <ele>-3.52</ele>
        <time>2021-11-17T09:20:08.698Z</time>
      </trkpt>
      <trkpt lat="47.89897" lon="-3.99981">
        <ele>-2.37</ele>
        <time>2021-11-17T09:20:12.737Z</time>
      </trkpt>
      <trkpt lat="47.89898" lon="-3.99992">
        <ele>-1.3</ele>
        <time>2021-11-17T09:20:17.637Z</time>
      </trkpt>
      <trkpt lat="47.899" lon="-4.00004">
        <ele>2.29</ele>
        <time>2021-11-17T09:20:22.598Z</time>
      </trkpt>
      <trkpt lat="47.899" lon="-4.00013">
        <ele>2.24</ele>
        <time>2021-11-17T09:20:26.599Z</time>
      </trkpt>
      <trkpt lat="47.899" lon="-4.00025">
        <ele>1.3</ele>
        <time>2021-11-17T09:20:31.518Z</time>
      </trkpt>
      <trkpt lat="47.89902" lon="-4.00036">
        <ele>1.6</ele>
        <time>2021-11-17T09:20:36.479Z</time>
      </trkpt>
      <trkpt lat="47.89903" lon="-4.00045">
        <ele>-0.16</ele>
        <time>2021-11-17T09:20:40.500Z</time>
      </trkpt>
      <trkpt lat="47.89904" lon="-4.00057">
        <ele>0.65</ele>
        <time>2021-11-17T09:20:45.458Z</time>
      </trkpt>
      <trkpt lat="47.89904" lon="-4.00065">
        <ele>1.3</ele>
        <time>2021-11-17T09:20:49.500Z</time>
      </trkpt>
      <trkpt lat="47.89905" lon="-4.00074">
        <ele>1.97</ele>
        <time>2021-11-17T09:20:53.571Z</time>
      </trkpt>
      <trkpt lat="47.89905" lon="-4.00081">
        <ele>1.88</ele>
        <time>2021-11-17T09:20:57.820Z</time>
      </trkpt>
      <trkpt lat="47.89906" lon="-4.00089">
        <ele>0.13</ele>
        <time>2021-11-17T09:21:02.900Z</time>
      </trkpt>
      <trkpt lat="47.89907" lon="-4.00094">
        <ele>0.91</ele>
        <time>2021-11-17T09:21:07.000Z</time>
      </trkpt>
      <trkpt lat="47.89907" lon="-4.00095">
        <ele>1.47</ele>
        <time>2021-11-17T09:21:22.000Z</time>
      </trkpt>
      <trkpt lat="47.89908" lon="-4.00094">
        <ele>1.12</ele>
        <time>2021-11-17T09:21:27.000Z</time>
      </trkpt>
      <trkpt lat="47.89909" lon="-4.00094">
        <ele>1.44</ele>
        <time>2021-11-17T09:21:46.000Z</time>
      </trkpt>
      <trkpt lat="47.8991" lon="-4.00095">
        <ele>1.61</ele>
        <time>2021-11-17T09:22:37.000Z</time>
      </trkpt>
      <trkpt lat="47.89913" lon="-4.00098">
        <ele>0.61</ele>
        <time>2021-11-17T09:22:42.000Z</time>
      </trkpt>
      <trkpt lat="47.89915" lon="-4.001">
        <ele>0.77</ele>
        <time>2021-11-17T09:22:46.320Z</time>
      </trkpt>
      <trkpt lat="47.89921" lon="-4.00101">
        <ele>0.14</ele>
        <time>2021-11-17T09:22:50.380Z</time>
      </trkpt>
      <trkpt lat="47.89928" lon="-4.00102">
        <ele>0.45</ele>
        <time>2021-11-17T09:22:54.893Z</time>
      </trkpt>
      <trkpt lat="47.89934" lon="-4.00102">
        <ele>0.54</ele>
        <time>2021-11-17T09:22:58.899Z</time>
      </trkpt>
      <trkpt lat="47.89941" lon="-4.00103">
        <ele>-0.26</ele>
        <time>2021-11-17T09:23:03.439Z</time>
      </trkpt>
      <trkpt lat="47.89949" lon="-4.00104">
        <ele>0.42</ele>
        <time>2021-11-17T09:23:08.380Z</time>
      </trkpt>
      <trkpt lat="47.89955" lon="-4.00105">
        <ele>1</ele>
        <time>2021-11-17T09:23:12.402Z</time>
      </trkpt>
      <trkpt lat="47.89962" lon="-4.00103">
        <ele>1.31</ele>
        <time>2021-11-17T09:23:16.861Z</time>
      </trkpt>
      <trkpt lat="47.89968" lon="-4.00102">
        <ele>1.1</ele>
        <time>2021-11-17T09:23:20.891Z</time>
      </trkpt>
      <trkpt lat="47.89974" lon="-4.00101">
        <ele>0.95</ele>
        <time>2021-11-17T09:23:24.893Z</time>
      </trkpt>
      <trkpt lat="47.89981" lon="-4.00097">
        <ele>2.18</ele>
        <time>2021-11-17T09:23:29.441Z</time>
      </trkpt>
      <trkpt lat="47.89988" lon="-4.00094">
        <ele>1.46</ele>
        <time>2021-11-17T09:23:33.889Z</time>
      </trkpt>
      <trkpt lat="47.89995" lon="-4.00089">
        <ele>0.91</ele>
        <time>2021-11-17T09:23:38.321Z</time>
      </trkpt>
      <trkpt lat="47.90001" lon="-4.00083">
        <ele>-0.48</ele>
        <time>2021-11-17T09:23:42.731Z</time>
      </trkpt>
      <trkpt lat="47.90007" lon="-4.00077">
        <ele>0.09</ele>
        <time>2021-11-17T09:23:47.211Z</time>
      </trkpt>
      <trkpt lat="47.90014" lon="-4.00072">
        <ele>-0.71</ele>
        <time>2021-11-17T09:23:52.192Z</time>
      </trkpt>
      <trkpt lat="47.9002" lon="-4.00069">
        <ele>-1.62</ele>
        <time>2021-11-17T09:23:56.235Z</time>
      </trkpt>
      <trkpt lat="47.90025" lon="-4.00067">
        <ele>-1.62</ele>
        <time>2021-11-17T09:24:00.236Z</time>
      </trkpt>
      <trkpt lat="47.90031" lon="-4.00064">
        <ele>-1.08</ele>
        <time>2021-11-17T09:24:04.334Z</time>
      </trkpt>
      <trkpt lat="47.90036" lon="-4.00061">
        <ele>-0.64</ele>
        <time>2021-11-17T09:24:08.411Z</time>
      </trkpt>
      <trkpt lat="47.90041" lon="-4.00058">
        <ele>-0.14</ele>
        <time>2021-11-17T09:24:12.471Z</time>
      </trkpt>
      <trkpt lat="47.90046" lon="-4.00052">
        <ele>0.22</ele>
        <time>2021-11-17T09:24:18.000Z</time>
      </trkpt>
      <trkpt lat="47.9005" lon="-4.00051">
        <ele>-0.51</ele>
        <time>2021-11-17T09:24:23.000Z</time>
      </trkpt>
      <trkpt lat="47.90049" lon="-4.00052">
        <ele>0.16</ele>
        <time>2021-11-17T09:24:30.000Z</time>
      </trkpt>
      <trkpt lat="47.90048" lon="-4.00052">
        <ele>-0.53</ele>
        <time>2021-11-17T09:24:35.000Z</time>
      </trkpt>
      <trkpt lat="47.90047" lon="-4.00051">
        <ele>0.03</ele>
        <time>2021-11-17T09:24:40.000Z</time>
      </trkpt>
      <trkpt lat="47.90047" lon="-4.00049">
        <ele>-0.57</ele>
        <time>2021-11-17T09:25:16.000Z</time>
      </trkpt>
      <trkpt lat="47.90048" lon="-4.0005">
        <ele>-0.78</ele>
        <time>2021-11-17T09:25:21.000Z</time>
      </trkpt>
      <trkpt lat="47.90049" lon="-4.00052">
        <ele>0.85</ele>
        <time>2021-11-17T09:26:23.000Z</time>
      </trkpt>
      <trkpt lat="47.90051" lon="-4.00058">
        <ele>1.83</ele>
        <time>2021-11-17T09:26:28.000Z</time>
      </trkpt>
      <trkpt lat="47.90054" lon="-4.0006">
        <ele>3.34</ele>
        <time>2021-11-17T09:26:32.434Z</time>
      </trkpt>
      <trkpt lat="47.90057" lon="-4.00062">
        <ele>3.23</ele>
        <time>2021-11-17T09:26:37.000Z</time>
      </trkpt>
      <trkpt lat="47.90059" lon="-4.00062">
        <ele>3.46</ele>
        <time>2021-11-17T09:26:42.836Z</time>
      </trkpt>
      <trkpt lat="47.90064" lon="-4.00057">
        <ele>4.33</ele>
        <time>2021-11-17T09:26:47.000Z</time>
      </trkpt>
      <trkpt lat="47.90071" lon="-4.00054">
        <ele>4.59</ele>
        <time>2021-11-17T09:26:51.116Z</time>
      </trkpt>
      <trkpt lat="47.90077" lon="-4.00049">
        <ele>5.02</ele>
        <time>2021-11-17T09:26:55.577Z</time>
      </trkpt>
      <trkpt lat="47.90082" lon="-4.00043">
        <ele>5.16</ele>
        <time>2021-11-17T09:26:59.856Z</time>
      </trkpt>
      <trkpt lat="47.90086" lon="-4.00038">
        <ele>6.39</ele>
        <time>2021-11-17T09:27:04.000Z</time>
      </trkpt>
      <trkpt lat="47.90093" lon="-4.00038">
        <ele>4.91</ele>
        <time>2021-11-17T09:27:09.000Z</time>
      </trkpt>
      <trkpt lat="47.901" lon="-4.00036">
        <ele>5.69</ele>
        <time>2021-11-17T09:27:14.000Z</time>
      </trkpt>
      <trkpt lat="47.90107" lon="-4.00039">
        <ele>6.37</ele>
        <time>2021-11-17T09:27:18.459Z</time>
      </trkpt>
      <trkpt lat="47.90112" lon="-4.00043">
        <ele>6</ele>
        <time>2021-11-17T09:27:22.678Z</time>
      </trkpt>
      <trkpt lat="47.90119" lon="-4.00048">
        <ele>4.26</ele>
        <time>2021-11-17T09:27:28.000Z</time>
      </trkpt>
      <trkpt lat="47.90123" lon="-4.00056">
        <ele>6.46</ele>
        <time>2021-11-17T09:27:33.000Z</time>
      </trkpt>
      <trkpt lat="47.90123" lon="-4.00068">
        <ele>6.32</ele>
        <time>2021-11-17T09:27:38.000Z</time>
      </trkpt>
      <trkpt lat="47.9012" lon="-4.00077">
        <ele>7.94</ele>
        <time>2021-11-17T09:27:43.000Z</time>
      </trkpt>
      <trkpt lat="47.90116" lon="-4.0008">
        <ele>8.67</ele>
        <time>2021-11-17T09:27:47.582Z</time>
      </trkpt>
      <trkpt lat="47.90114" lon="-4.00085">
        <ele>8.9</ele>
        <time>2021-11-17T09:27:51.861Z</time>
      </trkpt>
      <trkpt lat="47.90111" lon="-4.00092">
        <ele>9.59</ele>
        <time>2021-11-17T09:27:56.000Z</time>
      </trkpt>
      <trkpt lat="47.9011" lon="-4.00102">
        <ele>11.32</ele>
        <time>2021-11-17T09:28:01.000Z</time>
      </trkpt>
      <trkpt lat="47.90108" lon="-4.00109">
        <ele>11.66</ele>
        <time>2021-11-17T09:28:05.152Z</time>
      </trkpt>
      <trkpt lat="47.9011" lon="-4.00118">
        <ele>11.67</ele>
        <time>2021-11-17T09:28:09.901Z</time>
      </trkpt>
      <trkpt lat="47.90114" lon="-4.00126">
        <ele>9.75</ele>
        <time>2021-11-17T09:28:14.112Z</time>
      </trkpt>
      <trkpt lat="47.90113" lon="-4.0013">
        <ele>9.1</ele>
        <time>2021-11-17T09:28:18.752Z</time>
      </trkpt>
      <trkpt lat="47.90111" lon="-4.00127">
        <ele>7.48</ele>
        <time>2021-11-17T09:28:23.000Z</time>
      </trkpt>
      <trkpt lat="47.90111" lon="-4.00123">
        <ele>8.46</ele>
        <time>2021-11-17T09:28:27.452Z</time>
      </trkpt>
      <trkpt lat="47.90108" lon="-4.00127">
        <ele>8.81</ele>
        <time>2021-11-17T09:28:32.060Z</time>
      </trkpt>
      <trkpt lat="47.90107" lon="-4.00135">
        <ele>9.51</ele>
        <time>2021-11-17T09:28:36.533Z</time>
      </trkpt>
      <trkpt lat="47.90105" lon="-4.00143">
        <ele>9.67</ele>
        <time>2021-11-17T09:28:41.515Z</time>
      </trkpt>
      <trkpt lat="47.90105" lon="-4.00151">
        <ele>7.66</ele>
        <time>2021-11-17T09:28:46.000Z</time>
      </trkpt>
      <trkpt lat="47.90105" lon="-4.0016">
        <ele>5.72</ele>
        <time>2021-11-17T09:28:51.000Z</time>
      </trkpt>
      <trkpt lat="47.90102" lon="-4.00168">
        <ele>6.58</ele>
        <time>2021-11-17T09:28:55.474Z</time>
      </trkpt>
      <trkpt lat="47.90101" lon="-4.00175">
        <ele>6.45</ele>
        <time>2021-11-17T09:28:59.638Z</time>
      </trkpt>
      <trkpt lat="47.90101" lon="-4.00183">
        <ele>6.1</ele>
        <time>2021-11-17T09:29:04.000Z</time>
      </trkpt>
      <trkpt lat="47.90103" lon="-4.0019">
        <ele>5.51</ele>
        <time>2021-11-17T09:29:08.717Z</time>
      </trkpt>
      <trkpt lat="47.90106" lon="-4.00197">
        <ele>3.96</ele>
        <time>2021-11-17T09:29:13.396Z</time>
      </trkpt>
      <trkpt lat="47.90108" lon="-4.00203">
        <ele>1.77</ele>
        <time>2021-11-17T09:29:18.000Z</time>
      </trkpt>
      <trkpt lat="47.9011" lon="-4.00213">
        <ele>4.36</ele>
        <time>2021-11-17T09:29:23.000Z</time>
      </trkpt>
      <trkpt lat="47.9011" lon="-4.0022">
        <ele>4.56</ele>
        <time>2021-11-17T09:29:27.457Z</time>
      </trkpt>
      <trkpt lat="47.90112" lon="-4.00225">
        <ele>2.26</ele>
        <time>2021-11-17T09:29:32.000Z</time>
      </trkpt>
      <trkpt lat="47.90111" lon="-4.00226">
        <ele>1.24</ele>
        <time>2021-11-17T09:29:43.000Z</time>
      </trkpt>
      <trkpt lat="47.90112" lon="-4.00226">
        <ele>1.93</ele>
        <time>2021-11-17T09:30:20.000Z</time>
      </trkpt>
      <trkpt lat="47.90113" lon="-4.00227">
        <ele>2.91</ele>
        <time>2021-11-17T09:30:25.000Z</time>
      </trkpt>
      <trkpt lat="47.90114" lon="-4.00228">
        <ele>1.3</ele>
        <time>2021-11-17T09:30:30.000Z</time>
      </trkpt>
      <trkpt lat="47.90117" lon="-4.00234">
        <ele>-0.04</ele>
        <time>2021-11-17T09:30:35.000Z</time>
      </trkpt>
      <trkpt lat="47.90118" lon="-4.00241">
        <ele>-0.45</ele>
        <time>2021-11-17T09:30:40.000Z</time>
      </trkpt>
      <trkpt lat="47.9012" lon="-4.0025">
        <ele>3.5</ele>
        <time>2021-11-17T09:30:45.000Z</time>
      </trkpt>
      <trkpt lat="47.90123" lon="-4.00256">
        <ele>3.94</ele>
        <time>2021-11-17T09:30:49.214Z</time>
      </trkpt>
      <trkpt lat="47.90125" lon="-4.00262">
        <ele>3.66</ele>
        <time>2021-11-17T09:30:53.884Z</time>
      </trkpt>
      <trkpt lat="47.9013" lon="-4.00265">
        <ele>2.45</ele>
        <time>2021-11-17T09:30:58.000Z</time>
      </trkpt>
      <trkpt lat="47.90135" lon="-4.00267">
        <ele>1.48</ele>
        <time>2021-11-17T09:31:03.000Z</time>
      </trkpt>
      <trkpt lat="47.9014" lon="-4.00267">
        <ele>3.71</ele>
        <time>2021-11-17T09:31:07.455Z</time>
      </trkpt>
      <trkpt lat="47.90144" lon="-4.00271">
        <ele>2.14</ele>
        <time>2021-11-17T09:31:11.885Z</time>
      </trkpt>
      <trkpt lat="47.90146" lon="-4.00278">
        <ele>4.93</ele>
        <time>2021-11-17T09:31:16.000Z</time>
      </trkpt>
      <trkpt lat="47.90147" lon="-4.00284">
        <ele>1.55</ele>
        <time>2021-11-17T09:31:20.536Z</time>
      </trkpt>
      <trkpt lat="47.9015" lon="-4.00291">
        <ele>1.12</ele>
        <time>2021-11-17T09:31:25.000Z</time>
      </trkpt>
      <trkpt lat="47.90151" lon="-4.00299">
        <ele>1.42</ele>
        <time>2021-11-17T09:31:29.619Z</time>
      </trkpt>
      <trkpt lat="47.90149" lon="-4.00308">
        <ele>1.93</ele>
        <time>2021-11-17T09:31:33.803Z</time>
      </trkpt>
      <trkpt lat="47.90148" lon="-4.00316">
        <ele>3.21</ele>
        <time>2021-11-17T09:31:38.000Z</time>
      </trkpt>
      <trkpt lat="47.90148" lon="-4.00322">
        <ele>4.57</ele>
        <time>2021-11-17T09:31:42.259Z</time>
      </trkpt>
      <trkpt lat="47.90149" lon="-4.00328">
        <ele>4.42</ele>
        <time>2021-11-17T09:31:46.860Z</time>
      </trkpt>
      <trkpt lat="47.90151" lon="-4.00332">
        <ele>2.77</ele>
        <time>2021-11-17T09:31:51.380Z</time>
      </trkpt>
      <trkpt lat="47.90154" lon="-4.00335">
        <ele>3.17</ele>
        <time>2021-11-17T09:31:55.542Z</time>
      </trkpt>
      <trkpt lat="47.90157" lon="-4.0034">
        <ele>4.54</ele>
        <time>2021-11-17T09:32:00.226Z</time>
      </trkpt>
      <trkpt lat="47.90161" lon="-4.00344">
        <ele>5.02</ele>
        <time>2021-11-17T09:32:04.732Z</time>
      </trkpt>
      <trkpt lat="47.90164" lon="-4.00347">
        <ele>10.03</ele>
        <time>2021-11-17T09:32:09.272Z</time>
      </trkpt>
      <trkpt lat="47.90167" lon="-4.00352">
        <ele>10.07</ele>
        <time>2021-11-17T09:32:13.516Z</time>
      </trkpt>
      <trkpt lat="47.90169" lon="-4.00358">
        <ele>10.07</ele>
        <time>2021-11-17T09:32:18.000Z</time>
      </trkpt>
      <trkpt lat="47.9017" lon="-4.00362">
        <ele>10.04</ele>
        <time>2021-11-17T09:32:22.381Z</time>
      </trkpt>
      <trkpt lat="47.90169" lon="-4.00363">
        <ele>9.95</ele>
        <time>2021-11-17T09:32:31.000Z</time>
      </trkpt>
      <trkpt lat="47.90168" lon="-4.00363">
        <ele>10.05</ele>
        <time>2021-11-17T09:32:37.000Z</time>
      </trkpt>
      <trkpt lat="47.90167" lon="-4.00364">
        <ele>10.05</ele>
        <time>2021-11-17T09:32:53.000Z</time>
      </trkpt>
      <trkpt lat="47.90167" lon="-4.00365">
        <ele>10.04</ele>
        <time>2021-11-17T09:32:59.000Z</time>
      </trkpt>
      <trkpt lat="47.90168" lon="-4.00367">
        <ele>10.26</ele>
        <time>2021-11-17T09:33:35.000Z</time>
      </trkpt>
      <trkpt lat="47.90171" lon="-4.00371">
        <ele>10.24</ele>
        <time>2021-11-17T09:33:39.498Z</time>
      </trkpt>
      <trkpt lat="47.90174" lon="-4.00371">
        <ele>10.18</ele>
        <time>2021-11-17T09:33:44.000Z</time>
      </trkpt>
      <trkpt lat="47.90179" lon="-4.00374">
        <ele>10.18</ele>
        <time>2021-11-17T09:33:48.719Z</time>
      </trkpt>
      <trkpt lat="47.90182" lon="-4.00376">
        <ele>10.18</ele>
        <time>2021-11-17T09:33:52.809Z</time>
      </trkpt>
      <trkpt lat="47.90186" lon="-4.0038">
        <ele>10.21</ele>
        <time>2021-11-17T09:33:57.782Z</time>
      </trkpt>
      <trkpt lat="47.90192" lon="-4.00385">
        <ele>10.32</ele>
        <time>2021-11-17T09:34:02.222Z</time>
      </trkpt>
      <trkpt lat="47.90196" lon="-4.00389">
        <ele>7.62</ele>
        <time>2021-11-17T09:34:06.307Z</time>
      </trkpt>
      <trkpt lat="47.902" lon="-4.00396">
        <ele>6.52</ele>
        <time>2021-11-17T09:34:10.360Z</time>
      </trkpt>
      <trkpt lat="47.90201" lon="-4.00403">
        <ele>9.31</ele>
        <time>2021-11-17T09:34:15.000Z</time>
      </trkpt>
      <trkpt lat="47.902" lon="-4.0041">
        <ele>9.31</ele>
        <time>2021-11-17T09:34:20.000Z</time>
      </trkpt>
      <trkpt lat="47.902" lon="-4.00416">
        <ele>9.76</ele>
        <time>2021-11-17T09:34:24.451Z</time>
      </trkpt>
      <trkpt lat="47.90198" lon="-4.00422">
        <ele>9.79</ele>
        <time>2021-11-17T09:34:29.000Z</time>
      </trkpt>
      <trkpt lat="47.90195" lon="-4.00428">
        <ele>9.94</ele>
        <time>2021-11-17T09:34:33.575Z</time>
      </trkpt>
      <trkpt lat="47.90192" lon="-4.00433">
        <ele>9.97</ele>
        <time>2021-11-17T09:34:38.000Z</time>
      </trkpt>
      <trkpt lat="47.90191" lon="-4.00439">
        <ele>10</ele>
        <time>2021-11-17T09:34:42.514Z</time>
      </trkpt>
      <trkpt lat="47.90189" lon="-4.00448">
        <ele>10.08</ele>
        <time>2021-11-17T09:34:46.853Z</time>
      </trkpt>
      <trkpt lat="47.90188" lon="-4.00455">
        <ele>10.04</ele>
        <time>2021-11-17T09:34:51.113Z</time>
      </trkpt>
      <trkpt lat="47.90186" lon="-4.00463">
        <ele>10.02</ele>
        <time>2021-11-17T09:34:55.358Z</time>
      </trkpt>
      <trkpt lat="47.90183" lon="-4.0047">
        <ele>10.02</ele>
        <time>2021-11-17T09:34:59.635Z</time>
      </trkpt>
      <trkpt lat="47.9018" lon="-4.00476">
        <ele>10.03</ele>
        <time>2021-11-17T09:35:04.000Z</time>
      </trkpt>
      <trkpt lat="47.90175" lon="-4.00479">
        <ele>10.05</ele>
        <time>2021-11-17T09:35:08.513Z</time>
      </trkpt>
      <trkpt lat="47.90171" lon="-4.00482">
        <ele>10.01</ele>
        <time>2021-11-17T09:35:12.616Z</time>
      </trkpt>
      <trkpt lat="47.9017" lon="-4.00487">
        <ele>10.08</ele>
        <time>2021-11-17T09:35:17.000Z</time>
      </trkpt>
      <trkpt lat="47.90169" lon="-4.00493">
        <ele>10.08</ele>
        <time>2021-11-17T09:35:22.000Z</time>
      </trkpt>
      <trkpt lat="47.90171" lon="-4.00496">
        <ele>10.11</ele>
        <time>2021-11-17T09:35:27.000Z</time>
      </trkpt>
      <trkpt lat="47.90171" lon="-4.005">
        <ele>10.18</ele>
        <time>2021-11-17T09:35:31.519Z</time>
      </trkpt>
      <trkpt lat="47.90172" lon="-4.00508">
        <ele>10.26</ele>
        <time>2021-11-17T09:35:36.000Z</time>
      </trkpt>
      <trkpt lat="47.90174" lon="-4.00516">
        <ele>13.16</ele>
        <time>2021-11-17T09:35:40.560Z</time>
      </trkpt>
      <trkpt lat="47.90176" lon="-4.00521">
        <ele>15.23</ele>
        <time>2021-11-17T09:35:45.000Z</time>
      </trkpt>
      <trkpt lat="47.90178" lon="-4.00527">
        <ele>16.2</ele>
        <time>2021-11-17T09:35:49.303Z</time>
      </trkpt>
      <trkpt lat="47.90178" lon="-4.00533">
        <ele>16.97</ele>
        <time>2021-11-17T09:35:54.000Z</time>
      </trkpt>
      <trkpt lat="47.90177" lon="-4.00533">
        <ele>19.02</ele>
        <time>2021-11-17T09:36:47.000Z</time>
      </trkpt>
      <trkpt lat="47.90177" lon="-4.00532">
        <ele>19.13</ele>
        <time>2021-11-17T09:37:05.000Z</time>
      </trkpt>
      <trkpt lat="47.90175" lon="-4.00523">
        <ele>19.13</ele>
        <time>2021-11-17T09:37:10.000Z</time>
      </trkpt>
      <trkpt lat="47.90173" lon="-4.00516">
        <ele>19.08</ele>
        <time>2021-11-17T09:37:14.117Z</time>
      </trkpt>
      <trkpt lat="47.90171" lon="-4.00508">
        <ele>19.18</ele>
        <time>2021-11-17T09:37:18.258Z</time>
      </trkpt>
      <trkpt lat="47.90169" lon="-4.00501">
        <ele>19.2</ele>
        <time>2021-11-17T09:37:22.780Z</time>
      </trkpt>
      <trkpt lat="47.90171" lon="-4.00491">
        <ele>19.08</ele>
        <time>2021-11-17T09:37:28.000Z</time>
      </trkpt>
      <trkpt lat="47.90172" lon="-4.00486">
        <ele>19.07</ele>
        <time>2021-11-17T09:37:32.479Z</time>
      </trkpt>
      <trkpt lat="47.90176" lon="-4.0048">
        <ele>18.87</ele>
        <time>2021-11-17T09:37:36.884Z</time>
      </trkpt>
      <trkpt lat="47.90183" lon="-4.00475">
        <ele>18.91</ele>
        <time>2021-11-17T09:37:42.000Z</time>
      </trkpt>
      <trkpt lat="47.90189" lon="-4.0047">
        <ele>18.92</ele>
        <time>2021-11-17T09:37:46.812Z</time>
      </trkpt>
      <trkpt lat="47.90191" lon="-4.00461">
        <ele>18.93</ele>
        <time>2021-11-17T09:37:51.331Z</time>
      </trkpt>
      <trkpt lat="47.90192" lon="-4.00452">
        <ele>17.21</ele>
        <time>2021-11-17T09:37:55.492Z</time>
      </trkpt>
      <trkpt lat="47.90193" lon="-4.00445">
        <ele>15.05</ele>
        <time>2021-11-17T09:38:00.000Z</time>
      </trkpt>
      <trkpt lat="47.90194" lon="-4.00436">
        <ele>13.81</ele>
        <time>2021-11-17T09:38:04.439Z</time>
      </trkpt>
      <trkpt lat="47.90197" lon="-4.0043">
        <ele>13.59</ele>
        <time>2021-11-17T09:38:09.000Z</time>
      </trkpt>
      <trkpt lat="47.90199" lon="-4.00425">
        <ele>12.34</ele>
        <time>2021-11-17T09:38:13.574Z</time>
      </trkpt>
      <trkpt lat="47.902" lon="-4.00416">
        <ele>12.29</ele>
        <time>2021-11-17T09:38:18.000Z</time>
      </trkpt>
      <trkpt lat="47.90198" lon="-4.00409">
        <ele>11.39</ele>
        <time>2021-11-17T09:38:22.594Z</time>
      </trkpt>
      <trkpt lat="47.90198" lon="-4.00404">
        <ele>11.39</ele>
        <time>2021-11-17T09:38:27.000Z</time>
      </trkpt>
      <trkpt lat="47.90196" lon="-4.00399">
        <ele>11.35</ele>
        <time>2021-11-17T09:38:31.780Z</time>
      </trkpt>
      <trkpt lat="47.90193" lon="-4.00393">
        <ele>11.37</ele>
        <time>2021-11-17T09:38:36.000Z</time>
      </trkpt>
      <trkpt lat="47.90188" lon="-4.00388">
        <ele>10.5</ele>
        <time>2021-11-17T09:38:40.376Z</time>
      </trkpt>
      <trkpt lat="47.90184" lon="-4.00385">
        <ele>10.28</ele>
        <time>2021-11-17T09:38:44.436Z</time>
      </trkpt>
      <trkpt lat="47.90181" lon="-4.00382">
        <ele>10.13</ele>
        <time>2021-11-17T09:38:49.000Z</time>
      </trkpt>
      <trkpt lat="47.90179" lon="-4.00375">
        <ele>10.12</ele>
        <time>2021-11-17T09:38:53.362Z</time>
      </trkpt>
      <trkpt lat="47.90176" lon="-4.0037">
        <ele>10.17</ele>
        <time>2021-11-17T09:38:57.426Z</time>
      </trkpt>
      <trkpt lat="47.90172" lon="-4.00366">
        <ele>10.26</ele>
        <time>2021-11-17T09:39:01.896Z</time>
      </trkpt>
      <trkpt lat="47.90169" lon="-4.00358">
        <ele>10.32</ele>
        <time>2021-11-17T09:39:06.059Z</time>
      </trkpt>
      <trkpt lat="47.90166" lon="-4.00352">
        <ele>10.25</ele>
        <time>2021-11-17T09:39:10.163Z</time>
      </trkpt>
      <trkpt lat="47.90162" lon="-4.00346">
        <ele>10.27</ele>
        <time>2021-11-17T09:39:15.000Z</time>
      </trkpt>
      <trkpt lat="47.90158" lon="-4.0034">
        <ele>10.24</ele>
        <time>2021-11-17T09:39:19.139Z</time>
      </trkpt>
      <trkpt lat="47.90154" lon="-4.00332">
        <ele>10.21</ele>
        <time>2021-11-17T09:39:23.820Z</time>
      </trkpt>
      <trkpt lat="47.90151" lon="-4.00323">
        <ele>10.24</ele>
        <time>2021-11-17T09:39:28.703Z</time>
      </trkpt>
      <trkpt lat="47.90149" lon="-4.00314">
        <ele>10.19</ele>
        <time>2021-11-17T09:39:33.742Z</time>
      </trkpt>
      <trkpt lat="47.90148" lon="-4.00308">
        <ele>10.23</ele>
        <time>2021-11-17T09:39:38.480Z</time>
      </trkpt>
      <trkpt lat="47.90148" lon="-4.003">
        <ele>10.26</ele>
        <time>2021-11-17T09:39:42.702Z</time>
      </trkpt>
      <trkpt lat="47.90147" lon="-4.00293">
        <ele>10.31</ele>
        <time>2021-11-17T09:39:46.892Z</time>
      </trkpt>
      <trkpt lat="47.90144" lon="-4.00288">
        <ele>10.35</ele>
        <time>2021-11-17T09:39:51.000Z</time>
      </trkpt>
      <trkpt lat="47.90141" lon="-4.00282">
        <ele>10.34</ele>
        <time>2021-11-17T09:39:56.000Z</time>
      </trkpt>
      <trkpt lat="47.90138" lon="-4.00276">
        <ele>10.33</ele>
        <time>2021-11-17T09:40:00.512Z</time>
      </trkpt>
      <trkpt lat="47.90134" lon="-4.0027">
        <ele>-0.83</ele>
        <time>2021-11-17T09:40:04.613Z</time>
      </trkpt>
      <trkpt lat="47.9013" lon="-4.00265">
        <ele>-0.79</ele>
        <time>2021-11-17T09:40:08.756Z</time>
      </trkpt>
      <trkpt lat="47.90125" lon="-4.00259">
        <ele>-0.43</ele>
        <time>2021-11-17T09:40:13.793Z</time>
      </trkpt>
      <trkpt lat="47.90123" lon="-4.00254">
        <ele>1.2</ele>
        <time>2021-11-17T09:40:18.000Z</time>
      </trkpt>
      <trkpt lat="47.90122" lon="-4.00247">
        <ele>3.79</ele>
        <time>2021-11-17T09:40:22.336Z</time>
      </trkpt>
      <trkpt lat="47.90121" lon="-4.0024">
        <ele>3.14</ele>
        <time>2021-11-17T09:40:26.433Z</time>
      </trkpt>
      <trkpt lat="47.90118" lon="-4.00235">
        <ele>1.3</ele>
        <time>2021-11-17T09:40:30.655Z</time>
      </trkpt>
      <trkpt lat="47.90115" lon="-4.00227">
        <ele>0.69</ele>
        <time>2021-11-17T09:40:34.835Z</time>
      </trkpt>
      <trkpt lat="47.90113" lon="-4.00222">
        <ele>1.81</ele>
        <time>2021-11-17T09:40:39.000Z</time>
      </trkpt>
      <trkpt lat="47.90113" lon="-4.00221">
        <ele>2.32</ele>
        <time>2021-11-17T09:40:44.000Z</time>
      </trkpt>
      <trkpt lat="47.90113" lon="-4.00219">
        <ele>3.13</ele>
        <time>2021-11-17T09:40:51.000Z</time>
      </trkpt>
      <trkpt lat="47.90113" lon="-4.00217">
        <ele>4.46</ele>
        <time>2021-11-17T09:40:55.095Z</time>
      </trkpt>
      <trkpt lat="47.90112" lon="-4.00211">
        <ele>5.09</ele>
        <time>2021-11-17T09:40:59.279Z</time>
      </trkpt>
      <trkpt lat="47.90111" lon="-4.00203">
        <ele>5.97</ele>
        <time>2021-11-17T09:41:03.657Z</time>
      </trkpt>
      <trkpt lat="47.9011" lon="-4.00195">
        <ele>7.01</ele>
        <time>2021-11-17T09:41:08.517Z</time>
      </trkpt>
      <trkpt lat="47.90111" lon="-4.0019">
        <ele>6.89</ele>
        <time>2021-11-17T09:41:12.870Z</time>
      </trkpt>
      <trkpt lat="47.90113" lon="-4.00183">
        <ele>6.55</ele>
        <time>2021-11-17T09:41:16.999Z</time>
      </trkpt>
      <trkpt lat="47.90117" lon="-4.00176">
        <ele>5.93</ele>
        <time>2021-11-17T09:41:21.000Z</time>
      </trkpt>
      <trkpt lat="47.9012" lon="-4.00169">
        <ele>6.05</ele>
        <time>2021-11-17T09:41:25.518Z</time>
      </trkpt>
      <trkpt lat="47.90122" lon="-4.00165">
        <ele>4.8</ele>
        <time>2021-11-17T09:41:30.000Z</time>
      </trkpt>
      <trkpt lat="47.90122" lon="-4.00163">
        <ele>5.27</ele>
        <time>2021-11-17T09:41:34.563Z</time>
      </trkpt>
      <trkpt lat="47.90123" lon="-4.00161">
        <ele>5.76</ele>
        <time>2021-11-17T09:41:38.639Z</time>
      </trkpt>
      <trkpt lat="47.90126" lon="-4.00156">
        <ele>4.33</ele>
        <time>2021-11-17T09:41:42.939Z</time>
      </trkpt>
      <trkpt lat="47.9013" lon="-4.00152">
        <ele>4.69</ele>
        <time>2021-11-17T09:41:47.562Z</time>
      </trkpt>
      <trkpt lat="47.90129" lon="-4.00146">
        <ele>2.52</ele>
        <time>2021-11-17T09:41:52.000Z</time>
      </trkpt>
      <trkpt lat="47.90126" lon="-4.00143">
        <ele>3.05</ele>
        <time>2021-11-17T09:41:56.181Z</time>
      </trkpt>
      <trkpt lat="47.90123" lon="-4.0014">
        <ele>3.57</ele>
        <time>2021-11-17T09:42:00.281Z</time>
      </trkpt>
      <trkpt lat="47.90121" lon="-4.00136">
        <ele>6.94</ele>
        <time>2021-11-17T09:42:05.000Z</time>
      </trkpt>
      <trkpt lat="47.9012" lon="-4.00131">
        <ele>7.85</ele>
        <time>2021-11-17T09:42:10.000Z</time>
      </trkpt>
      <trkpt lat="47.90118" lon="-4.00126">
        <ele>7.98</ele>
        <time>2021-11-17T09:42:15.093Z</time>
      </trkpt>
      <trkpt lat="47.90116" lon="-4.00123">
        <ele>7.35</ele>
        <time>2021-11-17T09:42:19.472Z</time>
      </trkpt>
      <trkpt lat="47.90115" lon="-4.0012">
        <ele>8.12</ele>
        <time>2021-11-17T09:42:24.000Z</time>
      </trkpt>
      <trkpt lat="47.90114" lon="-4.00119">
        <ele>8.2</ele>
        <time>2021-11-17T09:42:29.000Z</time>
      </trkpt>
      <trkpt lat="47.90114" lon="-4.0012">
        <ele>9.46</ele>
        <time>2021-11-17T09:42:41.000Z</time>
      </trkpt>
      <trkpt lat="47.90113" lon="-4.00119">
        <ele>9.65</ele>
        <time>2021-11-17T09:42:53.000Z</time>
      </trkpt>
      <trkpt lat="47.90112" lon="-4.00118">
        <ele>9</ele>
        <time>2021-11-17T09:42:58.000Z</time>
      </trkpt>
      <trkpt lat="47.90112" lon="-4.00116">
        <ele>9.35</ele>
        <time>2021-11-17T09:43:51.000Z</time>
      </trkpt>
      <trkpt lat="47.90112" lon="-4.00112">
        <ele>9.24</ele>
        <time>2021-11-17T09:43:55.481Z</time>
      </trkpt>
      <trkpt lat="47.90112" lon="-4.00102">
        <ele>10.8</ele>
        <time>2021-11-17T09:43:59.780Z</time>
      </trkpt>
      <trkpt lat="47.90114" lon="-4.00091">
        <ele>8.27</ele>
        <time>2021-11-17T09:44:05.309Z</time>
      </trkpt>
      <trkpt lat="47.90116" lon="-4.00081">
        <ele>6.66</ele>
        <time>2021-11-17T09:44:10.102Z</time>
      </trkpt>
      <trkpt lat="47.90118" lon="-4.00074">
        <ele>5.98</ele>
        <time>2021-11-17T09:44:15.332Z</time>
      </trkpt>
      <trkpt lat="47.90121" lon="-4.00069">
        <ele>4.92</ele>
        <time>2021-11-17T09:44:19.433Z</time>
      </trkpt>
      <trkpt lat="47.90122" lon="-4.00062">
        <ele>4.48</ele>
        <time>2021-11-17T09:44:23.594Z</time>
      </trkpt>
      <trkpt lat="47.90121" lon="-4.00055">
        <ele>4.42</ele>
        <time>2021-11-17T09:44:27.814Z</time>
      </trkpt>
      <trkpt lat="47.90117" lon="-4.00051">
        <ele>4.02</ele>
        <time>2021-11-17T09:44:32.000Z</time>
      </trkpt>
      <trkpt lat="47.90113" lon="-4.00047">
        <ele>3.1</ele>
        <time>2021-11-17T09:44:36.514Z</time>
      </trkpt>
      <trkpt lat="47.90109" lon="-4.00042">
        <ele>2.91</ele>
        <time>2021-11-17T09:44:40.693Z</time>
      </trkpt>
      <trkpt lat="47.90102" lon="-4.0004">
        <ele>4</ele>
        <time>2021-11-17T09:44:45.333Z</time>
      </trkpt>
      <trkpt lat="47.90097" lon="-4.0004">
        <ele>3.53</ele>
        <time>2021-11-17T09:44:49.373Z</time>
      </trkpt>
      <trkpt lat="47.90091" lon="-4.00042">
        <ele>4.59</ele>
        <time>2021-11-17T09:44:53.515Z</time>
      </trkpt>
      <trkpt lat="47.90085" lon="-4.00042">
        <ele>6.46</ele>
        <time>2021-11-17T09:44:58.000Z</time>
      </trkpt>
      <trkpt lat="47.90078" lon="-4.00045">
        <ele>4.94</ele>
        <time>2021-11-17T09:45:02.637Z</time>
      </trkpt>
      <trkpt lat="47.90072" lon="-4.0005">
        <ele>3.6</ele>
        <time>2021-11-17T09:45:07.596Z</time>
      </trkpt>
      <trkpt lat="47.90067" lon="-4.00053">
        <ele>3.7</ele>
        <time>2021-11-17T09:45:11.681Z</time>
      </trkpt>
      <trkpt lat="47.90062" lon="-4.00058">
        <ele>4.4</ele>
        <time>2021-11-17T09:45:15.816Z</time>
      </trkpt>
      <trkpt lat="47.90056" lon="-4.00059">
        <ele>4.45</ele>
        <time>2021-11-17T09:45:20.663Z</time>
      </trkpt>
      <trkpt lat="47.90054" lon="-4.00055">
        <ele>3.63</ele>
        <time>2021-11-17T09:45:25.638Z</time>
      </trkpt>
      <trkpt lat="47.90052" lon="-4.00053">
        <ele>3.84</ele>
        <time>2021-11-17T09:45:30.880Z</time>
      </trkpt>
      <trkpt lat="47.90049" lon="-4.0005">
        <ele>4.19</ele>
        <time>2021-11-17T09:45:35.000Z</time>
      </trkpt>
      <trkpt lat="47.90048" lon="-4.00051">
        <ele>4.23</ele>
        <time>2021-11-17T09:45:51.000Z</time>
      </trkpt>
      <trkpt lat="47.90048" lon="-4.0005">
        <ele>4.11</ele>
        <time>2021-11-17T09:45:56.000Z</time>
      </trkpt>
      <trkpt lat="47.90047" lon="-4.00051">
        <ele>3.72</ele>
        <time>2021-11-17T09:46:23.000Z</time>
      </trkpt>
      <trkpt lat="47.90044" lon="-4.00051">
        <ele>3.27</ele>
        <time>2021-11-17T09:46:28.000Z</time>
      </trkpt>
      <trkpt lat="47.90039" lon="-4.00053">
        <ele>4.51</ele>
        <time>2021-11-17T09:46:32.454Z</time>
      </trkpt>
      <trkpt lat="47.90032" lon="-4.00056">
        <ele>4.11</ele>
        <time>2021-11-17T09:46:37.174Z</time>
      </trkpt>
      <trkpt lat="47.90026" lon="-4.00059">
        <ele>4.08</ele>
        <time>2021-11-17T09:46:41.273Z</time>
      </trkpt>
      <trkpt lat="47.9002" lon="-4.00061">
        <ele>3.99</ele>
        <time>2021-11-17T09:46:45.835Z</time>
      </trkpt>
      <trkpt lat="47.90014" lon="-4.00065">
        <ele>2.27</ele>
        <time>2021-11-17T09:46:50.894Z</time>
      </trkpt>
      <trkpt lat="47.90009" lon="-4.00071">
        <ele>0.67</ele>
        <time>2021-11-17T09:46:56.000Z</time>
      </trkpt>
      <trkpt lat="47.90002" lon="-4.00076">
        <ele>0.26</ele>
        <time>2021-11-17T09:47:00.576Z</time>
      </trkpt>
      <trkpt lat="47.89998" lon="-4.0008">
        <ele>1.09</ele>
        <time>2021-11-17T09:47:04.677Z</time>
      </trkpt>
      <trkpt lat="47.89992" lon="-4.00083">
        <ele>1.74</ele>
        <time>2021-11-17T09:47:09.000Z</time>
      </trkpt>
      <trkpt lat="47.89986" lon="-4.00088">
        <ele>2.05</ele>
        <time>2021-11-17T09:47:13.697Z</time>
      </trkpt>
      <trkpt lat="47.8998" lon="-4.00091">
        <ele>1.84</ele>
        <time>2021-11-17T09:47:18.000Z</time>
      </trkpt>
      <trkpt lat="47.89973" lon="-4.00093">
        <ele>1.96</ele>
        <time>2021-11-17T09:47:22.658Z</time>
      </trkpt>
      <trkpt lat="47.89965" lon="-4.00094">
        <ele>1.76</ele>
        <time>2021-11-17T09:47:27.639Z</time>
      </trkpt>
      <trkpt lat="47.89957" lon="-4.00095">
        <ele>2.58</ele>
        <time>2021-11-17T09:47:32.618Z</time>
      </trkpt>
      <trkpt lat="47.89951" lon="-4.00096">
        <ele>2.51</ele>
        <time>2021-11-17T09:47:37.000Z</time>
      </trkpt>
      <trkpt lat="47.89944" lon="-4.00097">
        <ele>2.49</ele>
        <time>2021-11-17T09:47:41.580Z</time>
      </trkpt>
      <trkpt lat="47.89938" lon="-4.00096">
        <ele>1.84</ele>
        <time>2021-11-17T09:47:46.000Z</time>
      </trkpt>
      <trkpt lat="47.8993" lon="-4.00095">
        <ele>2.3</ele>
        <time>2021-11-17T09:47:51.000Z</time>
      </trkpt>
      <trkpt lat="47.89924" lon="-4.00094">
        <ele>1.99</ele>
        <time>2021-11-17T09:47:55.763Z</time>
      </trkpt>
      <trkpt lat="47.89917" lon="-4.00094">
        <ele>2.89</ele>
        <time>2021-11-17T09:48:00.000Z</time>
      </trkpt>
      <trkpt lat="47.89912" lon="-4.00092">
        <ele>1.79</ele>
        <time>2021-11-17T09:48:04.812Z</time>
      </trkpt>
      <trkpt lat="47.8991" lon="-4.0009">
        <ele>3.09</ele>
        <time>2021-11-17T09:48:09.000Z</time>
      </trkpt>
      <trkpt lat="47.8991" lon="-4.0009">
        <ele>3.38</ele>
        <time>2021-11-17T09:48:21.000Z</time>
      </trkpt>
      <trkpt lat="47.89911" lon="-4.00091">
        <ele>3.15</ele>
        <time>2021-11-17T09:48:27.000Z</time>
      </trkpt>
      <trkpt lat="47.8991" lon="-4.0009">
        <ele>2.73</ele>
        <time>2021-11-17T09:48:52.000Z</time>
      </trkpt>
      <trkpt lat="47.89908" lon="-4.00083">
        <ele>4.38</ele>
        <time>2021-11-17T09:48:56.082Z</time>
      </trkpt>
      <trkpt lat="47.89906" lon="-4.00076">
        <ele>4.51</ele>
        <time>2021-11-17T09:49:00.258Z</time>
      </trkpt>
      <trkpt lat="47.89905" lon="-4.00068">
        <ele>3.89</ele>
        <time>2021-11-17T09:49:04.806Z</time>
      </trkpt>
      <trkpt lat="47.89905" lon="-4.00059">
        <ele>2.71</ele>
        <time>2021-11-17T09:49:09.499Z</time>
      </trkpt>
      <trkpt lat="47.89903" lon="-4.0005">
        <ele>0.41</ele>
        <time>2021-11-17T09:49:13.541Z</time>
      </trkpt>
      <trkpt lat="47.89901" lon="-4.00041">
        <ele>-1.45</ele>
        <time>2021-11-17T09:49:17.566Z</time>
      </trkpt>
      <trkpt lat="47.899" lon="-4.0003">
        <ele>-1.74</ele>
        <time>2021-11-17T09:49:22.545Z</time>
      </trkpt>
      <trkpt lat="47.899" lon="-4.0002">
        <ele>-2.65</ele>
        <time>2021-11-17T09:49:26.822Z</time>
      </trkpt>
      <trkpt lat="47.899" lon="-4.00009">
        <ele>-0.06</ele>
        <time>2021-11-17T09:49:31.721Z</time>
      </trkpt>
      <trkpt lat="47.89898" lon="-3.99998">
        <ele>2.46</ele>
        <time>2021-11-17T09:49:36.692Z</time>
      </trkpt>
      <trkpt lat="47.89897" lon="-3.9999">
        <ele>4.5</ele>
        <time>2021-11-17T09:49:40.734Z</time>
      </trkpt>
      <trkpt lat="47.89895" lon="-3.99981">
        <ele>4.64</ele>
        <time>2021-11-17T09:49:45.614Z</time>
      </trkpt>
      <trkpt lat="47.89892" lon="-3.99976">
        <ele>5.35</ele>
        <time>2021-11-17T09:49:49.633Z</time>
      </trkpt>
      <trkpt lat="47.89886" lon="-3.99972">
        <ele>3.82</ele>
        <time>2021-11-17T09:49:54.000Z</time>
      </trkpt>
      <trkpt lat="47.8988" lon="-3.99964">
        <ele>1.86</ele>
        <time>2021-11-17T09:49:59.000Z</time>
      </trkpt>
      <trkpt lat="47.89875" lon="-3.99956">
        <ele>0.69</ele>
        <time>2021-11-17T09:50:03.434Z</time>
      </trkpt>
      <trkpt lat="47.89872" lon="-3.99949">
        <ele>0.77</ele>
        <time>2021-11-17T09:50:07.575Z</time>
      </trkpt>
      <trkpt lat="47.8987" lon="-3.99944">
        <ele>3.11</ele>
        <time>2021-11-17T09:50:12.000Z</time>
      </trkpt>
      <trkpt lat="47.89869" lon="-3.99942">
        <ele>3.5</ele>
        <time>2021-11-17T09:50:17.000Z</time>
      </trkpt>
      <trkpt lat="47.89868" lon="-3.99943">
        <ele>3.89</ele>
        <time>2021-11-17T09:50:30.000Z</time>
      </trkpt>
      <trkpt lat="47.89869" lon="-3.99941">
        <ele>3.77</ele>
        <time>2021-11-17T09:51:08.000Z</time>
      </trkpt>
      <trkpt lat="47.89869" lon="-3.99937">
        <ele>4.46</ele>
        <time>2021-11-17T09:51:13.000Z</time>
      </trkpt>
      <trkpt lat="47.8987" lon="-3.99937">
        <ele>4.67</ele>
        <time>2021-11-17T09:51:19.000Z</time>
      </trkpt>
      <trkpt lat="47.89871" lon="-3.99937">
        <ele>5.04</ele>
        <time>2021-11-17T09:51:29.000Z</time>
      </trkpt>
      <trkpt lat="47.89873" lon="-3.99941">
        <ele>3.99</ele>
        <time>2021-11-17T09:51:33.655Z</time>
      </trkpt>
      <trkpt lat="47.89875" lon="-3.99947">
        <ele>3.52</ele>
        <time>2021-11-17T09:51:38.000Z</time>
      </trkpt>
      <trkpt lat="47.89876" lon="-3.99947">
        <ele>3.94</ele>
        <time>2021-11-17T09:51:43.000Z</time>
      </trkpt>
      <trkpt lat="47.89879" lon="-3.99949">
        <ele>6.75</ele>
        <time>2021-11-17T09:51:47.398Z</time>
      </trkpt>
      <trkpt lat="47.89883" lon="-3.99957">
        <ele>8.34</ele>
        <time>2021-11-17T09:51:52.777Z</time>
      </trkpt>
      <trkpt lat="47.89886" lon="-3.99961">
        <ele>6.04</ele>
        <time>2021-11-17T09:51:57.000Z</time>
      </trkpt>
      <trkpt lat="47.89892" lon="-3.99965">
        <ele>7.08</ele>
        <time>2021-11-17T09:52:01.178Z</time>
      </trkpt>
      <trkpt lat="47.89897" lon="-3.9997">
        <ele>6.66</ele>
        <time>2021-11-17T09:52:05.379Z</time>
      </trkpt>
      <trkpt lat="47.89902" lon="-3.99976">
        <ele>8.38</ele>
        <time>2021-11-17T09:52:09.888Z</time>
      </trkpt>
      <trkpt lat="47.89907" lon="-3.99975">
        <ele>10.12</ele>
        <time>2021-11-17T09:52:14.000Z</time>
      </trkpt>
      <trkpt lat="47.89912" lon="-3.9998">
        <ele>9.75</ele>
        <time>2021-11-17T09:52:18.783Z</time>
      </trkpt>
      <trkpt lat="47.89917" lon="-3.99984">
        <ele>9.12</ele>
        <time>2021-11-17T09:52:23.000Z</time>
      </trkpt>
      <trkpt lat="47.89923" lon="-3.99987">
        <ele>9.85</ele>
        <time>2021-11-17T09:52:27.461Z</time>
      </trkpt>
      <trkpt lat="47.89929" lon="-3.99985">
        <ele>7.2</ele>
        <time>2021-11-17T09:52:32.000Z</time>
      </trkpt>
      <trkpt lat="47.89935" lon="-3.9998">
        <ele>8.95</ele>
        <time>2021-11-17T09:52:36.731Z</time>
      </trkpt>
      <trkpt lat="47.89941" lon="-3.99977">
        <ele>9.17</ele>
        <time>2021-11-17T09:52:41.000Z</time>
      </trkpt>
      <trkpt lat="47.89947" lon="-3.99972">
        <ele>7.91</ele>
        <time>2021-11-17T09:52:45.772Z</time>
      </trkpt>
      <trkpt lat="47.89952" lon="-3.99968">
        <ele>7.66</ele>
        <time>2021-11-17T09:52:50.000Z</time>
      </trkpt>
      <trkpt lat="47.89957" lon="-3.99964">
        <ele>6.29</ele>
        <time>2021-11-17T09:52:54.432Z</time>
      </trkpt>
      <trkpt lat="47.89963" lon="-3.9996">
        <ele>7.5</ele>
        <time>2021-11-17T09:52:59.000Z</time>
      </trkpt>
      <trkpt lat="47.89969" lon="-3.99953">
        <ele>9.72</ele>
        <time>2021-11-17T09:53:03.853Z</time>
      </trkpt>
      <trkpt lat="47.89975" lon="-3.99947">
        <ele>10.02</ele>
        <time>2021-11-17T09:53:08.736Z</time>
      </trkpt>
      <trkpt lat="47.89981" lon="-3.99941">
        <ele>11.6</ele>
        <time>2021-11-17T09:53:13.514Z</time>
      </trkpt>
      <trkpt lat="47.89986" lon="-3.99937">
        <ele>13.31</ele>
        <time>2021-11-17T09:53:17.835Z</time>
      </trkpt>
      <trkpt lat="47.89993" lon="-3.99936">
        <ele>10.98</ele>
        <time>2021-11-17T09:53:22.618Z</time>
      </trkpt>
      <trkpt lat="47.89998" lon="-3.99936">
        <ele>11.49</ele>
        <time>2021-11-17T09:53:26.841Z</time>
      </trkpt>
      <trkpt lat="47.90003" lon="-3.99934">
        <ele>8.06</ele>
        <time>2021-11-17T09:53:31.677Z</time>
      </trkpt>
      <trkpt lat="47.90009" lon="-3.99932">
        <ele>6.86</ele>
        <time>2021-11-17T09:53:35.823Z</time>
      </trkpt>
      <trkpt lat="47.90013" lon="-3.99929">
        <ele>5.92</ele>
        <time>2021-11-17T09:53:40.000Z</time>
      </trkpt>
      <trkpt lat="47.90018" lon="-3.99927">
        <ele>6.14</ele>
        <time>2021-11-17T09:53:44.678Z</time>
      </trkpt>
      <trkpt lat="47.90024" lon="-3.99925">
        <ele>5.85</ele>
        <time>2021-11-17T09:53:49.522Z</time>
      </trkpt>
      <trkpt lat="47.90029" lon="-3.99923">
        <ele>3.6</ele>
        <time>2021-11-17T09:53:54.000Z</time>
      </trkpt>
      <trkpt lat="47.90036" lon="-3.99921">
        <ele>2.91</ele>
        <time>2021-11-17T09:53:59.099Z</time>
      </trkpt>
      <trkpt lat="47.90042" lon="-3.99921">
        <ele>6.54</ele>
        <time>2021-11-17T09:54:04.000Z</time>
      </trkpt>
      <trkpt lat="47.90047" lon="-3.99923">
        <ele>7.66</ele>
        <time>2021-11-17T09:54:08.640Z</time>
      </trkpt>
      <trkpt lat="47.90053" lon="-3.99926">
        <ele>7.55</ele>
        <time>2021-11-17T09:54:12.742Z</time>
      </trkpt>
      <trkpt lat="47.90059" lon="-3.9993">
        <ele>7.14</ele>
        <time>2021-11-17T09:54:17.000Z</time>
      </trkpt>
      <trkpt lat="47.90064" lon="-3.99931">
        <ele>8.16</ele>
        <time>2021-11-17T09:54:21.374Z</time>
      </trkpt>
      <trkpt lat="47.9007" lon="-3.99934">
        <ele>6.89</ele>
        <time>2021-11-17T09:54:26.000Z</time>
      </trkpt>
      <trkpt lat="47.90076" lon="-3.99935">
        <ele>5.78</ele>
        <time>2021-11-17T09:54:30.453Z</time>
      </trkpt>
      <trkpt lat="47.90081" lon="-3.99937">
        <ele>6.61</ele>
        <time>2021-11-17T09:54:34.533Z</time>
      </trkpt>
      <trkpt lat="47.90086" lon="-3.9994">
        <ele>6.16</ele>
        <time>2021-11-17T09:54:39.000Z</time>
      </trkpt>
      <trkpt lat="47.90092" lon="-3.99944">
        <ele>5.79</ele>
        <time>2021-11-17T09:54:43.493Z</time>
      </trkpt>
      <trkpt lat="47.90097" lon="-3.99941">
        <ele>5.78</ele>
        <time>2021-11-17T09:54:47.834Z</time>
      </trkpt>
      <trkpt lat="47.90101" lon="-3.99938">
        <ele>9.14</ele>
        <time>2021-11-17T09:54:52.296Z</time>
      </trkpt>
      <trkpt lat="47.90106" lon="-3.99945">
        <ele>11.55</ele>
        <time>2021-11-17T09:54:57.161Z</time>
      </trkpt>
      <trkpt lat="47.9011" lon="-3.99951">
        <ele>13.58</ele>
        <time>2021-11-17T09:55:01.336Z</time>
      </trkpt>
      <trkpt lat="47.90114" lon="-3.99955">
        <ele>11.52</ele>
        <time>2021-11-17T09:55:05.523Z</time>
      </trkpt>
      <trkpt lat="47.90119" lon="-3.99952">
        <ele>9.86</ele>
        <time>2021-11-17T09:55:10.000Z</time>
      </trkpt>
      <trkpt lat="47.90123" lon="-3.99953">
        <ele>8.54</ele>
        <time>2021-11-17T09:55:14.278Z</time>
      </trkpt>
      <trkpt lat="47.90128" lon="-3.99957">
        <ele>7.55</ele>
        <time>2021-11-17T09:55:18.658Z</time>
      </trkpt>
      <trkpt lat="47.90132" lon="-3.99959">
        <ele>5.27</ele>
        <time>2021-11-17T09:55:23.000Z</time>
      </trkpt>
      <trkpt lat="47.90137" lon="-3.99955">
        <ele>7.39</ele>
        <time>2021-11-17T09:55:27.882Z</time>
      </trkpt>
      <trkpt lat="47.90142" lon="-3.9995">
        <ele>5.59</ele>
        <time>2021-11-17T09:55:32.894Z</time>
      </trkpt>
      <trkpt lat="47.90146" lon="-3.99949">
        <ele>7.19</ele>
        <time>2021-11-17T09:55:37.000Z</time>
      </trkpt>
      <trkpt lat="47.90151" lon="-3.9995">
        <ele>8.63</ele>
        <time>2021-11-17T09:55:41.839Z</time>
      </trkpt>
      <trkpt lat="47.90156" lon="-3.99949">
        <ele>10.17</ele>
        <time>2021-11-17T09:55:46.659Z</time>
      </trkpt>
      <trkpt lat="47.90161" lon="-3.99946">
        <ele>11.21</ele>
        <time>2021-11-17T09:55:51.000Z</time>
      </trkpt>
      <trkpt lat="47.90165" lon="-3.99943">
        <ele>13.66</ele>
        <time>2021-11-17T09:55:56.000Z</time>
      </trkpt>
      <trkpt lat="47.90169" lon="-3.99937">
        <ele>13.05</ele>
        <time>2021-11-17T09:56:01.000Z</time>
      </trkpt>
      <trkpt lat="47.90173" lon="-3.99936">
        <ele>13.89</ele>
        <time>2021-11-17T09:56:05.899Z</time>
      </trkpt>
      <trkpt lat="47.90177" lon="-3.99936">
        <ele>15.38</ele>
        <time>2021-11-17T09:56:10.474Z</time>
      </trkpt>
      <trkpt lat="47.90182" lon="-3.99934">
        <ele>13.38</ele>
        <time>2021-11-17T09:56:15.000Z</time>
      </trkpt>
      <trkpt lat="47.90186" lon="-3.99927">
        <ele>14.61</ele>
        <time>2021-11-17T09:56:19.674Z</time>
      </trkpt>
      <trkpt lat="47.9019" lon="-3.99924">
        <ele>15.85</ele>
        <time>2021-11-17T09:56:24.000Z</time>
      </trkpt>
      <trkpt lat="47.90195" lon="-3.99924">
        <ele>16.95</ele>
        <time>2021-11-17T09:56:28.253Z</time>
      </trkpt>
      <trkpt lat="47.902" lon="-3.99924">
        <ele>18.35</ele>
        <time>2021-11-17T09:56:32.774Z</time>
      </trkpt>
      <trkpt lat="47.90205" lon="-3.99923">
        <ele>18.69</ele>
        <time>2021-11-17T09:56:37.633Z</time>
      </trkpt>
      <trkpt lat="47.9021" lon="-3.99925">
        <ele>21.03</ele>
        <time>2021-11-17T09:56:41.854Z</time>
      </trkpt>
      <trkpt lat="47.90214" lon="-3.99924">
        <ele>19.38</ele>
        <time>2021-11-17T09:56:46.000Z</time>
      </trkpt>
      <trkpt lat="47.90216" lon="-3.9992">
        <ele>19.75</ele>
        <time>2021-11-17T09:56:51.000Z</time>
      </trkpt>
      <trkpt lat="47.90216" lon="-3.99921">
        <ele>19.87</ele>
        <time>2021-11-17T09:57:08.000Z</time>
      </trkpt>
      <trkpt lat="47.90215" lon="-3.99922">
        <ele>20.55</ele>
        <time>2021-11-17T09:57:13.000Z</time>
      </trkpt>
      <trkpt lat="47.90214" lon="-3.99922">
        <ele>22.03</ele>
        <time>2021-11-17T09:57:18.000Z</time>
      </trkpt>
      <trkpt lat="47.90215" lon="-3.99921">
        <ele>21.71</ele>
        <time>2021-11-17T09:58:20.000Z</time>
      </trkpt>
      <trkpt lat="47.90218" lon="-3.99917">
        <ele>23.46</ele>
        <time>2021-11-17T09:58:25.000Z</time>
      </trkpt>
      <trkpt lat="47.90219" lon="-3.99917">
        <ele>25.72</ele>
        <time>2021-11-17T09:58:29.565Z</time>
      </trkpt>
      <trkpt lat="47.9022" lon="-3.99913">
        <ele>25.17</ele>
        <time>2021-11-17T09:58:34.320Z</time>
      </trkpt>
      <trkpt lat="47.90219" lon="-3.99907">
        <ele>26.13</ele>
        <time>2021-11-17T09:58:39.000Z</time>
      </trkpt>
      <trkpt lat="47.90217" lon="-3.99903">
        <ele>23.38</ele>
        <time>2021-11-17T09:58:43.772Z</time>
      </trkpt>
      <trkpt lat="47.90214" lon="-3.99893">
        <ele>22.54</ele>
        <time>2021-11-17T09:58:48.612Z</time>
      </trkpt>
      <trkpt lat="47.90212" lon="-3.99884">
        <ele>24.78</ele>
        <time>2021-11-17T09:58:53.412Z</time>
      </trkpt>
      <trkpt lat="47.9021" lon="-3.99876">
        <ele>24.68</ele>
        <time>2021-11-17T09:58:57.833Z</time>
      </trkpt>
      <trkpt lat="47.90206" lon="-3.99869">
        <ele>22.73</ele>
        <time>2021-11-17T09:59:02.494Z</time>
      </trkpt>
      <trkpt lat="47.90203" lon="-3.9986">
        <ele>22.53</ele>
        <time>2021-11-17T09:59:07.415Z</time>
      </trkpt>
      <trkpt lat="47.902" lon="-3.99851">
        <ele>21.97</ele>
        <time>2021-11-17T09:59:11.795Z</time>
      </trkpt>
      <trkpt lat="47.90197" lon="-3.99846">
        <ele>20.1</ele>
        <time>2021-11-17T09:59:16.000Z</time>
      </trkpt>
      <trkpt lat="47.90198" lon="-3.99847">
        <ele>22.53</ele>
        <time>2021-11-17T09:59:36.000Z</time>
      </trkpt>
      <trkpt lat="47.90198" lon="-3.99845">
        <ele>23.4</ele>
        <time>2021-11-17T10:00:41.000Z</time>
      </trkpt>
      <trkpt lat="47.90195" lon="-3.99837">
        <ele>24.23</ele>
        <time>2021-11-17T10:00:46.000Z</time>
      </trkpt>
      <trkpt lat="47.90192" lon="-3.99837">
        <ele>21.89</ele>
        <time>2021-11-17T10:00:50.639Z</time>
      </trkpt>
      <trkpt lat="47.90188" lon="-3.99836">
        <ele>20.79</ele>
        <time>2021-11-17T10:00:54.841Z</time>
      </trkpt>
      <trkpt lat="47.90182" lon="-3.99838">
        <ele>21.14</ele>
        <time>2021-11-17T10:00:59.619Z</time>
      </trkpt>
      <trkpt lat="47.9018" lon="-3.99843">
        <ele>20.69</ele>
        <time>2021-11-17T10:01:03.821Z</time>
      </trkpt>
      <trkpt lat="47.90175" lon="-3.99844">
        <ele>20.39</ele>
        <time>2021-11-17T10:01:08.221Z</time>
      </trkpt>
      <trkpt lat="47.90171" lon="-3.99837">
        <ele>18.38</ele>
        <time>2021-11-17T10:01:12.491Z</time>
      </trkpt>
      <trkpt lat="47.90163" lon="-3.99836">
        <ele>18.85</ele>
        <time>2021-11-17T10:01:17.212Z</time>
      </trkpt>
      <trkpt lat="47.90158" lon="-3.99836">
        <ele>16.44</ele>
        <time>2021-11-17T10:01:21.815Z</time>
      </trkpt>
      <trkpt lat="47.90153" lon="-3.99835">
        <ele>19.51</ele>
        <time>2021-11-17T10:01:25.853Z</time>
      </trkpt>
      <trkpt lat="47.90149" lon="-3.99836">
        <ele>22.81</ele>
        <time>2021-11-17T10:01:30.594Z</time>
      </trkpt>
      <trkpt lat="47.90148" lon="-3.9983">
        <ele>22.71</ele>
        <time>2021-11-17T10:01:34.736Z</time>
      </trkpt>
      <trkpt lat="47.90144" lon="-3.99828">
        <ele>20.05</ele>
        <time>2021-11-17T10:01:39.517Z</time>
      </trkpt>
      <trkpt lat="47.9014" lon="-3.99828">
        <ele>19.8</ele>
        <time>2021-11-17T10:01:44.355Z</time>
      </trkpt>
      <trkpt lat="47.90139" lon="-3.99828">
        <ele>20.05</ele>
        <time>2021-11-17T10:01:48.621Z</time>
      </trkpt>
      <trkpt lat="47.90133" lon="-3.99826">
        <ele>18.46</ele>
        <time>2021-11-17T10:01:53.000Z</time>
      </trkpt>
      <trkpt lat="47.90121" lon="-3.99822">
        <ele>15.86</ele>
        <time>2021-11-17T10:01:57.262Z</time>
      </trkpt>
      <trkpt lat="47.90112" lon="-3.99821">
        <ele>16.74</ele>
        <time>2021-11-17T10:02:01.436Z</time>
      </trkpt>
      <trkpt lat="47.90104" lon="-3.99817">
        <ele>17.3</ele>
        <time>2021-11-17T10:02:05.678Z</time>
      </trkpt>
      <trkpt lat="47.90096" lon="-3.99808">
        <ele>21.07</ele>
        <time>2021-11-17T10:02:09.820Z</time>
      </trkpt>
      <trkpt lat="47.90089" lon="-3.99805">
        <ele>20.95</ele>
        <time>2021-11-17T10:02:14.461Z</time>
      </trkpt>
      <trkpt lat="47.90084" lon="-3.99805">
        <ele>21.97</ele>
        <time>2021-11-17T10:02:18.642Z</time>
      </trkpt>
      <trkpt lat="47.90078" lon="-3.99803">
        <ele>24.94</ele>
        <time>2021-11-17T10:02:23.000Z</time>
      </trkpt>
      <trkpt lat="47.90072" lon="-3.99801">
        <ele>24.19</ele>
        <time>2021-11-17T10:02:27.621Z</time>
      </trkpt>
      <trkpt lat="47.90066" lon="-3.99802">
        <ele>23.83</ele>
        <time>2021-11-17T10:02:31.772Z</time>
      </trkpt>
      <trkpt lat="47.9006" lon="-3.99802">
        <ele>23</ele>
        <time>2021-11-17T10:02:36.493Z</time>
      </trkpt>
      <trkpt lat="47.90054" lon="-3.99803">
        <ele>20.96</ele>
        <time>2021-11-17T10:02:41.000Z</time>
      </trkpt>
      <trkpt lat="47.90046" lon="-3.99807">
        <ele>18.46</ele>
        <time>2021-11-17T10:02:45.394Z</time>
      </trkpt>
      <trkpt lat="47.9004" lon="-3.99811">
        <ele>18</ele>
        <time>2021-11-17T10:02:49.595Z</time>
      </trkpt>
      <trkpt lat="47.90034" lon="-3.99813">
        <ele>19.34</ele>
        <time>2021-11-17T10:02:53.777Z</time>
      </trkpt>
      <trkpt lat="47.90028" lon="-3.99814">
        <ele>22.14</ele>
        <time>2021-11-17T10:02:58.000Z</time>
      </trkpt>
      <trkpt lat="47.90021" lon="-3.99814">
        <ele>22.89</ele>
        <time>2021-11-17T10:03:02.596Z</time>
      </trkpt>
      <trkpt lat="47.90015" lon="-3.99812">
        <ele>22.65</ele>
        <time>2021-11-17T10:03:07.000Z</time>
      </trkpt>
      <trkpt lat="47.90008" lon="-3.99811">
        <ele>26.44</ele>
        <time>2021-11-17T10:03:12.000Z</time>
      </trkpt>
      <trkpt lat="47.90002" lon="-3.99808">
        <ele>22.64</ele>
        <time>2021-11-17T10:03:16.676Z</time>
      </trkpt>
      <trkpt lat="47.89997" lon="-3.99805">
        <ele>21.13</ele>
        <time>2021-11-17T10:03:20.799Z</time>
      </trkpt>
      <trkpt lat="47.89992" lon="-3.99803">
        <ele>21.18</ele>
        <time>2021-11-17T10:03:25.000Z</time>
      </trkpt>
      <trkpt lat="47.89986" lon="-3.998">
        <ele>21</ele>
        <time>2021-11-17T10:03:29.619Z</time>
      </trkpt>
      <trkpt lat="47.89981" lon="-3.99797">
        <ele>19.25</ele>
        <time>2021-11-17T10:03:33.738Z</time>
      </trkpt>
      <trkpt lat="47.89976" lon="-3.99792">
        <ele>17.2</ele>
        <time>2021-11-17T10:03:37.887Z</time>
      </trkpt>
      <trkpt lat="47.8997" lon="-3.99785">
        <ele>13.97</ele>
        <time>2021-11-17T10:03:42.560Z</time>
      </trkpt>
      <trkpt lat="47.89967" lon="-3.99779">
        <ele>14.39</ele>
        <time>2021-11-17T10:03:47.000Z</time>
      </trkpt>
      <trkpt lat="47.89965" lon="-3.99773">
        <ele>14.06</ele>
        <time>2021-11-17T10:03:52.000Z</time>
      </trkpt>
      <trkpt lat="47.89964" lon="-3.99772">
        <ele>14.31</ele>
        <time>2021-11-17T10:03:57.000Z</time>
      </trkpt>
      <trkpt lat="47.89964" lon="-3.99772">
        <ele>14.29</ele>
        <time>2021-11-17T10:04:04.000Z</time>
      </trkpt>
      <trkpt lat="47.89963" lon="-3.99773">
        <ele>14.09</ele>
        <time>2021-11-17T10:04:12.000Z</time>
      </trkpt>
      <trkpt lat="47.89964" lon="-3.99774">
        <ele>13.72</ele>
        <time>2021-11-17T10:04:31.000Z</time>
      </trkpt>
      <trkpt lat="47.89964" lon="-3.99776">
        <ele>13.59</ele>
        <time>2021-11-17T10:04:36.000Z</time>
      </trkpt>
      <trkpt lat="47.89963" lon="-3.99776">
        <ele>11.36</ele>
        <time>2021-11-17T10:05:08.000Z</time>
      </trkpt>
      <trkpt lat="47.89958" lon="-3.99774">
        <ele>11.52</ele>
        <time>2021-11-17T10:05:12.770Z</time>
      </trkpt>
      <trkpt lat="47.89951" lon="-3.99776">
        <ele>11.44</ele>
        <time>2021-11-17T10:05:17.371Z</time>
      </trkpt>
      <trkpt lat="47.89945" lon="-3.99782">
        <ele>8.97</ele>
        <time>2021-11-17T10:05:21.434Z</time>
      </trkpt>
      <trkpt lat="47.8994" lon="-3.99787">
        <ele>8.85</ele>
        <time>2021-11-17T10:05:25.494Z</time>
      </trkpt>
      <trkpt lat="47.89935" lon="-3.99793">
        <ele>9.59</ele>
        <time>2021-11-17T10:05:29.555Z</time>
      </trkpt>
      <trkpt lat="47.89931" lon="-3.998">
        <ele>8.6</ele>
        <time>2021-11-17T10:05:33.615Z</time>
      </trkpt>
      <trkpt lat="47.89926" lon="-3.99805">
        <ele>8.76</ele>
        <time>2021-11-17T10:05:37.717Z</time>
      </trkpt>
      <trkpt lat="47.89921" lon="-3.9981">
        <ele>11.89</ele>
        <time>2021-11-17T10:05:41.835Z</time>
      </trkpt>
      <trkpt lat="47.89915" lon="-3.99816">
        <ele>11.46</ele>
        <time>2021-11-17T10:05:46.377Z</time>
      </trkpt>
      <trkpt lat="47.89911" lon="-3.99823">
        <ele>11.12</ele>
        <time>2021-11-17T10:05:50.479Z</time>
      </trkpt>
      <trkpt lat="47.89908" lon="-3.99831">
        <ele>9.68</ele>
        <time>2021-11-17T10:05:54.518Z</time>
      </trkpt>
      <trkpt lat="47.89904" lon="-3.99836">
        <ele>10.43</ele>
        <time>2021-11-17T10:05:58.579Z</time>
      </trkpt>
      <trkpt lat="47.899" lon="-3.99844">
        <ele>9.64</ele>
        <time>2021-11-17T10:06:02.720Z</time>
      </trkpt>
      <trkpt lat="47.89897" lon="-3.9985">
        <ele>8.07</ele>
        <time>2021-11-17T10:06:06.741Z</time>
      </trkpt>
      <trkpt lat="47.89893" lon="-3.99856">
        <ele>9.83</ele>
        <time>2021-11-17T10:06:11.000Z</time>
      </trkpt>
      <trkpt lat="47.89888" lon="-3.99862">
        <ele>10.45</ele>
        <time>2021-11-17T10:06:15.462Z</time>
      </trkpt>
      <trkpt lat="47.89884" lon="-3.99869">
        <ele>11.52</ele>
        <time>2021-11-17T10:06:19.565Z</time>
      </trkpt>
      <trkpt lat="47.89881" lon="-3.99876">
        <ele>10.92</ele>
        <time>2021-11-17T10:06:23.653Z</time>
      </trkpt>
      <trkpt lat="47.89879" lon="-3.99884">
        <ele>11.43</ele>
        <time>2021-11-17T10:06:27.757Z</time>
      </trkpt>
      <trkpt lat="47.89875" lon="-3.99892">
        <ele>11.09</ele>
        <time>2021-11-17T10:06:31.892Z</time>
      </trkpt>
      <trkpt lat="47.89871" lon="-3.99899">
        <ele>9.54</ele>
        <time>2021-11-17T10:06:36.454Z</time>
      </trkpt>
      <trkpt lat="47.89869" lon="-3.99907">
        <ele>7.48</ele>
        <time>2021-11-17T10:06:40.533Z</time>
      </trkpt>
      <trkpt lat="47.89868" lon="-3.99916">
        <ele>3.54</ele>
        <time>2021-11-17T10:06:45.000Z</time>
      </trkpt>
      <trkpt lat="47.89866" lon="-3.99925">
        <ele>6.29</ele>
        <time>2021-11-17T10:06:50.000Z</time>
      </trkpt>
      <trkpt lat="47.89864" lon="-3.99926">
        <ele>7.09</ele>
        <time>2021-11-17T10:06:55.000Z</time>
      </trkpt>
      <trkpt lat="47.89865" lon="-3.99927">
        <ele>7.45</ele>
        <time>2021-11-17T10:07:03.000Z</time>
      </trkpt>
      <trkpt lat="47.89865" lon="-3.99928">
        <ele>7.48</ele>
        <time>2021-11-17T10:07:12.000Z</time>
      </trkpt>
      <trkpt lat="47.89866" lon="-3.9993">
        <ele>7.4</ele>
        <time>2021-11-17T10:08:05.000Z</time>
      </trkpt>
      <trkpt lat="47.89867" lon="-3.99938">
        <ele>6.32</ele>
        <time>2021-11-17T10:08:10.000Z</time>
      </trkpt>
      <trkpt lat="47.89866" lon="-3.99939">
        <ele>5.83</ele>
        <time>2021-11-17T10:08:14.515Z</time>
      </trkpt>
      <trkpt lat="47.89862" lon="-3.99936">
        <ele>5.07</ele>
        <time>2021-11-17T10:08:18.680Z</time>
      </trkpt>
      <trkpt lat="47.89859" lon="-3.99924">
        <ele>4.25</ele>
        <time>2021-11-17T10:08:24.000Z</time>
      </trkpt>
      <trkpt lat="47.89861" lon="-3.99925">
        <ele>4.43</ele>
        <time>2021-11-17T10:08:28.299Z</time>
      </trkpt>
      <trkpt lat="47.89863" lon="-3.99934">
        <ele>4.75</ele>
        <time>2021-11-17T10:08:32.759Z</time>
      </trkpt>
      <trkpt lat="47.89865" lon="-3.99936">
        <ele>5.8</ele>
        <time>2021-11-17T10:08:37.000Z</time>
      </trkpt>
      <trkpt lat="47.89866" lon="-3.99937">
        <ele>6.9</ele>
        <time>2021-11-17T10:08:48.000Z</time>
      </trkpt>
      <trkpt lat="47.89865" lon="-3.99937">
        <ele>5.47</ele>
        <time>2021-11-17T10:09:13.000Z</time>
      </trkpt>
      <trkpt lat="47.89863" lon="-3.99931">
        <ele>2.5</ele>
        <time>2021-11-17T10:09:18.000Z</time>
      </trkpt>
      <trkpt lat="47.89861" lon="-3.99923">
        <ele>-0.39</ele>
        <time>2021-11-17T10:09:22.719Z</time>
      </trkpt>
      <trkpt lat="47.89861" lon="-3.99911">
        <ele>0.19</ele>
        <time>2021-11-17T10:09:27.700Z</time>
      </trkpt>
      <trkpt lat="47.89859" lon="-3.99902">
        <ele>1.45</ele>
        <time>2021-11-17T10:09:31.740Z</time>
      </trkpt>
      <trkpt lat="47.89859" lon="-3.99894">
        <ele>1.02</ele>
        <time>2021-11-17T10:09:35.760Z</time>
      </trkpt>
      <trkpt lat="47.89858" lon="-3.99886">
        <ele>1.17</ele>
        <time>2021-11-17T10:09:40.000Z</time>
      </trkpt>
      <trkpt lat="47.89857" lon="-3.99875">
        <ele>-0.54</ele>
        <time>2021-11-17T10:09:44.672Z</time>
      </trkpt>
      <trkpt lat="47.89855" lon="-3.99863">
        <ele>-0.55</ele>
        <time>2021-11-17T10:09:49.572Z</time>
      </trkpt>
      <trkpt lat="47.89853" lon="-3.99854">
        <ele>-0.97</ele>
        <time>2021-11-17T10:09:53.573Z</time>
      </trkpt>
      <trkpt lat="47.8985" lon="-3.99842">
        <ele>0.3</ele>
        <time>2021-11-17T10:09:58.901Z</time>
      </trkpt>
      <trkpt lat="47.89848" lon="-3.99832">
        <ele>1.78</ele>
        <time>2021-11-17T10:10:03.414Z</time>
      </trkpt>
      <trkpt lat="47.89845" lon="-3.99821">
        <ele>2.68</ele>
        <time>2021-11-17T10:10:08.360Z</time>
      </trkpt>
      <trkpt lat="47.89841" lon="-3.99809">
        <ele>2.04</ele>
        <time>2021-11-17T10:10:13.337Z</time>
      </trkpt>
      <trkpt lat="47.89839" lon="-3.998">
        <ele>2.13</ele>
        <time>2021-11-17T10:10:17.357Z</time>
      </trkpt>
      <trkpt lat="47.89838" lon="-3.9979">
        <ele>2.11</ele>
        <time>2021-11-17T10:10:21.637Z</time>
      </trkpt>
      <trkpt lat="47.89837" lon="-3.99781">
        <ele>4.28</ele>
        <time>2021-11-17T10:10:25.718Z</time>
      </trkpt>
      <trkpt lat="47.89838" lon="-3.9977">
        <ele>2.77</ele>
        <time>2021-11-17T10:10:30.382Z</time>
      </trkpt>
      <trkpt lat="47.89839" lon="-3.9976">
        <ele>3.35</ele>
        <time>2021-11-17T10:10:34.619Z</time>
      </trkpt>
      <trkpt lat="47.8984" lon="-3.9975">
        <ele>5.91</ele>
        <time>2021-11-17T10:10:39.301Z</time>
      </trkpt>
      <trkpt lat="47.89842" lon="-3.99741">
        <ele>6.12</ele>
        <time>2021-11-17T10:10:43.321Z</time>
      </trkpt>
      <trkpt lat="47.89841" lon="-3.99733">
        <ele>5.96</ele>
        <time>2021-11-17T10:10:47.361Z</time>
      </trkpt>
      <trkpt lat="47.8984" lon="-3.99724">
        <ele>5.11</ele>
        <time>2021-11-17T10:10:51.372Z</time>
      </trkpt>
      <trkpt lat="47.89838" lon="-3.99715">
        <ele>5.63</ele>
        <time>2021-11-17T10:10:55.392Z</time>
      </trkpt>
      <trkpt lat="47.89837" lon="-3.99706">
        <ele>5.99</ele>
        <time>2021-11-17T10:10:59.416Z</time>
      </trkpt>
      <trkpt lat="47.89836" lon="-3.99695">
        <ele>5.75</ele>
        <time>2021-11-17T10:11:04.515Z</time>
      </trkpt>
      <trkpt lat="47.89836" lon="-3.99686">
        <ele>5.7</ele>
        <time>2021-11-17T10:11:08.655Z</time>
      </trkpt>
      <trkpt lat="47.89836" lon="-3.99678">
        <ele>5.49</ele>
        <time>2021-11-17T10:11:12.674Z</time>
      </trkpt>
      <trkpt lat="47.89836" lon="-3.9967">
        <ele>4.67</ele>
        <time>2021-11-17T10:11:16.680Z</time>
      </trkpt>
      <trkpt lat="47.89835" lon="-3.99659">
        <ele>4.16</ele>
        <time>2021-11-17T10:11:21.677Z</time>
      </trkpt>
      <trkpt lat="47.89834" lon="-3.9965">
        <ele>3.63</ele>
        <time>2021-11-17T10:11:25.716Z</time>
      </trkpt>
      <trkpt lat="47.89832" lon="-3.99639">
        <ele>3.78</ele>
        <time>2021-11-17T10:11:30.698Z</time>
      </trkpt>
      <trkpt lat="47.89831" lon="-3.9963">
        <ele>3.97</ele>
        <time>2021-11-17T10:11:34.738Z</time>
      </trkpt>
      <trkpt lat="47.8983" lon="-3.9962">
        <ele>3.15</ele>
        <time>2021-11-17T10:11:39.659Z</time>
      </trkpt>
      <trkpt lat="47.8983" lon="-3.99607">
        <ele>3.32</ele>
        <time>2021-11-17T10:11:44.618Z</time>
      </trkpt>
      <trkpt lat="47.8983" lon="-3.99595">
        <ele>2.66</ele>
        <time>2021-11-17T10:11:49.580Z</time>
      </trkpt>
      <trkpt lat="47.89832" lon="-3.99584">
        <ele>2.03</ele>
        <time>2021-11-17T10:11:54.500Z</time>
      </trkpt>
      <trkpt lat="47.89834" lon="-3.99572">
        <ele>2.02</ele>
        <time>2021-11-17T10:11:59.461Z</time>
      </trkpt>
      <trkpt lat="47.89836" lon="-3.99559">
        <ele>2.07</ele>
        <time>2021-11-17T10:12:04.405Z</time>
      </trkpt>
      <trkpt lat="47.89838" lon="-3.99551">
        <ele>1.95</ele>
        <time>2021-11-17T10:12:08.673Z</time>
      </trkpt>
      <trkpt lat="47.89839" lon="-3.99539">
        <ele>3.95</ele>
        <time>2021-11-17T10:12:13.599Z</time>
      </trkpt>
      <trkpt lat="47.8984" lon="-3.99528">
        <ele>4.3</ele>
        <time>2021-11-17T10:12:18.193Z</time>
      </trkpt>
      <trkpt lat="47.89841" lon="-3.99516">
        <ele>4.69</ele>
        <time>2021-11-17T10:12:23.114Z</time>
      </trkpt>
      <trkpt lat="47.89844" lon="-3.99505">
        <ele>6.27</ele>
        <time>2021-11-17T10:12:28.053Z</time>
      </trkpt>
      <trkpt lat="47.89847" lon="-3.99494">
        <ele>6.52</ele>
        <time>2021-11-17T10:12:33.015Z</time>
      </trkpt>
      <trkpt lat="47.89852" lon="-3.99487">
        <ele>4.12</ele>
        <time>2021-11-17T10:12:37.435Z</time>
      </trkpt>
      <trkpt lat="47.89857" lon="-3.9948">
        <ele>2.45</ele>
        <time>2021-11-17T10:12:42.000Z</time>
      </trkpt>
      <trkpt lat="47.89863" lon="-3.99474">
        <ele>3.56</ele>
        <time>2021-11-17T10:12:46.517Z</time>
      </trkpt>
      <trkpt lat="47.89869" lon="-3.99468">
        <ele>2.3</ele>
        <time>2021-11-17T10:12:51.416Z</time>
      </trkpt>
      <trkpt lat="47.89874" lon="-3.99462">
        <ele>-0.43</ele>
        <time>2021-11-17T10:12:55.517Z</time>
      </trkpt>
      <trkpt lat="47.89878" lon="-3.99455">
        <ele>1.9</ele>
        <time>2021-11-17T10:13:00.000Z</time>
      </trkpt>
      <trkpt lat="47.89883" lon="-3.99451">
        <ele>3.78</ele>
        <time>2021-11-17T10:13:04.698Z</time>
      </trkpt>
      <trkpt lat="47.89887" lon="-3.99446">
        <ele>3.76</ele>
        <time>2021-11-17T10:13:10.000Z</time>
      </trkpt>
      <trkpt lat="47.89885" lon="-3.99443">
        <ele>4.45</ele>
        <time>2021-11-17T10:13:15.000Z</time>
      </trkpt>
      <trkpt lat="47.89884" lon="-3.99441">
        <ele>3.66</ele>
        <time>2021-11-17T10:13:20.000Z</time>
      </trkpt>
      <trkpt lat="47.89884" lon="-3.99442">
        <ele>4.13</ele>
        <time>2021-11-17T10:13:32.000Z</time>
      </trkpt>
      <trkpt lat="47.89885" lon="-3.99441">
        <ele>3.79</ele>
        <time>2021-11-17T10:14:00.000Z</time>
      </trkpt>
      <trkpt lat="47.89887" lon="-3.99437">
        <ele>3.09</ele>
        <time>2021-11-17T10:14:04.599Z</time>
      </trkpt>
      <trkpt lat="47.89886" lon="-3.99429">
        <ele>3.67</ele>
        <time>2021-11-17T10:14:08.798Z</time>
      </trkpt>
      <trkpt lat="47.8988" lon="-3.99421">
        <ele>3.36</ele>
        <time>2021-11-17T10:14:13.000Z</time>
      </trkpt>
      <trkpt lat="47.89874" lon="-3.99414">
        <ele>3.58</ele>
        <time>2021-11-17T10:14:18.000Z</time>
      </trkpt>
      <trkpt lat="47.89869" lon="-3.99408">
        <ele>2.1</ele>
        <time>2021-11-17T10:14:22.420Z</time>
      </trkpt>
      <trkpt lat="47.89864" lon="-3.99403">
        <ele>1.48</ele>
        <time>2021-11-17T10:14:26.459Z</time>
      </trkpt>
      <trkpt lat="47.89858" lon="-3.99396">
        <ele>1.74</ele>
        <time>2021-11-17T10:14:31.390Z</time>
      </trkpt>
      <trkpt lat="47.89853" lon="-3.99392">
        <ele>1.23</ele>
        <time>2021-11-17T10:14:35.513Z</time>
      </trkpt>
      <trkpt lat="47.89847" lon="-3.99388">
        <ele>1.05</ele>
        <time>2021-11-17T10:14:40.472Z</time>
      </trkpt>
      <trkpt lat="47.89842" lon="-3.99381">
        <ele>1.61</ele>
        <time>2021-11-17T10:14:45.532Z</time>
      </trkpt>
      <trkpt lat="47.89836" lon="-3.99374">
        <ele>0.41</ele>
        <time>2021-11-17T10:14:50.514Z</time>
      </trkpt>
      <trkpt lat="47.89831" lon="-3.9937">
        <ele>0.74</ele>
        <time>2021-11-17T10:14:54.615Z</time>
      </trkpt>
      <trkpt lat="47.89825" lon="-3.99365">
        <ele>2.81</ele>
        <time>2021-11-17T10:14:59.534Z</time>
      </trkpt>
      <trkpt lat="47.8982" lon="-3.99361">
        <ele>4.69</ele>
        <time>2021-11-17T10:15:04.000Z</time>
      </trkpt>
      <trkpt lat="47.89819" lon="-3.9936">
        <ele>5.01</ele>
        <time>2021-11-17T10:15:09.000Z</time>
      </trkpt>
      <trkpt lat="47.8982" lon="-3.99361">
        <ele>5.1</ele>
        <time>2021-11-17T10:15:22.000Z</time>
      </trkpt>
      <trkpt lat="47.89819" lon="-3.9936">
        <ele>5.78</ele>
        <time>2021-11-17T10:15:50.000Z</time>
      </trkpt>
      <trkpt lat="47.89814" lon="-3.9936">
        <ele>5.86</ele>
        <time>2021-11-17T10:15:54.394Z</time>
      </trkpt>
      <trkpt lat="47.8981" lon="-3.99357">
        <ele>6.94</ele>
        <time>2021-11-17T10:15:58.598Z</time>
      </trkpt>
      <trkpt lat="47.89804" lon="-3.99355">
        <ele>10.16</ele>
        <time>2021-11-17T10:16:03.000Z</time>
      </trkpt>
      <trkpt lat="47.89798" lon="-3.99355">
        <ele>11.17</ele>
        <time>2021-11-17T10:16:07.417Z</time>
      </trkpt>
      <trkpt lat="47.89792" lon="-3.99352">
        <ele>11.23</ele>
        <time>2021-11-17T10:16:12.000Z</time>
      </trkpt>
      <trkpt lat="47.89786" lon="-3.99346">
        <ele>12.96</ele>
        <time>2021-11-17T10:16:16.578Z</time>
      </trkpt>
      <trkpt lat="47.8978" lon="-3.9934">
        <ele>13.74</ele>
        <time>2021-11-17T10:16:20.620Z</time>
      </trkpt>
      <trkpt lat="47.89775" lon="-3.99334">
        <ele>13.9</ele>
        <time>2021-11-17T10:16:24.645Z</time>
      </trkpt>
      <trkpt lat="47.8977" lon="-3.9933">
        <ele>12.66</ele>
        <time>2021-11-17T10:16:28.820Z</time>
      </trkpt>
      <trkpt lat="47.89762" lon="-3.99325">
        <ele>10.62</ele>
        <time>2021-11-17T10:16:33.722Z</time>
      </trkpt>
      <trkpt lat="47.89754" lon="-3.99319">
        <ele>10.32</ele>
        <time>2021-11-17T10:16:38.442Z</time>
      </trkpt>
      <trkpt lat="47.89748" lon="-3.99315">
        <ele>10.67</ele>
        <time>2021-11-17T10:16:42.531Z</time>
      </trkpt>
      <trkpt lat="47.89742" lon="-3.9931">
        <ele>12.74</ele>
        <time>2021-11-17T10:16:46.613Z</time>
      </trkpt>
      <trkpt lat="47.89736" lon="-3.99304">
        <ele>12.3</ele>
        <time>2021-11-17T10:16:51.574Z</time>
      </trkpt>
      <trkpt lat="47.89731" lon="-3.99306">
        <ele>11.57</ele>
        <time>2021-11-17T10:16:55.674Z</time>
      </trkpt>
      <trkpt lat="47.89726" lon="-3.99304">
        <ele>9.94</ele>
        <time>2021-11-17T10:17:00.373Z</time>
      </trkpt>
      <trkpt lat="47.89722" lon="-3.99301">
        <ele>12.36</ele>
        <time>2021-11-17T10:17:04.634Z</time>
      </trkpt>
      <trkpt lat="47.89718" lon="-3.99298">
        <ele>11.7</ele>
        <time>2021-11-17T10:17:09.000Z</time>
      </trkpt>
      <trkpt lat="47.8972" lon="-3.99298">
        <ele>11.56</ele>
        <time>2021-11-17T10:17:14.000Z</time>
      </trkpt>
      <trkpt lat="47.89718" lon="-3.99298">
        <ele>11.97</ele>
        <time>2021-11-17T10:17:25.883Z</time>
      </trkpt>
      <trkpt lat="47.89712" lon="-3.99294">
        <ele>14.05</ele>
        <time>2021-11-17T10:17:30.258Z</time>
      </trkpt>
      <trkpt lat="47.89709" lon="-3.99288">
        <ele>12.83</ele>
        <time>2021-11-17T10:17:34.398Z</time>
      </trkpt>
      <trkpt lat="47.89706" lon="-3.99282">
        <ele>12.02</ele>
        <time>2021-11-17T10:17:38.580Z</time>
      </trkpt>
      <trkpt lat="47.89705" lon="-3.99272">
        <ele>8.18</ele>
        <time>2021-11-17T10:17:43.519Z</time>
      </trkpt>
      <trkpt lat="47.89704" lon="-3.99263">
        <ele>8.58</ele>
        <time>2021-11-17T10:17:47.718Z</time>
      </trkpt>
      <trkpt lat="47.89704" lon="-3.99255">
        <ele>5.4</ele>
        <time>2021-11-17T10:17:51.821Z</time>
      </trkpt>
      <trkpt lat="47.89703" lon="-3.99249">
        <ele>4.06</ele>
        <time>2021-11-17T10:17:55.844Z</time>
      </trkpt>
      <trkpt lat="47.89701" lon="-3.9924">
        <ele>2.38</ele>
        <time>2021-11-17T10:17:59.894Z</time>
      </trkpt>
      <trkpt lat="47.89701" lon="-3.99231">
        <ele>1.31</ele>
        <time>2021-11-17T10:18:04.000Z</time>
      </trkpt>
      <trkpt lat="47.897" lon="-3.99222">
        <ele>-0.07</ele>
        <time>2021-11-17T10:18:08.434Z</time>
      </trkpt>
      <trkpt lat="47.897" lon="-3.99213">
        <ele>0.7</ele>
        <time>2021-11-17T10:18:12.532Z</time>
      </trkpt>
      <trkpt lat="47.89701" lon="-3.99203">
        <ele>0.51</ele>
        <time>2021-11-17T10:18:17.374Z</time>
      </trkpt>
      <trkpt lat="47.89702" lon="-3.99196">
        <ele>2.03</ele>
        <time>2021-11-17T10:18:21.694Z</time>
      </trkpt>
      <trkpt lat="47.89701" lon="-3.99194">
        <ele>3.89</ele>
        <time>2021-11-17T10:18:26.000Z</time>
      </trkpt>
      <trkpt lat="47.89701" lon="-3.99197">
        <ele>4.9</ele>
        <time>2021-11-17T10:18:42.000Z</time>
      </trkpt>
      <trkpt lat="47.89701" lon="-3.99198">
        <ele>6.42</ele>
        <time>2021-11-17T10:18:47.000Z</time>
      </trkpt>
      <trkpt lat="47.897" lon="-3.99196">
        <ele>5.81</ele>
        <time>2021-11-17T10:19:12.000Z</time>
      </trkpt>
      <trkpt lat="47.897" lon="-3.99192">
        <ele>5.78</ele>
        <time>2021-11-17T10:19:17.000Z</time>
      </trkpt>
      <trkpt lat="47.89699" lon="-3.9919">
        <ele>5.34</ele>
        <time>2021-11-17T10:19:22.000Z</time>
      </trkpt>
      <trkpt lat="47.89698" lon="-3.9919">
        <ele>5.99</ele>
        <time>2021-11-17T10:19:37.000Z</time>
      </trkpt>
      <trkpt lat="47.89698" lon="-3.99192">
        <ele>6.17</ele>
        <time>2021-11-17T10:19:42.000Z</time>
      </trkpt>
      <trkpt lat="47.89698" lon="-3.99191">
        <ele>6.85</ele>
        <time>2021-11-17T10:20:17.000Z</time>
      </trkpt>
      <trkpt lat="47.89701" lon="-3.9918">
        <ele>5.82</ele>
        <time>2021-11-17T10:20:22.000Z</time>
      </trkpt>
      <trkpt lat="47.89703" lon="-3.99173">
        <ele>5.12</ele>
        <time>2021-11-17T10:20:26.455Z</time>
      </trkpt>
      <trkpt lat="47.89704" lon="-3.99163">
        <ele>4.73</ele>
        <time>2021-11-17T10:20:31.000Z</time>
      </trkpt>
      <trkpt lat="47.89702" lon="-3.99159">
        <ele>4.93</ele>
        <time>2021-11-17T10:20:36.000Z</time>
      </trkpt>
      <trkpt lat="47.89701" lon="-3.9916">
        <ele>5.18</ele>
        <time>2021-11-17T10:20:43.000Z</time>
      </trkpt>
      <trkpt lat="47.89702" lon="-3.99159">
        <ele>5.22</ele>
        <time>2021-11-17T10:20:54.000Z</time>
      </trkpt>
      <trkpt lat="47.89704" lon="-3.99158">
        <ele>4.03</ele>
        <time>2021-11-17T10:21:24.000Z</time>
      </trkpt>
      <trkpt lat="47.89705" lon="-3.99154">
        <ele>3.44</ele>
        <time>2021-11-17T10:21:28.493Z</time>
      </trkpt>
      <trkpt lat="47.89707" lon="-3.99144">
        <ele>3.62</ele>
        <time>2021-11-17T10:21:33.075Z</time>
      </trkpt>
      <trkpt lat="47.89708" lon="-3.99134">
        <ele>3.73</ele>
        <time>2021-11-17T10:21:37.599Z</time>
      </trkpt>
      <trkpt lat="47.89709" lon="-3.99124">
        <ele>2.9</ele>
        <time>2021-11-17T10:21:41.696Z</time>
      </trkpt>
      <trkpt lat="47.8971" lon="-3.99114">
        <ele>2.03</ele>
        <time>2021-11-17T10:21:46.517Z</time>
      </trkpt>
      <trkpt lat="47.8971" lon="-3.99104">
        <ele>2.16</ele>
        <time>2021-11-17T10:21:51.000Z</time>
      </trkpt>
      <trkpt lat="47.8971" lon="-3.99095">
        <ele>1.45</ele>
        <time>2021-11-17T10:21:55.059Z</time>
      </trkpt>
      <trkpt lat="47.89712" lon="-3.99085">
        <ele>0.62</ele>
        <time>2021-11-17T10:21:59.966Z</time>
      </trkpt>
      <trkpt lat="47.89713" lon="-3.99077">
        <ele>-0.69</ele>
        <time>2021-11-17T10:22:04.000Z</time>
      </trkpt>
      <trkpt lat="47.89715" lon="-3.99065">
        <ele>-0.47</ele>
        <time>2021-11-17T10:22:08.852Z</time>
      </trkpt>
      <trkpt lat="47.89716" lon="-3.99056">
        <ele>-0.93</ele>
        <time>2021-11-17T10:22:12.854Z</time>
      </trkpt>
      <trkpt lat="47.89717" lon="-3.99048">
        <ele>-1.82</ele>
        <time>2021-11-17T10:22:16.896Z</time>
      </trkpt>
      <trkpt lat="47.89718" lon="-3.99039">
        <ele>-0.59</ele>
        <time>2021-11-17T10:22:21.000Z</time>
      </trkpt>
      <trkpt lat="47.89718" lon="-3.99029">
        <ele>-0.29</ele>
        <time>2021-11-17T10:22:25.274Z</time>
      </trkpt>
      <trkpt lat="47.89718" lon="-3.99018">
        <ele>0.22</ele>
        <time>2021-11-17T10:22:30.155Z</time>
      </trkpt>
      <trkpt lat="47.89721" lon="-3.99013">
        <ele>2.46</ele>
        <time>2021-11-17T10:22:35.000Z</time>
      </trkpt>
      <trkpt lat="47.89721" lon="-3.99017">
        <ele>2.64</ele>
        <time>2021-11-17T10:22:40.000Z</time>
      </trkpt>
      <trkpt lat="47.89721" lon="-3.99019">
        <ele>2.23</ele>
        <time>2021-11-17T10:22:53.000Z</time>
      </trkpt>
      <trkpt lat="47.8972" lon="-3.9902">
        <ele>2.52</ele>
        <time>2021-11-17T10:23:04.000Z</time>
      </trkpt>
      <trkpt lat="47.8972" lon="-3.99018">
        <ele>2.51</ele>
        <time>2021-11-17T10:23:28.000Z</time>
      </trkpt>
      <trkpt lat="47.89724" lon="-3.99013">
        <ele>0.96</ele>
        <time>2021-11-17T10:23:32.296Z</time>
      </trkpt>
      <trkpt lat="47.8973" lon="-3.99011">
        <ele>1.58</ele>
        <time>2021-11-17T10:23:37.257Z</time>
      </trkpt>
      <trkpt lat="47.89737" lon="-3.99012">
        <ele>2.28</ele>
        <time>2021-11-17T10:23:42.178Z</time>
      </trkpt>
      <trkpt lat="47.89744" lon="-3.99016">
        <ele>2.82</ele>
        <time>2021-11-17T10:23:47.000Z</time>
      </trkpt>
      <trkpt lat="47.89749" lon="-3.9902">
        <ele>3.8</ele>
        <time>2021-11-17T10:23:51.361Z</time>
      </trkpt>
      <trkpt lat="47.89756" lon="-3.99025">
        <ele>6.04</ele>
        <time>2021-11-17T10:23:56.000Z</time>
      </trkpt>
      <trkpt lat="47.89762" lon="-3.99032">
        <ele>6.63</ele>
        <time>2021-11-17T10:24:00.653Z</time>
      </trkpt>
      <trkpt lat="47.89768" lon="-3.99037">
        <ele>3.98</ele>
        <time>2021-11-17T10:24:05.000Z</time>
      </trkpt>
      <trkpt lat="47.89774" lon="-3.99044">
        <ele>3</ele>
        <time>2021-11-17T10:24:09.437Z</time>
      </trkpt>
      <trkpt lat="47.89781" lon="-3.99051">
        <ele>2.25</ele>
        <time>2021-11-17T10:24:14.696Z</time>
      </trkpt>
      <trkpt lat="47.89787" lon="-3.99058">
        <ele>2.84</ele>
        <time>2021-11-17T10:24:19.516Z</time>
      </trkpt>
      <trkpt lat="47.89793" lon="-3.99066">
        <ele>2.41</ele>
        <time>2021-11-17T10:24:24.358Z</time>
      </trkpt>
      <trkpt lat="47.898" lon="-3.99071">
        <ele>2.37</ele>
        <time>2021-11-17T10:24:28.879Z</time>
      </trkpt>
      <trkpt lat="47.89807" lon="-3.99074">
        <ele>2.81</ele>
        <time>2021-11-17T10:24:33.717Z</time>
      </trkpt>
      <trkpt lat="47.89814" lon="-3.99074">
        <ele>0.16</ele>
        <time>2021-11-17T10:24:38.521Z</time>
      </trkpt>
      <trkpt lat="47.89822" lon="-3.9907">
        <ele>0.08</ele>
        <time>2021-11-17T10:24:43.359Z</time>
      </trkpt>
      <trkpt lat="47.8983" lon="-3.99063">
        <ele>-0.06</ele>
        <time>2021-11-17T10:24:48.240Z</time>
      </trkpt>
      <trkpt lat="47.89836" lon="-3.99059">
        <ele>-0.78</ele>
        <time>2021-11-17T10:24:52.621Z</time>
      </trkpt>
      <trkpt lat="47.89843" lon="-3.99056">
        <ele>-1.11</ele>
        <time>2021-11-17T10:24:57.496Z</time>
      </trkpt>
      <trkpt lat="47.89849" lon="-3.9905">
        <ele>-0.86</ele>
        <time>2021-11-17T10:25:02.392Z</time>
      </trkpt>
      <trkpt lat="47.89855" lon="-3.99045">
        <ele>-0.35</ele>
        <time>2021-11-17T10:25:06.853Z</time>
      </trkpt>
      <trkpt lat="47.8986" lon="-3.99038">
        <ele>0.06</ele>
        <time>2021-11-17T10:25:11.000Z</time>
      </trkpt>
      <trkpt lat="47.89866" lon="-3.99031">
        <ele>-0.34</ele>
        <time>2021-11-17T10:25:16.000Z</time>
      </trkpt>
      <trkpt lat="47.89872" lon="-3.99024">
        <ele>-0.31</ele>
        <time>2021-11-17T10:25:20.575Z</time>
      </trkpt>
      <trkpt lat="47.89878" lon="-3.9902">
        <ele>-1.4</ele>
        <time>2021-11-17T10:25:24.797Z</time>
      </trkpt>
      <trkpt lat="47.89884" lon="-3.99016">
        <ele>-0.46</ele>
        <time>2021-11-17T10:25:29.395Z</time>
      </trkpt>
      <trkpt lat="47.89892" lon="-3.99012">
        <ele>-2.14</ele>
        <time>2021-11-17T10:25:34.698Z</time>
      </trkpt>
      <trkpt lat="47.89898" lon="-3.99007">
        <ele>0.03</ele>
        <time>2021-11-17T10:25:39.218Z</time>
      </trkpt>
      <trkpt lat="47.89905" lon="-3.99005">
        <ele>1.39</ele>
        <time>2021-11-17T10:25:43.622Z</time>
      </trkpt>
      <trkpt lat="47.89912" lon="-3.99002">
        <ele>1.5</ele>
        <time>2021-11-17T10:25:48.519Z</time>
      </trkpt>
      <trkpt lat="47.89919" lon="-3.98999">
        <ele>0.71</ele>
        <time>2021-11-17T10:25:53.439Z</time>
      </trkpt>
      <trkpt lat="47.89926" lon="-3.98997">
        <ele>1.76</ele>
        <time>2021-11-17T10:25:57.881Z</time>
      </trkpt>
      <trkpt lat="47.89933" lon="-3.98995">
        <ele>1.31</ele>
        <time>2021-11-17T10:26:02.731Z</time>
      </trkpt>
      <trkpt lat="47.8994" lon="-3.9899">
        <ele>1.35</ele>
        <time>2021-11-17T10:26:07.612Z</time>
      </trkpt>
      <trkpt lat="47.89947" lon="-3.98983">
        <ele>1.2</ele>
        <time>2021-11-17T10:26:12.513Z</time>
      </trkpt>
      <trkpt lat="47.89953" lon="-3.98976">
        <ele>-0.7</ele>
        <time>2021-11-17T10:26:17.455Z</time>
      </trkpt>
      <trkpt lat="47.89958" lon="-3.98967">
        <ele>-3.15</ele>
        <time>2021-11-17T10:26:22.378Z</time>
      </trkpt>
      <trkpt lat="47.89961" lon="-3.98959">
        <ele>-1.21</ele>
        <time>2021-11-17T10:26:26.676Z</time>
      </trkpt>
      <trkpt lat="47.89966" lon="-3.9895">
        <ele>-0.44</ele>
        <time>2021-11-17T10:26:31.275Z</time>
      </trkpt>
      <trkpt lat="47.89969" lon="-3.98943">
        <ele>-1.14</ele>
        <time>2021-11-17T10:26:35.698Z</time>
      </trkpt>
      <trkpt lat="47.89975" lon="-3.98935">
        <ele>-0.45</ele>
        <time>2021-11-17T10:26:40.720Z</time>
      </trkpt>
      <trkpt lat="47.89979" lon="-3.98927">
        <ele>-0.29</ele>
        <time>2021-11-17T10:26:45.618Z</time>
      </trkpt>
      <trkpt lat="47.89982" lon="-3.98917">
        <ele>-0.38</ele>
        <time>2021-11-17T10:26:50.266Z</time>
      </trkpt>
      <trkpt lat="47.89985" lon="-3.98909">
        <ele>1.11</ele>
        <time>2021-11-17T10:26:54.659Z</time>
      </trkpt>
      <trkpt lat="47.8999" lon="-3.98901">
        <ele>-0.29</ele>
        <time>2021-11-17T10:26:59.221Z</time>
      </trkpt>
      <trkpt lat="47.89995" lon="-3.98901">
        <ele>0.46</ele>
        <time>2021-11-17T10:27:03.250Z</time>
      </trkpt>
      <trkpt lat="47.90003" lon="-3.98907">
        <ele>1.78</ele>
        <time>2021-11-17T10:27:08.232Z</time>
      </trkpt>
      <trkpt lat="47.90008" lon="-3.98912">
        <ele>0.96</ele>
        <time>2021-11-17T10:27:12.255Z</time>
      </trkpt>
      <trkpt lat="47.90013" lon="-3.98916">
        <ele>2.31</ele>
        <time>2021-11-17T10:27:16.295Z</time>
      </trkpt>
      <trkpt lat="47.9002" lon="-3.98921">
        <ele>2.33</ele>
        <time>2021-11-17T10:27:21.236Z</time>
      </trkpt>
      <trkpt lat="47.90026" lon="-3.98922">
        <ele>1.08</ele>
        <time>2021-11-17T10:27:25.275Z</time>
      </trkpt>
      <trkpt lat="47.90032" lon="-3.98922">
        <ele>0.18</ele>
        <time>2021-11-17T10:27:29.314Z</time>
      </trkpt>
      <trkpt lat="47.90039" lon="-3.98922">
        <ele>0.13</ele>
        <time>2021-11-17T10:27:33.839Z</time>
      </trkpt>
      <trkpt lat="47.90045" lon="-3.98924">
        <ele>2.34</ele>
        <time>2021-11-17T10:27:38.418Z</time>
      </trkpt>
      <trkpt lat="47.90053" lon="-3.98926">
        <ele>3.92</ele>
        <time>2021-11-17T10:27:43.417Z</time>
      </trkpt>
      <trkpt lat="47.90059" lon="-3.98927">
        <ele>3.09</ele>
        <time>2021-11-17T10:27:47.458Z</time>
      </trkpt>
      <trkpt lat="47.90066" lon="-3.98929">
        <ele>1.53</ele>
        <time>2021-11-17T10:27:52.399Z</time>
      </trkpt>
      <trkpt lat="47.90073" lon="-3.98932">
        <ele>0.58</ele>
        <time>2021-11-17T10:27:57.382Z</time>
      </trkpt>
      <trkpt lat="47.90081" lon="-3.98936">
        <ele>2.85</ele>
        <time>2021-11-17T10:28:02.360Z</time>
      </trkpt>
      <trkpt lat="47.90088" lon="-3.98937">
        <ele>1.08</ele>
        <time>2021-11-17T10:28:06.885Z</time>
      </trkpt>
      <trkpt lat="47.90095" lon="-3.98936">
        <ele>1.66</ele>
        <time>2021-11-17T10:28:11.320Z</time>
      </trkpt>
      <trkpt lat="47.90101" lon="-3.98936">
        <ele>2.79</ele>
        <time>2021-11-17T10:28:15.691Z</time>
      </trkpt>
      <trkpt lat="47.90109" lon="-3.98932">
        <ele>2.7</ele>
        <time>2021-11-17T10:28:20.192Z</time>
      </trkpt>
      <trkpt lat="47.90116" lon="-3.98934">
        <ele>1.43</ele>
        <time>2021-11-17T10:28:25.094Z</time>
      </trkpt>
      <trkpt lat="47.90122" lon="-3.98935">
        <ele>3.16</ele>
        <time>2021-11-17T10:28:29.453Z</time>
      </trkpt>
      <trkpt lat="47.90129" lon="-3.98936">
        <ele>2.75</ele>
        <time>2021-11-17T10:28:34.000Z</time>
      </trkpt>
      <trkpt lat="47.90137" lon="-3.98937">
        <ele>1.85</ele>
        <time>2021-11-17T10:28:39.000Z</time>
      </trkpt>
      <trkpt lat="47.90145" lon="-3.98939">
        <ele>2.31</ele>
        <time>2021-11-17T10:28:43.776Z</time>
      </trkpt>
      <trkpt lat="47.90154" lon="-3.98939">
        <ele>2.32</ele>
        <time>2021-11-17T10:28:48.697Z</time>
      </trkpt>
      <trkpt lat="47.90161" lon="-3.98943">
        <ele>3.95</ele>
        <time>2021-11-17T10:28:53.600Z</time>
      </trkpt>
      <trkpt lat="47.90168" lon="-3.98944">
        <ele>0.98</ele>
        <time>2021-11-17T10:28:58.594Z</time>
      </trkpt>
      <trkpt lat="47.90175" lon="-3.98944">
        <ele>-0.33</ele>
        <time>2021-11-17T10:29:03.540Z</time>
      </trkpt>
      <trkpt lat="47.90182" lon="-3.98944">
        <ele>-1.69</ele>
        <time>2021-11-17T10:29:08.521Z</time>
      </trkpt>
      <trkpt lat="47.9019" lon="-3.98947">
        <ele>0.24</ele>
        <time>2021-11-17T10:29:13.540Z</time>
      </trkpt>
      <trkpt lat="47.90196" lon="-3.98948">
        <ele>1.68</ele>
        <time>2021-11-17T10:29:17.564Z</time>
      </trkpt>
      <trkpt lat="47.90202" lon="-3.98952">
        <ele>-0.27</ele>
        <time>2021-11-17T10:29:22.000Z</time>
      </trkpt>
      <trkpt lat="47.90207" lon="-3.98957">
        <ele>-2.02</ele>
        <time>2021-11-17T10:29:26.681Z</time>
      </trkpt>
      <trkpt lat="47.90211" lon="-3.98963">
        <ele>-2.06</ele>
        <time>2021-11-17T10:29:30.692Z</time>
      </trkpt>
      <trkpt lat="47.90216" lon="-3.98973">
        <ele>-0.92</ele>
        <time>2021-11-17T10:29:35.652Z</time>
      </trkpt>
      <trkpt lat="47.90253" lon="-3.99">
        <ele>6.62</ele>
        <time>2021-11-17T10:32:40.000Z</time>
      </trkpt>
      <trkpt lat="47.90254" lon="-3.99">
        <ele>3.89</ele>
        <time>2021-11-17T10:32:59.000Z</time>
      </trkpt>
      <trkpt lat="47.90254" lon="-3.98999">
        <ele>3.26</ele>
        <time>2021-11-17T10:33:04.000Z</time>
      </trkpt>
      <trkpt lat="47.90253" lon="-3.98999">
        <ele>3.14</ele>
        <time>2021-11-17T10:33:30.000Z</time>
      </trkpt>
      <trkpt lat="47.90249" lon="-3.98998">
        <ele>1.9</ele>
        <time>2021-11-17T10:33:35.000Z</time>
      </trkpt>
      <trkpt lat="47.90244" lon="-3.98994">
        <ele>1.53</ele>
        <time>2021-11-17T10:33:39.461Z</time>
      </trkpt>
      <trkpt lat="47.90238" lon="-3.9899">
        <ele>1.83</ele>
        <time>2021-11-17T10:33:43.839Z</time>
      </trkpt>
      <trkpt lat="47.90234" lon="-3.98986">
        <ele>1.47</ele>
        <time>2021-11-17T10:33:48.142Z</time>
      </trkpt>
      <trkpt lat="47.90229" lon="-3.98982">
        <ele>2.11</ele>
        <time>2021-11-17T10:33:52.456Z</time>
      </trkpt>
      <trkpt lat="47.90225" lon="-3.98978">
        <ele>3.01</ele>
        <time>2021-11-17T10:33:56.780Z</time>
      </trkpt>
      <trkpt lat="47.9022" lon="-3.98973">
        <ele>2.63</ele>
        <time>2021-11-17T10:34:01.032Z</time>
      </trkpt>
      <trkpt lat="47.90216" lon="-3.98968">
        <ele>2.61</ele>
        <time>2021-11-17T10:34:05.213Z</time>
      </trkpt>
      <trkpt lat="47.90212" lon="-3.98963">
        <ele>2.63</ele>
        <time>2021-11-17T10:34:09.456Z</time>
      </trkpt>
      <trkpt lat="47.90208" lon="-3.98958">
        <ele>4.87</ele>
        <time>2021-11-17T10:34:13.617Z</time>
      </trkpt>
      <trkpt lat="47.90203" lon="-3.98956">
        <ele>5.41</ele>
        <time>2021-11-17T10:34:18.579Z</time>
      </trkpt>
      <trkpt lat="47.90199" lon="-3.98954">
        <ele>5.37</ele>
        <time>2021-11-17T10:34:22.701Z</time>
      </trkpt>
      <trkpt lat="47.90192" lon="-3.98946">
        <ele>5.4</ele>
        <time>2021-11-17T10:34:27.598Z</time>
      </trkpt>
      <trkpt lat="47.90186" lon="-3.98942">
        <ele>5.3</ele>
        <time>2021-11-17T10:34:31.603Z</time>
      </trkpt>
      <trkpt lat="47.90179" lon="-3.9894">
        <ele>5.26</ele>
        <time>2021-11-17T10:34:36.524Z</time>
      </trkpt>
      <trkpt lat="47.90171" lon="-3.98938">
        <ele>5.27</ele>
        <time>2021-11-17T10:34:40.824Z</time>
      </trkpt>
      <trkpt lat="47.90164" lon="-3.98935">
        <ele>5.25</ele>
        <time>2021-11-17T10:34:45.797Z</time>
      </trkpt>
      <trkpt lat="47.90157" lon="-3.98934">
        <ele>5.22</ele>
        <time>2021-11-17T10:34:50.000Z</time>
      </trkpt>
      <trkpt lat="47.9015" lon="-3.98934">
        <ele>5.14</ele>
        <time>2021-11-17T10:34:54.503Z</time>
      </trkpt>
      <trkpt lat="47.90143" lon="-3.98934">
        <ele>5.15</ele>
        <time>2021-11-17T10:34:59.782Z</time>
      </trkpt>
      <trkpt lat="47.90137" lon="-3.98934">
        <ele>5.15</ele>
        <time>2021-11-17T10:35:03.796Z</time>
      </trkpt>
      <trkpt lat="47.90129" lon="-3.98933">
        <ele>5.12</ele>
        <time>2021-11-17T10:35:08.698Z</time>
      </trkpt>
      <trkpt lat="47.90122" lon="-3.98932">
        <ele>2.94</ele>
        <time>2021-11-17T10:35:13.000Z</time>
      </trkpt>
      <trkpt lat="47.90115" lon="-3.98933">
        <ele>1.63</ele>
        <time>2021-11-17T10:35:17.537Z</time>
      </trkpt>
      <trkpt lat="47.90108" lon="-3.98934">
        <ele>1.65</ele>
        <time>2021-11-17T10:35:21.558Z</time>
      </trkpt>
      <trkpt lat="47.90101" lon="-3.98932">
        <ele>0.6</ele>
        <time>2021-11-17T10:35:26.443Z</time>
      </trkpt>
      <trkpt lat="47.90094" lon="-3.98933">
        <ele>3.39</ele>
        <time>2021-11-17T10:35:31.000Z</time>
      </trkpt>
      <trkpt lat="47.90087" lon="-3.98934">
        <ele>4.19</ele>
        <time>2021-11-17T10:35:36.000Z</time>
      </trkpt>
      <trkpt lat="47.9008" lon="-3.98932">
        <ele>2.29</ele>
        <time>2021-11-17T10:35:41.000Z</time>
      </trkpt>
      <trkpt lat="47.90074" lon="-3.98931">
        <ele>2.13</ele>
        <time>2021-11-17T10:35:45.303Z</time>
      </trkpt>
      <trkpt lat="47.90068" lon="-3.98927">
        <ele>1.81</ele>
        <time>2021-11-17T10:35:50.000Z</time>
      </trkpt>
      <trkpt lat="47.90061" lon="-3.98925">
        <ele>3.39</ele>
        <time>2021-11-17T10:35:55.000Z</time>
      </trkpt>
      <trkpt lat="47.90055" lon="-3.9892">
        <ele>3.15</ele>
        <time>2021-11-17T10:36:00.000Z</time>
      </trkpt>
      <trkpt lat="47.90047" lon="-3.98918">
        <ele>5.48</ele>
        <time>2021-11-17T10:36:05.000Z</time>
      </trkpt>
      <trkpt lat="47.90038" lon="-3.98917">
        <ele>6.23</ele>
        <time>2021-11-17T10:36:10.000Z</time>
      </trkpt>
      <trkpt lat="47.9003" lon="-3.98915">
        <ele>6.14</ele>
        <time>2021-11-17T10:36:15.000Z</time>
      </trkpt>
      <trkpt lat="47.90022" lon="-3.98914">
        <ele>6.15</ele>
        <time>2021-11-17T10:36:19.580Z</time>
      </trkpt>
      <trkpt lat="47.90013" lon="-3.98912">
        <ele>6.12</ele>
        <time>2021-11-17T10:36:25.000Z</time>
      </trkpt>
      <trkpt lat="47.90006" lon="-3.98908">
        <ele>6.11</ele>
        <time>2021-11-17T10:36:29.839Z</time>
      </trkpt>
      <trkpt lat="47.9" lon="-3.98904">
        <ele>6.06</ele>
        <time>2021-11-17T10:36:33.859Z</time>
      </trkpt>
      <trkpt lat="47.89994" lon="-3.989">
        <ele>6.12</ele>
        <time>2021-11-17T10:36:38.401Z</time>
      </trkpt>
      <trkpt lat="47.89986" lon="-3.98902">
        <ele>6.14</ele>
        <time>2021-11-17T10:36:43.323Z</time>
      </trkpt>
      <trkpt lat="47.89981" lon="-3.9891">
        <ele>6.19</ele>
        <time>2021-11-17T10:36:47.681Z</time>
      </trkpt>
      <trkpt lat="47.89977" lon="-3.9892">
        <ele>6.21</ele>
        <time>2021-11-17T10:36:52.504Z</time>
      </trkpt>
      <trkpt lat="47.89974" lon="-3.98932">
        <ele>6.23</ele>
        <time>2021-11-17T10:36:57.353Z</time>
      </trkpt>
      <trkpt lat="47.8997" lon="-3.98942">
        <ele>6.16</ele>
        <time>2021-11-17T10:37:01.895Z</time>
      </trkpt>
      <trkpt lat="47.89964" lon="-3.9895">
        <ele>3.7</ele>
        <time>2021-11-17T10:37:06.782Z</time>
      </trkpt>
      <trkpt lat="47.89959" lon="-3.98958">
        <ele>5.15</ele>
        <time>2021-11-17T10:37:11.681Z</time>
      </trkpt>
      <trkpt lat="47.89954" lon="-3.98966">
        <ele>3.66</ele>
        <time>2021-11-17T10:37:16.622Z</time>
      </trkpt>
      <trkpt lat="47.89949" lon="-3.98974">
        <ele>1.83</ele>
        <time>2021-11-17T10:37:21.558Z</time>
      </trkpt>
      <trkpt lat="47.89944" lon="-3.9898">
        <ele>1.23</ele>
        <time>2021-11-17T10:37:25.619Z</time>
      </trkpt>
      <trkpt lat="47.89938" lon="-3.98985">
        <ele>2.07</ele>
        <time>2021-11-17T10:37:30.577Z</time>
      </trkpt>
      <trkpt lat="47.89932" lon="-3.98989">
        <ele>0.43</ele>
        <time>2021-11-17T10:37:34.879Z</time>
      </trkpt>
      <trkpt lat="47.89925" lon="-3.98993">
        <ele>2.09</ele>
        <time>2021-11-17T10:37:40.000Z</time>
      </trkpt>
      <trkpt lat="47.89918" lon="-3.98996">
        <ele>1.13</ele>
        <time>2021-11-17T10:37:44.880Z</time>
      </trkpt>
      <trkpt lat="47.89911" lon="-3.98999">
        <ele>0.88</ele>
        <time>2021-11-17T10:37:49.512Z</time>
      </trkpt>
      <trkpt lat="47.89904" lon="-3.99003">
        <ele>1.87</ele>
        <time>2021-11-17T10:37:55.000Z</time>
      </trkpt>
      <trkpt lat="47.89897" lon="-3.99005">
        <ele>2.57</ele>
        <time>2021-11-17T10:37:59.251Z</time>
      </trkpt>
      <trkpt lat="47.8989" lon="-3.99009">
        <ele>2.82</ele>
        <time>2021-11-17T10:38:04.000Z</time>
      </trkpt>
      <trkpt lat="47.89883" lon="-3.99013">
        <ele>4.05</ele>
        <time>2021-11-17T10:38:08.273Z</time>
      </trkpt>
      <trkpt lat="47.89876" lon="-3.99017">
        <ele>4.63</ele>
        <time>2021-11-17T10:38:13.000Z</time>
      </trkpt>
      <trkpt lat="47.89871" lon="-3.99022">
        <ele>5.64</ele>
        <time>2021-11-17T10:38:17.581Z</time>
      </trkpt>
      <trkpt lat="47.89864" lon="-3.99028">
        <ele>5.61</ele>
        <time>2021-11-17T10:38:22.476Z</time>
      </trkpt>
      <trkpt lat="47.89858" lon="-3.99034">
        <ele>6.25</ele>
        <time>2021-11-17T10:38:27.437Z</time>
      </trkpt>
      <trkpt lat="47.89852" lon="-3.99041">
        <ele>5.16</ele>
        <time>2021-11-17T10:38:32.000Z</time>
      </trkpt>
      <trkpt lat="47.89846" lon="-3.99049">
        <ele>5.39</ele>
        <time>2021-11-17T10:38:37.000Z</time>
      </trkpt>
      <trkpt lat="47.8984" lon="-3.99054">
        <ele>5.45</ele>
        <time>2021-11-17T10:38:42.000Z</time>
      </trkpt>
      <trkpt lat="47.89832" lon="-3.99058">
        <ele>6.15</ele>
        <time>2021-11-17T10:38:47.000Z</time>
      </trkpt>
      <trkpt lat="47.89826" lon="-3.99062">
        <ele>5.83</ele>
        <time>2021-11-17T10:38:52.000Z</time>
      </trkpt>
      <trkpt lat="47.89819" lon="-3.99066">
        <ele>6</ele>
        <time>2021-11-17T10:38:57.000Z</time>
      </trkpt>
      <trkpt lat="47.89813" lon="-3.9907">
        <ele>5.72</ele>
        <time>2021-11-17T10:39:02.000Z</time>
      </trkpt>
      <trkpt lat="47.89806" lon="-3.9907">
        <ele>4.88</ele>
        <time>2021-11-17T10:39:06.646Z</time>
      </trkpt>
      <trkpt lat="47.898" lon="-3.9907">
        <ele>6.41</ele>
        <time>2021-11-17T10:39:10.773Z</time>
      </trkpt>
      <trkpt lat="47.89795" lon="-3.99065">
        <ele>6.1</ele>
        <time>2021-11-17T10:39:15.000Z</time>
      </trkpt>
      <trkpt lat="47.89789" lon="-3.99055">
        <ele>5.73</ele>
        <time>2021-11-17T10:39:19.699Z</time>
      </trkpt>
      <trkpt lat="47.89785" lon="-3.99047">
        <ele>5.8</ele>
        <time>2021-11-17T10:39:23.718Z</time>
      </trkpt>
      <trkpt lat="47.89781" lon="-3.9904">
        <ele>6.03</ele>
        <time>2021-11-17T10:39:27.796Z</time>
      </trkpt>
      <trkpt lat="47.89776" lon="-3.99035">
        <ele>4.95</ele>
        <time>2021-11-17T10:39:31.856Z</time>
      </trkpt>
      <trkpt lat="47.89772" lon="-3.9903">
        <ele>5.78</ele>
        <time>2021-11-17T10:39:35.899Z</time>
      </trkpt>
      <trkpt lat="47.89768" lon="-3.99026">
        <ele>5.61</ele>
        <time>2021-11-17T10:39:40.000Z</time>
      </trkpt>
      <trkpt lat="47.89762" lon="-3.99019">
        <ele>5.77</ele>
        <time>2021-11-17T10:39:44.512Z</time>
      </trkpt>
      <trkpt lat="47.89755" lon="-3.99015">
        <ele>6.24</ele>
        <time>2021-11-17T10:39:49.457Z</time>
      </trkpt>
      <trkpt lat="47.8975" lon="-3.99013">
        <ele>6.38</ele>
        <time>2021-11-17T10:39:53.506Z</time>
      </trkpt>
      <trkpt lat="47.89744" lon="-3.99013">
        <ele>6.93</ele>
        <time>2021-11-17T10:39:57.538Z</time>
      </trkpt>
      <trkpt lat="47.89737" lon="-3.9901">
        <ele>4.75</ele>
        <time>2021-11-17T10:40:02.525Z</time>
      </trkpt>
      <trkpt lat="47.89731" lon="-3.99009">
        <ele>4</ele>
        <time>2021-11-17T10:40:07.000Z</time>
      </trkpt>
      <trkpt lat="47.89723" lon="-3.99009">
        <ele>5.6</ele>
        <time>2021-11-17T10:40:11.647Z</time>
      </trkpt>
      <trkpt lat="47.89718" lon="-3.9901">
        <ele>8.02</ele>
        <time>2021-11-17T10:40:16.000Z</time>
      </trkpt>
      <trkpt lat="47.89713" lon="-3.99012">
        <ele>8.55</ele>
        <time>2021-11-17T10:40:21.000Z</time>
      </trkpt>
      <trkpt lat="47.89713" lon="-3.99015">
        <ele>7.53</ele>
        <time>2021-11-17T10:40:26.000Z</time>
      </trkpt>
      <trkpt lat="47.89714" lon="-3.99016">
        <ele>7.6</ele>
        <time>2021-11-17T10:40:31.000Z</time>
      </trkpt>
      <trkpt lat="47.89714" lon="-3.99016">
        <ele>7.61</ele>
        <time>2021-11-17T10:40:37.000Z</time>
      </trkpt>
      <trkpt lat="47.89715" lon="-3.99016">
        <ele>7.02</ele>
        <time>2021-11-17T10:40:51.000Z</time>
      </trkpt>
      <trkpt lat="47.89719" lon="-3.99015">
        <ele>6.5</ele>
        <time>2021-11-17T10:40:56.000Z</time>
      </trkpt>
      <trkpt lat="47.8972" lon="-3.99014">
        <ele>6.72</ele>
        <time>2021-11-17T10:41:05.000Z</time>
      </trkpt>
      <trkpt lat="47.89718" lon="-3.99014">
        <ele>6.84</ele>
        <time>2021-11-17T10:41:46.000Z</time>
      </trkpt>
      <trkpt lat="47.89716" lon="-3.99015">
        <ele>7.18</ele>
        <time>2021-11-17T10:41:51.000Z</time>
      </trkpt>
      <trkpt lat="47.89714" lon="-3.99018">
        <ele>7.38</ele>
        <time>2021-11-17T10:41:56.000Z</time>
      </trkpt>
      <trkpt lat="47.89713" lon="-3.99024">
        <ele>7.79</ele>
        <time>2021-11-17T10:42:00.101Z</time>
      </trkpt>
      <trkpt lat="47.89712" lon="-3.99032">
        <ele>8.16</ele>
        <time>2021-11-17T10:42:04.521Z</time>
      </trkpt>
      <trkpt lat="47.89712" lon="-3.99042">
        <ele>7.97</ele>
        <time>2021-11-17T10:42:08.747Z</time>
      </trkpt>
      <trkpt lat="47.89712" lon="-3.9905">
        <ele>8.34</ele>
        <time>2021-11-17T10:42:12.801Z</time>
      </trkpt>
      <trkpt lat="47.89711" lon="-3.99059">
        <ele>7.41</ele>
        <time>2021-11-17T10:42:16.940Z</time>
      </trkpt>
      <trkpt lat="47.8971" lon="-3.99068">
        <ele>8.37</ele>
        <time>2021-11-17T10:42:21.153Z</time>
      </trkpt>
      <trkpt lat="47.89709" lon="-3.99078">
        <ele>9.46</ele>
        <time>2021-11-17T10:42:25.233Z</time>
      </trkpt>
      <trkpt lat="47.89709" lon="-3.99087">
        <ele>8.27</ele>
        <time>2021-11-17T10:42:29.352Z</time>
      </trkpt>
      <trkpt lat="47.8971" lon="-3.99094">
        <ele>5.83</ele>
        <time>2021-11-17T10:42:33.740Z</time>
      </trkpt>
      <trkpt lat="47.89705" lon="-3.99099">
        <ele>10.53</ele>
        <time>2021-11-17T10:42:37.875Z</time>
      </trkpt>
      <trkpt lat="47.89705" lon="-3.99111">
        <ele>9.23</ele>
        <time>2021-11-17T10:42:42.475Z</time>
      </trkpt>
      <trkpt lat="47.89705" lon="-3.99121">
        <ele>9.2</ele>
        <time>2021-11-17T10:42:46.878Z</time>
      </trkpt>
      <trkpt lat="47.89705" lon="-3.99131">
        <ele>7.84</ele>
        <time>2021-11-17T10:42:51.562Z</time>
      </trkpt>
      <trkpt lat="47.89704" lon="-3.99139">
        <ele>6.75</ele>
        <time>2021-11-17T10:42:55.598Z</time>
      </trkpt>
      <trkpt lat="47.89704" lon="-3.99148">
        <ele>6.79</ele>
        <time>2021-11-17T10:42:59.679Z</time>
      </trkpt>
      <trkpt lat="47.89703" lon="-3.99157">
        <ele>7.65</ele>
        <time>2021-11-17T10:43:03.783Z</time>
      </trkpt>
      <trkpt lat="47.89702" lon="-3.99166">
        <ele>8.39</ele>
        <time>2021-11-17T10:43:08.000Z</time>
      </trkpt>
      <trkpt lat="47.89701" lon="-3.99174">
        <ele>8.37</ele>
        <time>2021-11-17T10:43:12.542Z</time>
      </trkpt>
      <trkpt lat="47.897" lon="-3.99183">
        <ele>6.49</ele>
        <time>2021-11-17T10:43:17.000Z</time>
      </trkpt>
      <trkpt lat="47.89698" lon="-3.9919">
        <ele>6.25</ele>
        <time>2021-11-17T10:43:21.601Z</time>
      </trkpt>
      <trkpt lat="47.89695" lon="-3.99197">
        <ele>6.68</ele>
        <time>2021-11-17T10:43:26.571Z</time>
      </trkpt>
      <trkpt lat="47.89692" lon="-3.99202">
        <ele>7.42</ele>
        <time>2021-11-17T10:43:31.000Z</time>
      </trkpt>
      <trkpt lat="47.89691" lon="-3.99205">
        <ele>7.19</ele>
        <time>2021-11-17T10:43:36.000Z</time>
      </trkpt>
      <trkpt lat="47.89687" lon="-3.99208">
        <ele>6.33</ele>
        <time>2021-11-17T10:43:40.834Z</time>
      </trkpt>
      <trkpt lat="47.89683" lon="-3.99206">
        <ele>8.9</ele>
        <time>2021-11-17T10:43:45.000Z</time>
      </trkpt>
      <trkpt lat="47.89678" lon="-3.99207">
        <ele>8.7</ele>
        <time>2021-11-17T10:43:49.457Z</time>
      </trkpt>
      <trkpt lat="47.89674" lon="-3.99215">
        <ele>7.8</ele>
        <time>2021-11-17T10:43:53.802Z</time>
      </trkpt>
      <trkpt lat="47.8967" lon="-3.99224">
        <ele>9.68</ele>
        <time>2021-11-17T10:43:59.000Z</time>
      </trkpt>
      <trkpt lat="47.89666" lon="-3.99231">
        <ele>9.07</ele>
        <time>2021-11-17T10:44:04.000Z</time>
      </trkpt>
      <trkpt lat="47.89661" lon="-3.99233">
        <ele>9.14</ele>
        <time>2021-11-17T10:44:08.579Z</time>
      </trkpt>
      <trkpt lat="47.89656" lon="-3.99237">
        <ele>8.88</ele>
        <time>2021-11-17T10:44:12.894Z</time>
      </trkpt>
      <trkpt lat="47.89653" lon="-3.99241">
        <ele>8.75</ele>
        <time>2021-11-17T10:44:17.000Z</time>
      </trkpt>
      <trkpt lat="47.89653" lon="-3.99249">
        <ele>9.09</ele>
        <time>2021-11-17T10:44:22.581Z</time>
      </trkpt>
      <trkpt lat="47.8965" lon="-3.99253">
        <ele>9.78</ele>
        <time>2021-11-17T10:44:26.980Z</time>
      </trkpt>
      <trkpt lat="47.89646" lon="-3.99252">
        <ele>8.68</ele>
        <time>2021-11-17T10:44:31.392Z</time>
      </trkpt>
      <trkpt lat="47.89642" lon="-3.99244">
        <ele>7.43</ele>
        <time>2021-11-17T10:44:35.836Z</time>
      </trkpt>
      <trkpt lat="47.89639" lon="-3.99237">
        <ele>7.38</ele>
        <time>2021-11-17T10:44:40.178Z</time>
      </trkpt>
      <trkpt lat="47.89634" lon="-3.99232">
        <ele>6.47</ele>
        <time>2021-11-17T10:44:44.718Z</time>
      </trkpt>
      <trkpt lat="47.89629" lon="-3.99231">
        <ele>6.14</ele>
        <time>2021-11-17T10:44:48.739Z</time>
      </trkpt>
      <trkpt lat="47.89625" lon="-3.99228">
        <ele>5.74</ele>
        <time>2021-11-17T10:44:53.858Z</time>
      </trkpt>
      <trkpt lat="47.89621" lon="-3.99224">
        <ele>4.72</ele>
        <time>2021-11-17T10:44:58.857Z</time>
      </trkpt>
      <trkpt lat="47.89619" lon="-3.99222">
        <ele>6.08</ele>
        <time>2021-11-17T10:45:03.000Z</time>
      </trkpt>
      <trkpt lat="47.89618" lon="-3.99219">
        <ele>7.47</ele>
        <time>2021-11-17T10:45:13.861Z</time>
      </trkpt>
      <trkpt lat="47.89613" lon="-3.99219">
        <ele>5.8</ele>
        <time>2021-11-17T10:45:18.000Z</time>
      </trkpt>
      <trkpt lat="47.89607" lon="-3.99219">
        <ele>7.07</ele>
        <time>2021-11-17T10:45:22.682Z</time>
      </trkpt>
      <trkpt lat="47.89601" lon="-3.99217">
        <ele>6.63</ele>
        <time>2021-11-17T10:45:26.720Z</time>
      </trkpt>
      <trkpt lat="47.89595" lon="-3.99215">
        <ele>8.06</ele>
        <time>2021-11-17T10:45:31.740Z</time>
      </trkpt>
      <trkpt lat="47.89588" lon="-3.9921">
        <ele>8.73</ele>
        <time>2021-11-17T10:45:36.722Z</time>
      </trkpt>
      <trkpt lat="47.89582" lon="-3.99205">
        <ele>9.32</ele>
        <time>2021-11-17T10:45:41.732Z</time>
      </trkpt>
      <trkpt lat="47.89575" lon="-3.99202">
        <ele>8.45</ele>
        <time>2021-11-17T10:45:45.840Z</time>
      </trkpt>
      <trkpt lat="47.8957" lon="-3.99199">
        <ele>8.87</ele>
        <time>2021-11-17T10:45:49.874Z</time>
      </trkpt>
      <trkpt lat="47.89564" lon="-3.99196">
        <ele>8.39</ele>
        <time>2021-11-17T10:45:53.893Z</time>
      </trkpt>
      <trkpt lat="47.89557" lon="-3.99192">
        <ele>7.42</ele>
        <time>2021-11-17T10:45:58.874Z</time>
      </trkpt>
      <trkpt lat="47.89551" lon="-3.99186">
        <ele>8.28</ele>
        <time>2021-11-17T10:46:03.821Z</time>
      </trkpt>
      <trkpt lat="47.89545" lon="-3.9918">
        <ele>10.43</ele>
        <time>2021-11-17T10:46:08.805Z</time>
      </trkpt>
      <trkpt lat="47.8954" lon="-3.99173">
        <ele>10.52</ele>
        <time>2021-11-17T10:46:13.795Z</time>
      </trkpt>
      <trkpt lat="47.89534" lon="-3.99168">
        <ele>9.17</ele>
        <time>2021-11-17T10:46:17.806Z</time>
      </trkpt>
      <trkpt lat="47.89527" lon="-3.99164">
        <ele>8.07</ele>
        <time>2021-11-17T10:46:22.761Z</time>
      </trkpt>
      <trkpt lat="47.89521" lon="-3.99162">
        <ele>7.22</ele>
        <time>2021-11-17T10:46:26.778Z</time>
      </trkpt>
      <trkpt lat="47.89514" lon="-3.99163">
        <ele>6.58</ele>
        <time>2021-11-17T10:46:30.805Z</time>
      </trkpt>
      <trkpt lat="47.89508" lon="-3.99163">
        <ele>6.5</ele>
        <time>2021-11-17T10:46:34.821Z</time>
      </trkpt>
      <trkpt lat="47.89501" lon="-3.99163">
        <ele>7.71</ele>
        <time>2021-11-17T10:46:39.803Z</time>
      </trkpt>
      <trkpt lat="47.89494" lon="-3.99164">
        <ele>6.47</ele>
        <time>2021-11-17T10:46:43.809Z</time>
      </trkpt>
      <trkpt lat="47.89488" lon="-3.99165">
        <ele>7.25</ele>
        <time>2021-11-17T10:46:47.813Z</time>
      </trkpt>
      <trkpt lat="47.89482" lon="-3.99166">
        <ele>7.05</ele>
        <time>2021-11-17T10:46:51.831Z</time>
      </trkpt>
      <trkpt lat="47.89476" lon="-3.99167">
        <ele>7.7</ele>
        <time>2021-11-17T10:46:55.857Z</time>
      </trkpt>
      <trkpt lat="47.8947" lon="-3.99165">
        <ele>7.9</ele>
        <time>2021-11-17T10:46:59.895Z</time>
      </trkpt>
      <trkpt lat="47.89463" lon="-3.99161">
        <ele>7.91</ele>
        <time>2021-11-17T10:47:04.875Z</time>
      </trkpt>
      <trkpt lat="47.89456" lon="-3.99156">
        <ele>7.39</ele>
        <time>2021-11-17T10:47:09.855Z</time>
      </trkpt>
      <trkpt lat="47.8945" lon="-3.99149">
        <ele>7.06</ele>
        <time>2021-11-17T10:47:14.855Z</time>
      </trkpt>
      <trkpt lat="47.89444" lon="-3.99142">
        <ele>6.31</ele>
        <time>2021-11-17T10:47:19.858Z</time>
      </trkpt>
      <trkpt lat="47.89439" lon="-3.99136">
        <ele>7.56</ele>
        <time>2021-11-17T10:47:24.000Z</time>
      </trkpt>
      <trkpt lat="47.89434" lon="-3.99131">
        <ele>6.56</ele>
        <time>2021-11-17T10:47:28.396Z</time>
      </trkpt>
      <trkpt lat="47.8943" lon="-3.99125">
        <ele>7.68</ele>
        <time>2021-11-17T10:47:32.500Z</time>
      </trkpt>
      <trkpt lat="47.89425" lon="-3.99117">
        <ele>7.35</ele>
        <time>2021-11-17T10:47:37.377Z</time>
      </trkpt>
      <trkpt lat="47.89419" lon="-3.9911">
        <ele>7.6</ele>
        <time>2021-11-17T10:47:42.000Z</time>
      </trkpt>
      <trkpt lat="47.89413" lon="-3.99103">
        <ele>7.68</ele>
        <time>2021-11-17T10:47:47.000Z</time>
      </trkpt>
      <trkpt lat="47.89408" lon="-3.99096">
        <ele>7.47</ele>
        <time>2021-11-17T10:47:51.462Z</time>
      </trkpt>
      <trkpt lat="47.89403" lon="-3.99091">
        <ele>6.7</ele>
        <time>2021-11-17T10:47:55.500Z</time>
      </trkpt>
      <trkpt lat="47.89398" lon="-3.99086">
        <ele>5.96</ele>
        <time>2021-11-17T10:48:00.424Z</time>
      </trkpt>
      <trkpt lat="47.89392" lon="-3.99082">
        <ele>6.9</ele>
        <time>2021-11-17T10:48:04.439Z</time>
      </trkpt>
      <trkpt lat="47.89387" lon="-3.99077">
        <ele>6.23</ele>
        <time>2021-11-17T10:48:08.452Z</time>
      </trkpt>
      <trkpt lat="47.8938" lon="-3.99073">
        <ele>6.66</ele>
        <time>2021-11-17T10:48:13.000Z</time>
      </trkpt>
      <trkpt lat="47.89372" lon="-3.99069">
        <ele>7.77</ele>
        <time>2021-11-17T10:48:17.894Z</time>
      </trkpt>
      <trkpt lat="47.89365" lon="-3.99064">
        <ele>8.66</ele>
        <time>2021-11-17T10:48:22.877Z</time>
      </trkpt>
      <trkpt lat="47.89359" lon="-3.99058">
        <ele>8.11</ele>
        <time>2021-11-17T10:48:27.857Z</time>
      </trkpt>
      <trkpt lat="47.89355" lon="-3.99051">
        <ele>7.38</ele>
        <time>2021-11-17T10:48:32.795Z</time>
      </trkpt>
      <trkpt lat="47.89352" lon="-3.99042">
        <ele>5.51</ele>
        <time>2021-11-17T10:48:37.720Z</time>
      </trkpt>
      <trkpt lat="47.89347" lon="-3.99033">
        <ele>4.77</ele>
        <time>2021-11-17T10:48:42.718Z</time>
      </trkpt>
      <trkpt lat="47.89343" lon="-3.99023">
        <ele>4.33</ele>
        <time>2021-11-17T10:48:47.724Z</time>
      </trkpt>
      <trkpt lat="47.89341" lon="-3.99012">
        <ele>4.94</ele>
        <time>2021-11-17T10:48:52.737Z</time>
      </trkpt>
      <trkpt lat="47.89337" lon="-3.99005">
        <ele>4.92</ele>
        <time>2021-11-17T10:48:57.000Z</time>
      </trkpt>
      <trkpt lat="47.89331" lon="-3.98996">
        <ele>4.6</ele>
        <time>2021-11-17T10:49:01.785Z</time>
      </trkpt>
      <trkpt lat="47.89327" lon="-3.98987">
        <ele>4.35</ele>
        <time>2021-11-17T10:49:06.279Z</time>
      </trkpt>
      <trkpt lat="47.89324" lon="-3.98979">
        <ele>4.85</ele>
        <time>2021-11-17T10:49:10.381Z</time>
      </trkpt>
      <trkpt lat="47.89322" lon="-3.98971">
        <ele>4.48</ele>
        <time>2021-11-17T10:49:14.825Z</time>
      </trkpt>
      <trkpt lat="47.89326" lon="-3.98966">
        <ele>2.11</ele>
        <time>2021-11-17T10:49:19.292Z</time>
      </trkpt>
      <trkpt lat="47.89327" lon="-3.98962">
        <ele>3.43</ele>
        <time>2021-11-17T10:49:23.734Z</time>
      </trkpt>
      <trkpt lat="47.89325" lon="-3.98959">
        <ele>4.42</ele>
        <time>2021-11-17T10:49:28.000Z</time>
      </trkpt>
      <trkpt lat="47.89325" lon="-3.98956">
        <ele>4.88</ele>
        <time>2021-11-17T10:49:33.000Z</time>
      </trkpt>
      <trkpt lat="47.89329" lon="-3.98953">
        <ele>5.13</ele>
        <time>2021-11-17T10:49:37.654Z</time>
      </trkpt>
      <trkpt lat="47.89332" lon="-3.98944">
        <ele>4.43</ele>
        <time>2021-11-17T10:49:42.000Z</time>
      </trkpt>
      <trkpt lat="47.89336" lon="-3.98936">
        <ele>3.84</ele>
        <time>2021-11-17T10:49:46.439Z</time>
      </trkpt>
      <trkpt lat="47.89338" lon="-3.98928">
        <ele>3.8</ele>
        <time>2021-11-17T10:49:50.496Z</time>
      </trkpt>
      <trkpt lat="47.89338" lon="-3.98919">
        <ele>2.9</ele>
        <time>2021-11-17T10:49:54.675Z</time>
      </trkpt>
      <trkpt lat="47.89334" lon="-3.98918">
        <ele>6.76</ele>
        <time>2021-11-17T10:49:59.000Z</time>
      </trkpt>
      <trkpt lat="47.89332" lon="-3.98908">
        <ele>6.71</ele>
        <time>2021-11-17T10:50:03.260Z</time>
      </trkpt>
      <trkpt lat="47.8933" lon="-3.98904">
        <ele>6.65</ele>
        <time>2021-11-17T10:50:07.639Z</time>
      </trkpt>
      <trkpt lat="47.89328" lon="-3.98897">
        <ele>8.57</ele>
        <time>2021-11-17T10:50:12.421Z</time>
      </trkpt>
      <trkpt lat="47.89329" lon="-3.98887">
        <ele>8.78</ele>
        <time>2021-11-17T10:50:17.000Z</time>
      </trkpt>
      <trkpt lat="47.89323" lon="-3.98882">
        <ele>8.87</ele>
        <time>2021-11-17T10:50:22.000Z</time>
      </trkpt>
      <trkpt lat="47.89321" lon="-3.98884">
        <ele>8.8</ele>
        <time>2021-11-17T10:50:27.000Z</time>
      </trkpt>
      <trkpt lat="47.89321" lon="-3.98885">
        <ele>8.88</ele>
        <time>2021-11-17T10:50:32.000Z</time>
      </trkpt>
      <trkpt lat="47.8932" lon="-3.98886">
        <ele>8.9</ele>
        <time>2021-11-17T10:50:39.793Z</time>
      </trkpt>
      <trkpt lat="47.89314" lon="-3.9888">
        <ele>8.91</ele>
        <time>2021-11-17T10:50:44.460Z</time>
      </trkpt>
      <trkpt lat="47.89309" lon="-3.98875">
        <ele>8.95</ele>
        <time>2021-11-17T10:50:48.641Z</time>
      </trkpt>
      <trkpt lat="47.89304" lon="-3.98871">
        <ele>8.98</ele>
        <time>2021-11-17T10:50:52.796Z</time>
      </trkpt>
      <trkpt lat="47.89297" lon="-3.98868">
        <ele>9</ele>
        <time>2021-11-17T10:50:57.456Z</time>
      </trkpt>
      <trkpt lat="47.89292" lon="-3.98864">
        <ele>8.96</ele>
        <time>2021-11-17T10:51:01.463Z</time>
      </trkpt>
      <trkpt lat="47.89287" lon="-3.98862">
        <ele>8.89</ele>
        <time>2021-11-17T10:51:05.507Z</time>
      </trkpt>
      <trkpt lat="47.89281" lon="-3.9886">
        <ele>8.84</ele>
        <time>2021-11-17T10:51:09.565Z</time>
      </trkpt>
      <trkpt lat="47.89275" lon="-3.98856">
        <ele>6.58</ele>
        <time>2021-11-17T10:51:14.000Z</time>
      </trkpt>
      <trkpt lat="47.89269" lon="-3.98853">
        <ele>6.05</ele>
        <time>2021-11-17T10:51:18.342Z</time>
      </trkpt>
      <trkpt lat="47.89263" lon="-3.9885">
        <ele>7.53</ele>
        <time>2021-11-17T10:51:22.512Z</time>
      </trkpt>
      <trkpt lat="47.89259" lon="-3.98847">
        <ele>7.54</ele>
        <time>2021-11-17T10:51:26.610Z</time>
      </trkpt>
      <trkpt lat="47.89254" lon="-3.98844">
        <ele>8.01</ele>
        <time>2021-11-17T10:51:30.753Z</time>
      </trkpt>
      <trkpt lat="47.89248" lon="-3.9884">
        <ele>7.81</ele>
        <time>2021-11-17T10:51:34.893Z</time>
      </trkpt>
      <trkpt lat="47.89244" lon="-3.98836">
        <ele>7.95</ele>
        <time>2021-11-17T10:51:39.033Z</time>
      </trkpt>
      <trkpt lat="47.89239" lon="-3.98833">
        <ele>8.05</ele>
        <time>2021-11-17T10:51:43.154Z</time>
      </trkpt>
      <trkpt lat="47.89234" lon="-3.98828">
        <ele>8.42</ele>
        <time>2021-11-17T10:51:47.278Z</time>
      </trkpt>
      <trkpt lat="47.89229" lon="-3.98823">
        <ele>8.42</ele>
        <time>2021-11-17T10:51:51.874Z</time>
      </trkpt>
      <trkpt lat="47.89224" lon="-3.98819">
        <ele>7.16</ele>
        <time>2021-11-17T10:51:56.000Z</time>
      </trkpt>
      <trkpt lat="47.89219" lon="-3.98813">
        <ele>6.8</ele>
        <time>2021-11-17T10:52:00.523Z</time>
      </trkpt>
      <trkpt lat="47.89215" lon="-3.98809">
        <ele>6.99</ele>
        <time>2021-11-17T10:52:04.643Z</time>
      </trkpt>
      <trkpt lat="47.89209" lon="-3.98805">
        <ele>7.36</ele>
        <time>2021-11-17T10:52:08.740Z</time>
      </trkpt>
      <trkpt lat="47.89204" lon="-3.98802">
        <ele>6.85</ele>
        <time>2021-11-17T10:52:12.759Z</time>
      </trkpt>
      <trkpt lat="47.89198" lon="-3.98799">
        <ele>6.71</ele>
        <time>2021-11-17T10:52:16.788Z</time>
      </trkpt>
      <trkpt lat="47.89193" lon="-3.98795">
        <ele>7.17</ele>
        <time>2021-11-17T10:52:20.868Z</time>
      </trkpt>
      <trkpt lat="47.89187" lon="-3.98792">
        <ele>6.85</ele>
        <time>2021-11-17T10:52:25.506Z</time>
      </trkpt>
      <trkpt lat="47.89182" lon="-3.98788">
        <ele>7.06</ele>
        <time>2021-11-17T10:52:29.618Z</time>
      </trkpt>
      <trkpt lat="47.89177" lon="-3.98784">
        <ele>7.3</ele>
        <time>2021-11-17T10:52:33.759Z</time>
      </trkpt>
      <trkpt lat="47.89171" lon="-3.98782">
        <ele>7.23</ele>
        <time>2021-11-17T10:52:38.000Z</time>
      </trkpt>
      <trkpt lat="47.89165" lon="-3.98779">
        <ele>7.18</ele>
        <time>2021-11-17T10:52:43.000Z</time>
      </trkpt>
      <trkpt lat="47.89159" lon="-3.98776">
        <ele>6.26</ele>
        <time>2021-11-17T10:52:47.511Z</time>
      </trkpt>
      <trkpt lat="47.89153" lon="-3.98774">
        <ele>7.24</ele>
        <time>2021-11-17T10:52:51.602Z</time>
      </trkpt>
      <trkpt lat="47.89147" lon="-3.98772">
        <ele>6.41</ele>
        <time>2021-11-17T10:52:55.759Z</time>
      </trkpt>
      <trkpt lat="47.89142" lon="-3.9877">
        <ele>6.32</ele>
        <time>2021-11-17T10:52:59.859Z</time>
      </trkpt>
      <trkpt lat="47.89136" lon="-3.98769">
        <ele>6.24</ele>
        <time>2021-11-17T10:53:04.523Z</time>
      </trkpt>
      <trkpt lat="47.8913" lon="-3.98767">
        <ele>6.29</ele>
        <time>2021-11-17T10:53:09.000Z</time>
      </trkpt>
      <trkpt lat="47.89123" lon="-3.98765">
        <ele>6.25</ele>
        <time>2021-11-17T10:53:13.882Z</time>
      </trkpt>
      <trkpt lat="47.89117" lon="-3.98764">
        <ele>6.28</ele>
        <time>2021-11-17T10:53:18.535Z</time>
      </trkpt>
      <trkpt lat="47.89111" lon="-3.98762">
        <ele>6.29</ele>
        <time>2021-11-17T10:53:22.632Z</time>
      </trkpt>
      <trkpt lat="47.89105" lon="-3.98759">
        <ele>6.32</ele>
        <time>2021-11-17T10:53:26.797Z</time>
      </trkpt>
      <trkpt lat="47.89099" lon="-3.98754">
        <ele>6.32</ele>
        <time>2021-11-17T10:53:32.000Z</time>
      </trkpt>
      <trkpt lat="47.89094" lon="-3.9875">
        <ele>6.36</ele>
        <time>2021-11-17T10:53:36.215Z</time>
      </trkpt>
      <trkpt lat="47.8909" lon="-3.98745">
        <ele>6.38</ele>
        <time>2021-11-17T10:53:40.361Z</time>
      </trkpt>
      <trkpt lat="47.89085" lon="-3.9874">
        <ele>6.33</ele>
        <time>2021-11-17T10:53:44.457Z</time>
      </trkpt>
      <trkpt lat="47.89081" lon="-3.98734">
        <ele>6.4</ele>
        <time>2021-11-17T10:53:48.515Z</time>
      </trkpt>
      <trkpt lat="47.89077" lon="-3.98727">
        <ele>6.36</ele>
        <time>2021-11-17T10:53:52.636Z</time>
      </trkpt>
      <trkpt lat="47.89074" lon="-3.9872">
        <ele>7.41</ele>
        <time>2021-11-17T10:53:56.665Z</time>
      </trkpt>
      <trkpt lat="47.89069" lon="-3.98714">
        <ele>7.83</ele>
        <time>2021-11-17T10:54:00.744Z</time>
      </trkpt>
      <trkpt lat="47.89064" lon="-3.98707">
        <ele>7.61</ele>
        <time>2021-11-17T10:54:05.346Z</time>
      </trkpt>
      <trkpt lat="47.89059" lon="-3.98702">
        <ele>7.01</ele>
        <time>2021-11-17T10:54:10.000Z</time>
      </trkpt>
      <trkpt lat="47.89053" lon="-3.98697">
        <ele>7</ele>
        <time>2021-11-17T10:54:15.000Z</time>
      </trkpt>
      <trkpt lat="47.89047" lon="-3.98696">
        <ele>7.69</ele>
        <time>2021-11-17T10:54:19.154Z</time>
      </trkpt>
      <trkpt lat="47.89042" lon="-3.98702">
        <ele>8.29</ele>
        <time>2021-11-17T10:54:23.820Z</time>
      </trkpt>
      <trkpt lat="47.89038" lon="-3.98712">
        <ele>8.15</ele>
        <time>2021-11-17T10:54:28.437Z</time>
      </trkpt>
      <trkpt lat="47.89035" lon="-3.98722">
        <ele>8.65</ele>
        <time>2021-11-17T10:54:33.057Z</time>
      </trkpt>
      <trkpt lat="47.89031" lon="-3.9873">
        <ele>9.3</ele>
        <time>2021-11-17T10:54:37.717Z</time>
      </trkpt>
      <trkpt lat="47.89028" lon="-3.98736">
        <ele>9.94</ele>
        <time>2021-11-17T10:54:41.864Z</time>
      </trkpt>
      <trkpt lat="47.89026" lon="-3.98745">
        <ele>10.22</ele>
        <time>2021-11-17T10:54:46.308Z</time>
      </trkpt>
      <trkpt lat="47.89023" lon="-3.98751">
        <ele>10.2</ele>
        <time>2021-11-17T10:54:50.606Z</time>
      </trkpt>
      <trkpt lat="47.89019" lon="-3.98756">
        <ele>10.34</ele>
        <time>2021-11-17T10:54:54.902Z</time>
      </trkpt>
      <trkpt lat="47.89014" lon="-3.98759">
        <ele>9.99</ele>
        <time>2021-11-17T10:54:59.627Z</time>
      </trkpt>
      <trkpt lat="47.8901" lon="-3.98767">
        <ele>10.01</ele>
        <time>2021-11-17T10:55:03.793Z</time>
      </trkpt>
      <trkpt lat="47.89008" lon="-3.98774">
        <ele>9.96</ele>
        <time>2021-11-17T10:55:07.932Z</time>
      </trkpt>
      <trkpt lat="47.89005" lon="-3.98782">
        <ele>10.01</ele>
        <time>2021-11-17T10:55:12.634Z</time>
      </trkpt>
      <trkpt lat="47.89003" lon="-3.98788">
        <ele>9.72</ele>
        <time>2021-11-17T10:55:17.000Z</time>
      </trkpt>
      <trkpt lat="47.89" lon="-3.98796">
        <ele>9.74</ele>
        <time>2021-11-17T10:55:21.417Z</time>
      </trkpt>
      <trkpt lat="47.88998" lon="-3.98803">
        <ele>9.83</ele>
        <time>2021-11-17T10:55:25.658Z</time>
      </trkpt>
      <trkpt lat="47.88995" lon="-3.98813">
        <ele>9.87</ele>
        <time>2021-11-17T10:55:31.000Z</time>
      </trkpt>
      <trkpt lat="47.88993" lon="-3.98822">
        <ele>9.89</ele>
        <time>2021-11-17T10:55:35.877Z</time>
      </trkpt>
      <trkpt lat="47.88991" lon="-3.98831">
        <ele>9.99</ele>
        <time>2021-11-17T10:55:40.645Z</time>
      </trkpt>
      <trkpt lat="47.88988" lon="-3.98839">
        <ele>11.4</ele>
        <time>2021-11-17T10:55:44.901Z</time>
      </trkpt>
      <trkpt lat="47.88984" lon="-3.98845">
        <ele>11.67</ele>
        <time>2021-11-17T10:55:49.000Z</time>
      </trkpt>
      <trkpt lat="47.88981" lon="-3.98851">
        <ele>11.84</ele>
        <time>2021-11-17T10:55:53.504Z</time>
      </trkpt>
      <trkpt lat="47.88978" lon="-3.98858">
        <ele>11.88</ele>
        <time>2021-11-17T10:55:57.712Z</time>
      </trkpt>
      <trkpt lat="47.88975" lon="-3.98864">
        <ele>11.84</ele>
        <time>2021-11-17T10:56:02.000Z</time>
      </trkpt>
      <trkpt lat="47.88972" lon="-3.98872">
        <ele>11.82</ele>
        <time>2021-11-17T10:56:06.114Z</time>
      </trkpt>
      <trkpt lat="47.88969" lon="-3.9888">
        <ele>11.94</ele>
        <time>2021-11-17T10:56:11.000Z</time>
      </trkpt>
      <trkpt lat="47.88966" lon="-3.98888">
        <ele>11.95</ele>
        <time>2021-11-17T10:56:15.621Z</time>
      </trkpt>
      <trkpt lat="47.88964" lon="-3.98896">
        <ele>11.93</ele>
        <time>2021-11-17T10:56:19.742Z</time>
      </trkpt>
      <trkpt lat="47.88962" lon="-3.98904">
        <ele>11.88</ele>
        <time>2021-11-17T10:56:23.878Z</time>
      </trkpt>
      <trkpt lat="47.88962" lon="-3.98914">
        <ele>11.85</ele>
        <time>2021-11-17T10:56:29.000Z</time>
      </trkpt>
      <trkpt lat="47.88962" lon="-3.98925">
        <ele>11.89</ele>
        <time>2021-11-17T10:56:33.701Z</time>
      </trkpt>
      <trkpt lat="47.88963" lon="-3.98934">
        <ele>11.98</ele>
        <time>2021-11-17T10:56:37.802Z</time>
      </trkpt>
      <trkpt lat="47.88962" lon="-3.98942">
        <ele>12.08</ele>
        <time>2021-11-17T10:56:41.867Z</time>
      </trkpt>
      <trkpt lat="47.88963" lon="-3.98952">
        <ele>12.06</ele>
        <time>2021-11-17T10:56:46.572Z</time>
      </trkpt>
      <trkpt lat="47.88964" lon="-3.9896">
        <ele>12.14</ele>
        <time>2021-11-17T10:56:50.712Z</time>
      </trkpt>
      <trkpt lat="47.88963" lon="-3.98969">
        <ele>13.38</ele>
        <time>2021-11-17T10:56:54.838Z</time>
      </trkpt>
      <trkpt lat="47.88963" lon="-3.98977">
        <ele>12.37</ele>
        <time>2021-11-17T10:56:59.000Z</time>
      </trkpt>
      <trkpt lat="47.88962" lon="-3.98986">
        <ele>12.2</ele>
        <time>2021-11-17T10:57:03.602Z</time>
      </trkpt>
      <trkpt lat="47.88962" lon="-3.98994">
        <ele>12.12</ele>
        <time>2021-11-17T10:57:07.781Z</time>
      </trkpt>
      <trkpt lat="47.88959" lon="-3.99004">
        <ele>10.91</ele>
        <time>2021-11-17T10:57:12.856Z</time>
      </trkpt>
      <trkpt lat="47.88954" lon="-3.99011">
        <ele>11.34</ele>
        <time>2021-11-17T10:57:17.440Z</time>
      </trkpt>
      <trkpt lat="47.88949" lon="-3.99012">
        <ele>11.55</ele>
        <time>2021-11-17T10:57:21.564Z</time>
      </trkpt>
      <trkpt lat="47.88943" lon="-3.99014">
        <ele>12.37</ele>
        <time>2021-11-17T10:57:25.866Z</time>
      </trkpt>
      <trkpt lat="47.88937" lon="-3.99015">
        <ele>12.63</ele>
        <time>2021-11-17T10:57:30.541Z</time>
      </trkpt>
      <trkpt lat="47.88932" lon="-3.99014">
        <ele>13.34</ele>
        <time>2021-11-17T10:57:35.000Z</time>
      </trkpt>
      <trkpt lat="47.88926" lon="-3.9901">
        <ele>13.5</ele>
        <time>2021-11-17T10:57:39.597Z</time>
      </trkpt>
      <trkpt lat="47.88921" lon="-3.99004">
        <ele>13.75</ele>
        <time>2021-11-17T10:57:43.737Z</time>
      </trkpt>
      <trkpt lat="47.88916" lon="-3.98996">
        <ele>13.84</ele>
        <time>2021-11-17T10:57:48.740Z</time>
      </trkpt>
      <trkpt lat="47.88911" lon="-3.98989">
        <ele>14.45</ele>
        <time>2021-11-17T10:57:53.457Z</time>
      </trkpt>
      <trkpt lat="47.88907" lon="-3.98983">
        <ele>14.25</ele>
        <time>2021-11-17T10:57:57.683Z</time>
      </trkpt>
      <trkpt lat="47.88903" lon="-3.98976">
        <ele>14.53</ele>
        <time>2021-11-17T10:58:02.000Z</time>
      </trkpt>
      <trkpt lat="47.88898" lon="-3.98969">
        <ele>14.07</ele>
        <time>2021-11-17T10:58:06.205Z</time>
      </trkpt>
      <trkpt lat="47.88892" lon="-3.98962">
        <ele>14.4</ele>
        <time>2021-11-17T10:58:10.722Z</time>
      </trkpt>
      <trkpt lat="47.88887" lon="-3.98957">
        <ele>13.9</ele>
        <time>2021-11-17T10:58:14.797Z</time>
      </trkpt>
      <trkpt lat="47.88882" lon="-3.98954">
        <ele>13.81</ele>
        <time>2021-11-17T10:58:19.000Z</time>
      </trkpt>
      <trkpt lat="47.88877" lon="-3.9895">
        <ele>13</ele>
        <time>2021-11-17T10:58:23.433Z</time>
      </trkpt>
      <trkpt lat="47.88872" lon="-3.98946">
        <ele>13.33</ele>
        <time>2021-11-17T10:58:27.456Z</time>
      </trkpt>
      <trkpt lat="47.88867" lon="-3.98943">
        <ele>13.48</ele>
        <time>2021-11-17T10:58:31.457Z</time>
      </trkpt>
      <trkpt lat="47.88861" lon="-3.98938">
        <ele>13.38</ele>
        <time>2021-11-17T10:58:36.000Z</time>
      </trkpt>
      <trkpt lat="47.88854" lon="-3.98934">
        <ele>13.55</ele>
        <time>2021-11-17T10:58:40.522Z</time>
      </trkpt>
      <trkpt lat="47.88849" lon="-3.9893">
        <ele>13.39</ele>
        <time>2021-11-17T10:58:44.557Z</time>
      </trkpt>
      <trkpt lat="47.88844" lon="-3.98926">
        <ele>13.33</ele>
        <time>2021-11-17T10:58:48.657Z</time>
      </trkpt>
      <trkpt lat="47.88838" lon="-3.98923">
        <ele>13.45</ele>
        <time>2021-11-17T10:58:52.760Z</time>
      </trkpt>
      <trkpt lat="47.88833" lon="-3.98919">
        <ele>12.76</ele>
        <time>2021-11-17T10:58:56.863Z</time>
      </trkpt>
      <trkpt lat="47.88827" lon="-3.98915">
        <ele>11.34</ele>
        <time>2021-11-17T10:59:01.401Z</time>
      </trkpt>
      <trkpt lat="47.88822" lon="-3.98911">
        <ele>11.52</ele>
        <time>2021-11-17T10:59:05.512Z</time>
      </trkpt>
      <trkpt lat="47.88817" lon="-3.98908">
        <ele>10.65</ele>
        <time>2021-11-17T10:59:09.619Z</time>
      </trkpt>
      <trkpt lat="47.88811" lon="-3.98903">
        <ele>10.55</ele>
        <time>2021-11-17T10:59:14.000Z</time>
      </trkpt>
      <trkpt lat="47.88805" lon="-3.98899">
        <ele>10.37</ele>
        <time>2021-11-17T10:59:18.757Z</time>
      </trkpt>
      <trkpt lat="47.888" lon="-3.98896">
        <ele>10.17</ele>
        <time>2021-11-17T10:59:22.861Z</time>
      </trkpt>
      <trkpt lat="47.88793" lon="-3.98892">
        <ele>8.84</ele>
        <time>2021-11-17T10:59:27.876Z</time>
      </trkpt>
      <trkpt lat="47.88787" lon="-3.98888">
        <ele>8.89</ele>
        <time>2021-11-17T10:59:32.380Z</time>
      </trkpt>
      <trkpt lat="47.88781" lon="-3.98883">
        <ele>9.33</ele>
        <time>2021-11-17T10:59:37.322Z</time>
      </trkpt>
      <trkpt lat="47.88775" lon="-3.98879">
        <ele>8.84</ele>
        <time>2021-11-17T10:59:41.364Z</time>
      </trkpt>
      <trkpt lat="47.88769" lon="-3.98875">
        <ele>7.36</ele>
        <time>2021-11-17T10:59:45.883Z</time>
      </trkpt>
      <trkpt lat="47.88764" lon="-3.98871">
        <ele>7.55</ele>
        <time>2021-11-17T10:59:50.000Z</time>
      </trkpt>
      <trkpt lat="47.88758" lon="-3.98867">
        <ele>7.73</ele>
        <time>2021-11-17T10:59:54.512Z</time>
      </trkpt>
      <trkpt lat="47.88753" lon="-3.98863">
        <ele>7.6</ele>
        <time>2021-11-17T10:59:58.573Z</time>
      </trkpt>
      <trkpt lat="47.88748" lon="-3.98859">
        <ele>7.89</ele>
        <time>2021-11-17T11:00:02.600Z</time>
      </trkpt>
      <trkpt lat="47.88742" lon="-3.98855">
        <ele>7.11</ele>
        <time>2021-11-17T11:00:07.256Z</time>
      </trkpt>
      <trkpt lat="47.88736" lon="-3.98851">
        <ele>7.76</ele>
        <time>2021-11-17T11:00:11.298Z</time>
      </trkpt>
      <trkpt lat="47.88731" lon="-3.98847">
        <ele>7.41</ele>
        <time>2021-11-17T11:00:15.381Z</time>
      </trkpt>
      <trkpt lat="47.88725" lon="-3.98844">
        <ele>7.13</ele>
        <time>2021-11-17T11:00:20.000Z</time>
      </trkpt>
      <trkpt lat="47.8872" lon="-3.98841">
        <ele>5.94</ele>
        <time>2021-11-17T11:00:24.525Z</time>
      </trkpt>
      <trkpt lat="47.88716" lon="-3.98835">
        <ele>6.33</ele>
        <time>2021-11-17T11:00:28.762Z</time>
      </trkpt>
      <trkpt lat="47.88713" lon="-3.98828">
        <ele>5.94</ele>
        <time>2021-11-17T11:00:33.000Z</time>
      </trkpt>
      <trkpt lat="47.88708" lon="-3.98823">
        <ele>5.42</ele>
        <time>2021-11-17T11:00:37.735Z</time>
      </trkpt>
      <trkpt lat="47.88701" lon="-3.98825">
        <ele>5.44</ele>
        <time>2021-11-17T11:00:42.721Z</time>
      </trkpt>
      <trkpt lat="47.88694" lon="-3.98823">
        <ele>5.89</ele>
        <time>2021-11-17T11:00:48.000Z</time>
      </trkpt>
      <trkpt lat="47.88689" lon="-3.98821">
        <ele>5.11</ele>
        <time>2021-11-17T11:00:52.802Z</time>
      </trkpt>
      <trkpt lat="47.88684" lon="-3.9882">
        <ele>5.67</ele>
        <time>2021-11-17T11:00:57.540Z</time>
      </trkpt>
      <trkpt lat="47.8868" lon="-3.98827">
        <ele>6.73</ele>
        <time>2021-11-17T11:01:02.000Z</time>
      </trkpt>
      <trkpt lat="47.88673" lon="-3.98827">
        <ele>6.26</ele>
        <time>2021-11-17T11:01:06.387Z</time>
      </trkpt>
      <trkpt lat="47.88668" lon="-3.98823">
        <ele>5.9</ele>
        <time>2021-11-17T11:01:10.682Z</time>
      </trkpt>
      <trkpt lat="47.88664" lon="-3.98821">
        <ele>5.96</ele>
        <time>2021-11-17T11:01:15.000Z</time>
      </trkpt>
      <trkpt lat="47.8866" lon="-3.98818">
        <ele>5.92</ele>
        <time>2021-11-17T11:01:20.000Z</time>
      </trkpt>
      <trkpt lat="47.88659" lon="-3.98817">
        <ele>5.8</ele>
        <time>2021-11-17T11:01:25.000Z</time>
      </trkpt>
      <trkpt lat="47.8866" lon="-3.98818">
        <ele>5.75</ele>
        <time>2021-11-17T11:01:42.000Z</time>
      </trkpt>
      <trkpt lat="47.88659" lon="-3.98816">
        <ele>5.57</ele>
        <time>2021-11-17T11:01:57.000Z</time>
      </trkpt>
      <trkpt lat="47.88655" lon="-3.98815">
        <ele>5.54</ele>
        <time>2021-11-17T11:02:01.513Z</time>
      </trkpt>
      <trkpt lat="47.88652" lon="-3.98816">
        <ele>5.52</ele>
        <time>2021-11-17T11:02:05.679Z</time>
      </trkpt>
      <trkpt lat="47.88652" lon="-3.98818">
        <ele>5.59</ele>
        <time>2021-11-17T11:02:07.000Z</time>
      </trkpt>
    </trkseg>
  </trk>
</gpx>